[[{"header":{"parameterUnit":"m.s-1","parameterCategory":1,"la1":31.0,"la2":29.5877,"lo1":-88.7671,"lo2":-86.6584,"dy":0.0162,"dx":0.0185,"nx":115,"ny":88,"refTime":"2024-09-03T06:00:00:Z","depth":0,"parameterNumber":2,"parameterNumberName":"U-component_of_WINDS"},"data":[0.0,0.0,0.0,0.0,0.0,0.0,0.0,0.0,0.0,0.0,0.0,0.0,0.0,0.0,0.0,0.0,0.0,0.0,0.0,0.0,0.0,0.0,0.0,0.0,0.0,0.0,0.0,0.0,0.0,0.0,0.0,0.0,0.0,0.0,0.0,0.0,0.0,0.0,0.0,0.0,0.0,0.0,0.0,0.0,0.0,0.0,0.0,0.0,0.0,0.0,0.0,0.0,0.0,0.0,0.0,0.0,0.0,0.0,0.0,0.0,0.0,0.0,0.0,0.0,0.0,0.0,0.0,0.0,0.0,0.0,0.0,0.0,0.0,0.0,0.0,0.0,0.0,0.0,0.0,0.0,0.0,0.0,0.0,0.0,0.0,0.0,0.0,0.0,0.0,0.0,0.0,0.0,0.0,0.0,0.0,0.0,0.0,0.0,0.0,0.0,0.0,0.0,0.0,0.0,0.0,0.0,0.0,0.0,0.0,0.0,0.0,0.0,0.0,0.0,0.0,0.0,0.0,0.0,0.0,0.0,0.0,0.0,0.0,0.0,0.0,0.0,0.0,0.0,0.0,0.0,0.0,0.0,0.0,0.0,0.0,0.0,0.0,0.0,0.0,0.0,0.0,0.0,0.0,0.0,0.0,0.0,0.0,0.0,0.0,0.0,0.0,0.0,0.0,0.0,0.0,0.0,0.0,0.0,0.0,0.0,0.0,0.0,0.0,0.0,0.0,0.0,0.0,0.0,0.0,0.0,0.0,0.0,0.0,0.0,0.0,0.0,0.0,0.0,0.0,0.0,0.0,0.0,0.0,0.0,0.0,0.0,0.0,0.0,0.0,0.0,0.0,0.0,0.0,0.0,0.0,0.0,0.0,0.0,0.0,0.0,0.0,0.0,0.0,0.0,0.0,0.0,0.0,0.0,0.0,0.0,0.0,0.0,0.0,0.0,0.0,0.0,0.0,0.0,0.0,0.0,0.0,0.0,0.0,0.0,0.0,0.0,0.0,0.0,0.0,0.0,0.0,0.0,0.0,0.0,0.0,0.0,0.0,0.0,0.0,0.0,0.0,0.0,0.0,0.0,0.0,0.0,0.0,0.0,0.0,0.0,0.0,0.0,0.0,0.0,0.0,0.0,0.0,0.0,0.0,0.0,0.0,0.0,0.0,0.0,0.0,0.0,0.0,0.0,0.0,0.0,0.0,0.0,0.0,0.0,0.0,0.0,0.0,0.0,0.0,0.0,0.0,0.0,0.0,0.0,0.0,0.0,0.0,0.0,0.0,0.0,0.0,0.0,0.0,0.0,0.0,0.0,0.0,0.0,0.0,0.0,0.0,0.0,0.0,0.0,0.0,0.0,0.0,0.0,0.0,0.0,0.0,0.0,0.0,0.0,0.0,0.0,0.0,0.0,0.0,0.0,0.0,0.0,0.0,0.0,0.0,0.0,0.0,0.0,0.0,0.0,0.0,0.0,0.0,0.0,0.0,0.0,0.0,0.0,0.0,0.0,0.0,0.0,0.0,0.0,0.0,0.0,0.0,0.0,0.0,0.0,0.0,0.0,0.0,0.0,0.0,0.0,0.0,0.0,0.0,0.0,0.0,0.0,0.0,0.0,0.0,0.0,0.0,0.0,0.0,0.0,0.0,0.0,0.0,0.0,0.0,0.0,0.0,0.0,0.0,0.0,0.0,0.0,0.0,0.0,0.0,0.0,0.0,0.0,0.0,0.0,0.0,0.0,0.0,0.0,0.0,0.0,0.0,0.0,0.0,0.0,0.0,0.0,0.0,0.0,0.0,0.0,0.0,0.0,0.0,0.0,0.0,0.0,0.0,0.0,0.0,0.0,0.0,0.0,0.0,0.0,0.0,0.0,0.0,0.0,0.0,0.0,0.0,0.0,0.0,0.0,0.0,0.0,0.0,0.0,0.0,0.0,0.0,0.0,0.0,0.0,0.0,0.0,0.0,0.0,0.0,0.0,0.0,0.0,0.0,0.0,0.0,0.0,0.0,0.0,0.0,0.0,0.0,0.0,0.0,0.0,0.0,0.0,0.0,0.0,0.0,0.0,0.0,0.0,0.0,0.0,0.0,0.0,0.0,0.0,0.0,0.0,0.0,0.0,0.0,0.0,0.0,0.0,0.0,0.0,0.0,0.0,0.0,0.0,0.0,0.0,0.0,0.0,0.0,0.0,0.0,0.0,0.0,0.0,0.0,0.0,0.0,0.0,0.0,0.0,0.0,0.0,0.0,0.0,0.0,0.0,0.0,0.0,0.0,0.0,0.0,0.0,0.0,0.0,0.0,0.0,0.0,0.0,0.0,0.0,0.0,0.0,0.0,0.0,0.0,0.0,0.0,0.0,0.0,0.0,0.0,0.0,0.0,0.0,0.0,0.0,0.0,0.0,0.0,0.0,0.0,0.0,0.0,0.0,0.0,0.0,0.0,0.0,0.0,0.0,0.0,0.0,0.0,0.0,0.0,0.0,0.0,0.0,0.0,0.0,0.0,0.0,0.0,0.0,0.0,0.0,0.0,0.0,0.0,0.0,0.0,0.0,0.0,0.0,0.0,0.0,0.0,0.0,0.0,0.0,0.0,0.0,0.0,0.0,0.0,0.0,0.0,0.0,0.0,0.0,0.0,0.0,0.0,0.0,0.0,0.0,0.0,0.0,0.0,0.0,0.0,0.0,0.0,0.0,0.0,0.0,0.0,0.0,0.0,0.0,0.0,0.0,0.0,0.0,0.0,0.0,0.0,0.0,0.0,0.0,0.0,0.0,0.0,0.0,0.0,0.0,0.0,0.0,0.0,0.0,0.0,0.0,0.0,0.0,0.0,0.0,0.0,0.0,0.0,0.0,0.0,0.0,0.0,0.0,0.0,0.0,0.0,0.0,0.0,0.0,0.0,0.0,0.0,0.0,0.0,0.0,0.0,0.0,0.0,0.0,0.0,0.0,0.0,0.0,0.0,0.0,0.0,0.0,0.0,0.0,0.0,0.0,0.0,0.0,0.0,0.0,0.0,0.0,0.0,0.0,0.0,0.0,0.0,0.0,0.0,0.0,0.0,0.0,0.0,0.0,0.0,0.0,0.0,0.0,0.0,0.0,0.0,0.0,0.0,0.0,0.0,0.0,0.0,0.0,0.0,0.0,0.0,0.0,0.0,0.0,0.0,0.0,0.0,0.0,0.0,0.0,0.0,0.0,0.0,0.0,0.0,0.0,0.0,0.0,0.0,0.0,0.0,0.0,0.0,0.0,0.0,0.0,0.0,0.0,0.0,0.0,0.0,0.0,0.0,0.0,0.0,0.0,0.0,0.0,0.0,0.0,0.0,0.0,0.0,0.0,0.0,0.0,0.0,0.0,0.0,0.0,0.0,0.0,0.0,0.0,0.0,0.0,0.0,0.0,0.0,0.0,0.0,0.0,0.0,0.0,0.0,0.0,0.0,0.0,0.0,0.0,0.0,0.0,0.0,0.0,0.0,0.0,0.0,0.0,0.0,0.0,0.0,0.0,0.0,0.0,0.0,0.0,0.0,0.0,0.0,0.0,0.0,0.0,0.0,0.0,0.0,0.0,0.0,0.0,0.0,0.0,0.0,0.0,0.0,0.0,0.0,0.0,0.0,0.0,0.0,0.0,0.0,0.0,0.0,0.0,0.0,0.0,0.0,0.0,0.0,0.0,0.0,0.0,0.0,0.0,0.0,0.0,0.0,0.0,0.0,0.0,0.0,0.0,0.0,0.0,0.0,0.0,0.0,0.0,0.0,0.0,0.0,0.0,0.0,0.0,0.0,0.0,0.0,0.0,0.0,0.0,0.0,0.0,0.0,0.0,0.0,0.0,0.0,0.0,0.0,0.0,0.0,0.0,0.0,0.0,0.0,0.0,0.0,0.0,0.0,0.0,0.0,0.0,0.0,0.0,0.0,0.0,0.0,0.0,0.0,0.0,0.0,0.0,0.0,0.0,0.0,0.0,0.0,0.0,0.0,0.0,0.0,0.0,0.0,0.0,0.0,0.0,0.0,0.0,0.0,0.0,0.0,0.0,0.0,0.0,0.0,0.0,0.0,0.0,0.0,0.0,0.0,0.0,0.0,0.0,0.0,0.0,0.0,0.0,0.0,0.0,0.0,0.0,0.0,0.0,0.0,0.0,0.0,0.0,0.0,0.0,0.0,0.0,0.0,0.0,0.0,0.0,0.0,0.0,0.0,0.0,0.0,0.0,0.0,0.0,0.0,0.0,0.0,0.0,0.0,0.0,0.0,0.0,0.0,0.0,0.0,0.0,4.1767,0.0,0.0,0.0,0.0,0.0,0.0,0.0,0.0,0.0,0.0,0.0,0.0,0.0,0.0,0.0,0.0,0.0,0.0,0.0,0.0,0.0,0.0,0.0,0.0,0.0,0.0,0.0,0.0,0.0,0.0,0.0,0.0,0.0,0.0,0.0,0.0,0.0,0.0,0.0,0.0,0.0,0.0,0.0,0.0,0.0,0.0,0.0,0.0,0.0,0.0,0.0,0.0,0.0,0.0,0.0,0.0,0.0,0.0,0.0,0.0,0.0,0.0,0.0,0.0,0.0,0.0,0.0,0.0,0.0,0.0,0.0,0.0,0.0,0.0,0.0,0.0,0.0,0.0,0.0,0.0,0.0,0.0,0.0,0.0,0.0,0.0,0.0,0.0,0.0,0.0,0.0,0.0,0.0,0.0,0.0,0.0,0.0,0.0,0.0,0.0,0.0,0.0,0.0,0.0,0.0,0.0,0.0,0.0,0.0,0.0,4.2967,4.2703,4.2953,4.227,4.0592,0.0,0.0,0.0,0.0,0.0,0.0,0.0,0.0,0.0,0.0,0.0,0.0,0.0,0.0,0.0,0.0,0.0,0.0,0.0,0.0,0.0,0.0,0.0,0.0,0.0,0.0,0.0,0.0,0.0,0.0,0.0,0.0,0.0,0.0,0.0,0.0,0.0,0.0,0.0,0.0,0.0,0.0,0.0,0.0,0.0,0.0,0.0,0.0,0.0,0.0,0.0,0.0,0.0,0.0,0.0,0.0,0.0,0.0,0.0,0.0,0.0,0.0,0.0,0.0,0.0,0.0,0.0,0.0,0.0,0.0,0.0,0.0,0.0,0.0,0.0,0.0,0.0,0.0,0.0,0.0,0.0,0.0,0.0,0.0,0.0,0.0,0.0,0.0,0.0,0.0,0.0,0.0,0.0,0.0,0.0,0.0,0.0,0.0,0.0,0.0,0.0,0.0,0.0,0.0,0.0,0.0,0.0,0.0,0.0,0.0,0.0,0.0,4.3238,4.2312,4.0307,0.0,0.0,0.0,0.0,0.0,0.0,0.0,0.0,0.0,0.0,0.0,0.0,0.0,0.0,0.0,0.0,0.0,0.0,0.0,0.0,0.0,0.0,0.0,0.0,0.0,0.0,0.0,0.0,0.0,0.0,0.0,0.0,0.0,0.0,0.0,0.0,0.0,0.0,0.0,0.0,0.0,0.0,0.0,0.0,0.0,0.0,0.0,0.0,0.0,0.0,0.0,0.0,0.0,0.0,0.0,0.0,0.0,0.0,0.0,0.0,0.0,0.0,0.0,0.0,0.0,0.0,0.0,0.0,0.0,0.0,0.0,0.0,0.0,0.0,0.0,0.0,0.0,0.0,0.0,0.0,0.0,0.0,0.0,0.0,0.0,0.0,0.0,0.0,0.0,0.0,0.0,0.0,0.0,0.0,0.0,0.0,0.0,0.0,0.0,0.0,0.0,0.0,0.0,0.0,0.0,0.0,0.0,0.0,0.0,0.0,4.2834,4.4815,4.4826,0.0,4.2476,0.0,0.0,0.0,0.0,0.0,0.0,0.0,0.0,0.0,0.0,0.0,0.0,0.0,0.0,0.0,0.0,0.0,0.0,0.0,0.0,0.0,0.0,0.0,0.0,0.0,0.0,0.0,0.0,0.0,0.0,0.0,0.0,0.0,0.0,0.0,0.0,0.0,0.0,0.0,0.0,0.0,0.0,0.0,0.0,0.0,0.0,0.0,0.0,0.0,0.0,0.0,0.0,0.0,0.0,0.0,0.0,0.0,0.0,0.0,0.0,0.0,0.0,0.0,0.0,0.0,0.0,0.0,0.0,0.0,0.0,0.0,0.0,0.0,0.0,0.0,0.0,0.0,0.0,0.0,0.0,0.0,0.0,0.0,0.0,0.0,0.0,0.0,0.0,0.0,0.0,0.0,0.0,0.0,0.0,0.0,0.0,0.0,0.0,0.0,0.0,0.0,0.0,0.0,0.0,0.0,0.0,0.0,0.0,0.0,0.0,0.0,4.3969,4.28,4.1756,0.0,0.0,0.0,0.0,0.0,0.0,0.0,0.0,0.0,0.0,0.0,0.0,0.0,0.0,0.0,0.0,0.0,0.0,0.0,0.0,0.0,0.0,0.0,0.0,0.0,0.0,0.0,0.0,0.0,0.0,0.0,0.0,0.0,0.0,0.0,0.0,0.0,0.0,0.0,0.0,0.0,0.0,0.0,0.0,0.0,0.0,0.0,0.0,0.0,0.0,0.0,0.0,0.0,0.0,0.0,0.0,0.0,0.0,0.0,0.0,0.0,0.0,0.0,0.0,0.0,0.0,0.0,0.0,0.0,0.0,0.0,0.0,0.0,0.0,0.0,0.0,0.0,0.0,0.0,0.0,0.0,0.0,0.0,0.0,0.0,0.0,0.0,0.0,0.0,0.0,0.0,0.0,0.0,0.0,0.0,0.0,0.0,0.0,0.0,0.0,0.0,0.0,0.0,0.0,0.0,0.0,0.0,0.0,0.0,0.0,4.2341,0.0,4.3759,4.2376,4.1028,3.9886,0.0,0.0,0.0,0.0,0.0,0.0,0.0,0.0,0.0,0.0,0.0,0.0,0.0,0.0,0.0,0.0,0.0,0.0,0.0,0.0,0.0,0.0,0.0,0.0,0.0,0.0,0.0,0.0,0.0,0.0,0.0,0.0,0.0,0.0,0.0,0.0,0.0,0.0,0.0,0.0,0.0,0.0,0.0,0.0,0.0,0.0,0.0,0.0,0.0,0.0,0.0,0.0,0.0,0.0,0.0,0.0,0.0,0.0,0.0,0.0,0.0,0.0,0.0,0.0,0.0,0.0,0.0,0.0,0.0,0.0,0.0,0.0,0.0,0.0,0.0,0.0,0.0,0.0,0.0,0.0,0.0,0.0,0.0,0.0,0.0,0.0,0.0,0.0,0.0,0.0,0.0,0.0,0.0,0.0,0.0,0.0,0.0,0.0,0.0,0.0,0.0,0.0,0.0,0.0,0.0,0.0,0.0,0.0,0.0,4.301,4.3349,4.5394,4.5256,4.3545,0.0,0.0,0.0,0.0,0.0,0.0,0.0,0.0,0.0,0.0,0.0,0.0,0.0,0.0,0.0,0.0,0.0,0.0,0.0,0.0,0.0,0.0,0.0,0.0,0.0,0.0,0.0,0.0,0.0,0.0,0.0,0.0,0.0,0.0,0.0,0.0,0.0,0.0,0.0,0.0,0.0,0.0,0.0,0.0,0.0,0.0,0.0,0.0,0.0,0.0,0.0,0.0,0.0,0.0,0.0,0.0,0.0,0.0,0.0,0.0,0.0,0.0,0.0,0.0,0.0,0.0,0.0,0.0,0.0,0.0,0.0,0.0,0.0,0.0,0.0,0.0,0.0,0.0,0.0,0.0,0.0,0.0,0.0,0.0,0.0,0.0,0.0,0.0,0.0,0.0,0.0,0.0,0.0,0.0,0.0,0.0,0.0,0.0,0.0,0.0,0.0,0.0,0.0,0.0,0.0,0.0,0.0,0.0,0.0,4.0258,4.1606,4.3607,4.6156,4.3541,4.1376,0.0,0.0,0.0,0.0,0.0,0.0,0.0,0.0,0.0,0.0,0.0,0.0,0.0,0.0,0.0,0.0,0.0,0.0,0.0,0.0,0.0,0.0,0.0,0.0,0.0,0.0,0.0,0.0,0.0,0.0,0.0,0.0,0.0,0.0,0.0,0.0,0.0,0.0,0.0,0.0,0.0,0.0,0.0,0.0,0.0,0.0,0.0,0.0,0.0,0.0,0.0,0.0,0.0,0.0,0.0,0.0,0.0,0.0,0.0,0.0,0.0,0.0,0.0,0.0,0.0,0.0,0.0,0.0,0.0,0.0,0.0,0.0,0.0,0.0,0.0,0.0,0.0,0.0,0.0,0.0,0.0,0.0,0.0,0.0,0.0,0.0,0.0,0.0,0.0,0.0,0.0,0.0,0.0,0.0,0.0,0.0,0.0,0.0,0.0,0.0,0.0,0.0,0.0,0.0,0.0,0.0,0.0,0.0,0.0,3.9669,0.0,4.4499,0.0,4.2888,4.0379,0.0,0.0,0.0,0.0,0.0,0.0,0.0,0.0,0.0,0.0,0.0,0.0,0.0,0.0,0.0,0.0,0.0,0.0,0.0,0.0,0.0,0.0,0.0,0.0,0.0,0.0,0.0,0.0,0.0,0.0,0.0,0.0,0.0,0.0,0.0,0.0,0.0,0.0,0.0,0.0,0.0,0.0,0.0,0.0,0.0,0.0,0.0,0.0,0.0,0.0,0.0,0.0,0.0,0.0,0.0,0.0,0.0,0.0,0.0,0.0,0.0,0.0,0.0,0.0,0.0,0.0,0.0,0.0,0.0,0.0,0.0,0.0,0.0,0.0,0.0,0.0,0.0,0.0,0.0,0.0,0.0,0.0,0.0,0.0,0.0,0.0,0.0,0.0,0.0,0.0,0.0,0.0,0.0,0.0,0.0,0.0,0.0,0.0,0.0,0.0,0.0,0.0,0.0,0.0,0.0,0.0,0.0,0.0,3.8925,4.3112,4.5399,4.5853,4.4675,4.37,4.0914,0.0,0.0,0.0,0.0,0.0,0.0,0.0,0.0,0.0,0.0,0.0,0.0,0.0,0.0,0.0,0.0,0.0,0.0,0.0,0.0,0.0,0.0,0.0,0.0,0.0,0.0,0.0,0.0,0.0,0.0,0.0,0.0,0.0,0.0,0.0,0.0,0.0,0.0,0.0,0.0,0.0,0.0,0.0,0.0,0.0,0.0,0.0,0.0,0.0,0.0,0.0,0.0,0.0,0.0,0.0,0.0,0.0,0.0,0.0,0.0,0.0,0.0,0.0,0.0,0.0,0.0,0.0,0.0,0.0,0.0,0.0,0.0,0.0,0.0,0.0,0.0,0.0,0.0,0.0,0.0,0.0,0.0,0.0,0.0,0.0,0.0,0.0,0.0,0.0,0.0,0.0,0.0,0.0,0.0,0.0,0.0,0.0,0.0,0.0,0.0,0.0,0.0,0.0,0.0,0.0,0.0,0.0,0.0,0.0,4.0379,4.2564,4.4228,4.5196,4.2611,4.0609,0.0,0.0,0.0,0.0,0.0,0.0,0.0,0.0,0.0,0.0,0.0,0.0,0.0,0.0,0.0,0.0,0.0,0.0,0.0,0.0,0.0,0.0,0.0,0.0,0.0,0.0,0.0,0.0,0.0,0.0,0.0,0.0,0.0,0.0,0.0,0.0,0.0,0.0,0.0,0.0,0.0,0.0,0.0,0.0,0.0,0.0,0.0,0.0,0.0,0.0,0.0,0.0,0.0,0.0,0.0,0.0,0.0,0.0,0.0,0.0,0.0,0.0,0.0,0.0,0.0,0.0,0.0,0.0,0.0,0.0,0.0,0.0,0.0,0.0,0.0,0.0,0.0,0.0,0.0,0.0,0.0,0.0,0.0,0.0,0.0,0.0,0.0,0.0,0.0,0.0,0.0,0.0,0.0,0.0,0.0,0.0,0.0,0.0,0.0,0.0,0.0,0.0,0.0,0.0,0.0,0.0,0.0,0.0,0.0,4.121,4.3789,4.5609,4.65,4.3693,4.1495,3.998,0.0,0.0,0.0,0.0,0.0,0.0,0.0,0.0,0.0,0.0,0.0,0.0,0.0,0.0,0.0,0.0,0.0,0.0,0.0,0.0,0.0,0.0,0.0,0.0,0.0,0.0,0.0,0.0,0.0,0.0,0.0,0.0,0.0,0.0,0.0,0.0,0.0,0.0,0.0,0.0,0.0,0.0,0.0,0.0,0.0,0.0,0.0,0.0,0.0,0.0,0.0,0.0,0.0,0.0,0.0,0.0,0.0,0.0,0.0,0.0,0.0,0.0,0.0,0.0,0.0,0.0,0.0,0.0,0.0,0.0,0.0,0.0,0.0,0.0,0.0,0.0,0.0,0.0,0.0,0.0,0.0,0.0,0.0,0.0,0.0,0.0,0.0,0.0,0.0,0.0,0.0,0.0,0.0,0.0,0.0,0.0,0.0,0.0,0.0,0.0,0.0,0.0,0.0,0.0,0.0,0.0,0.0,0.0,4.477,4.8391,4.956,4.8124,4.6508,4.3362,0.0,0.0,0.0,0.0,0.0,0.0,0.0,0.0,0.0,0.0,0.0,0.0,0.0,0.0,0.0,0.0,0.0,0.0,0.0,0.0,0.0,0.0,0.0,0.0,0.0,0.0,0.0,0.0,0.0,0.0,0.0,0.0,0.0,0.0,0.0,0.0,0.0,0.0,0.0,0.0,0.0,0.0,0.0,0.0,0.0,0.0,0.0,0.0,0.0,0.0,0.0,0.0,0.0,0.0,0.0,0.0,0.0,0.0,0.0,0.0,0.0,0.0,0.0,0.0,0.0,0.0,0.0,0.0,0.0,0.0,0.0,0.0,0.0,0.0,0.0,0.0,0.0,0.0,0.0,0.0,0.0,0.0,0.0,0.0,0.0,0.0,0.0,0.0,0.0,0.0,0.0,0.0,0.0,0.0,0.0,0.0,0.0,0.0,0.0,0.0,0.0,0.0,0.0,0.0,0.0,0.0,0.0,0.0,0.0,4.7075,5.0676,5.1894,5.0322,4.7319,4.4539,0.0,0.0,0.0,0.0,0.0,0.0,0.0,0.0,0.0,0.0,0.0,0.0,0.0,0.0,0.0,0.0,0.0,0.0,0.0,0.0,0.0,0.0,0.0,0.0,0.0,0.0,0.0,0.0,0.0,0.0,0.0,0.0,0.0,0.0,0.0,0.0,0.0,0.0,0.0,0.0,0.0,0.0,0.0,0.0,0.0,0.0,0.0,0.0,0.0,0.0,0.0,0.0,0.0,0.0,0.0,0.0,0.0,0.0,0.0,0.0,0.0,0.0,0.0,0.0,0.0,0.0,0.0,0.0,0.0,0.0,0.0,0.0,0.0,0.0,0.0,0.0,0.0,0.0,0.0,0.0,0.0,0.0,0.0,0.0,0.0,0.0,0.0,0.0,0.0,0.0,0.0,0.0,0.0,0.0,0.0,0.0,0.0,0.0,0.0,0.0,0.0,0.0,0.0,0.0,0.0,0.0,0.0,0.0,4.6421,4.836,5.2325,5.3856,5.2672,4.9011,4.5763,0.0,0.0,0.0,0.0,0.0,0.0,0.0,0.0,0.0,0.0,0.0,0.0,0.0,0.0,0.0,0.0,0.0,0.0,0.0,0.0,0.0,0.0,0.0,0.0,0.0,0.0,0.0,0.0,0.0,0.0,0.0,0.0,0.0,0.0,0.0,0.0,0.0,0.0,0.0,0.0,0.0,0.0,0.0,0.0,0.0,0.0,0.0,0.0,0.0,0.0,0.0,0.0,0.0,0.0,0.0,0.0,0.0,0.0,0.0,0.0,0.0,0.0,0.0,0.0,0.0,0.0,0.0,0.0,0.0,0.0,0.0,0.0,0.0,0.0,0.0,0.0,0.0,0.0,0.0,0.0,0.0,0.0,0.0,0.0,0.0,0.0,0.0,0.0,0.0,0.0,0.0,0.0,0.0,0.0,0.0,0.0,0.0,0.0,0.0,0.0,0.0,0.0,0.0,0.0,0.0,0.0,0.0,0.0,4.7631,4.912,5.334,5.5259,5.455,5.0939,4.7022,0.0,0.0,0.0,0.0,0.0,0.0,0.0,0.0,0.0,0.0,0.0,0.0,0.0,0.0,0.0,0.0,0.0,0.0,0.0,0.0,0.0,0.0,0.0,0.0,0.0,0.0,0.0,0.0,0.0,0.0,0.0,0.0,0.0,0.0,0.0,0.0,0.0,0.0,0.0,0.0,0.0,0.0,0.0,0.0,0.0,0.0,0.0,0.0,0.0,0.0,0.0,0.0,0.0,0.0,0.0,0.0,0.0,0.0,0.0,0.0,0.0,0.0,0.0,0.0,0.0,0.0,0.0,0.0,0.0,0.0,0.0,0.0,0.0,0.0,0.0,0.0,0.0,0.0,0.0,0.0,0.0,0.0,0.0,0.0,0.0,0.0,0.0,0.0,0.0,0.0,0.0,0.0,0.0,0.0,0.0,0.0,0.0,0.0,0.0,0.0,0.0,0.0,0.0,0.0,0.0,0.0,0.0,0.0,4.8376,4.9872,5.3112,5.4778,5.4575,5.098,4.7725,0.0,0.0,0.0,0.0,0.0,0.0,0.0,0.0,0.0,0.0,0.0,0.0,0.0,0.0,0.0,0.0,0.0,0.0,0.0,0.0,0.0,0.0,0.0,0.0,0.0,0.0,0.0,0.0,0.0,0.0,0.0,0.0,0.0,0.0,0.0,0.0,0.0,0.0,0.0,0.0,0.0,0.0,0.0,0.0,0.0,0.0,0.0,0.0,3.8097,0.0,0.0,0.0,0.0,0.0,0.0,0.0,0.0,0.0,0.0,0.0,0.0,0.0,0.0,0.0,0.0,0.0,0.0,0.0,0.0,0.0,0.0,0.0,0.0,0.0,0.0,0.0,0.0,0.0,0.0,0.0,0.0,0.0,0.0,0.0,0.0,0.0,0.0,0.0,0.0,0.0,0.0,0.0,0.0,0.0,0.0,0.0,0.0,0.0,0.0,0.0,0.0,0.0,0.0,0.0,0.0,0.0,0.0,0.0,4.8436,5.0608,5.2883,5.3898,5.3458,5.0921,4.8139,0.0,0.0,0.0,0.0,0.0,0.0,0.0,0.0,0.0,0.0,0.0,0.0,0.0,0.0,0.0,0.0,0.0,0.0,0.0,0.0,0.0,0.0,0.0,0.0,0.0,0.0,0.0,0.0,0.0,0.0,0.0,0.0,0.0,0.0,0.0,0.0,0.0,0.0,0.0,0.0,0.0,0.0,0.0,0.0,0.0,0.0,0.0,0.0,0.0,0.0,0.0,0.0,0.0,0.0,0.0,0.0,0.0,0.0,0.0,0.0,0.0,0.0,0.0,0.0,0.0,0.0,0.0,0.0,0.0,0.0,0.0,0.0,0.0,0.0,0.0,0.0,0.0,0.0,0.0,0.0,0.0,0.0,0.0,0.0,0.0,0.0,0.0,0.0,0.0,0.0,0.0,0.0,0.0,0.0,0.0,0.0,0.0,0.0,0.0,0.0,0.0,0.0,0.0,0.0,0.0,0.0,0.0,4.5406,4.818,5.1235,5.2621,5.2942,5.2131,5.071,4.8173,4.4478,0.0,0.0,0.0,0.0,0.0,0.0,0.0,0.0,0.0,0.0,0.0,0.0,0.0,0.0,0.0,0.0,0.0,0.0,0.0,0.0,0.0,0.0,0.0,0.0,0.0,0.0,0.0,0.0,0.0,0.0,0.0,0.0,0.0,0.0,0.0,0.0,0.0,0.0,3.5362,3.7043,0.0,0.0,0.0,0.0,0.0,0.0,0.0,0.0,3.8802,0.0,0.0,0.0,0.0,0.0,0.0,0.0,0.0,0.0,0.0,0.0,0.0,0.0,0.0,0.0,0.0,0.0,0.0,0.0,0.0,0.0,0.0,0.0,0.0,0.0,0.0,0.0,0.0,0.0,0.0,0.0,0.0,0.0,0.0,0.0,0.0,0.0,0.0,0.0,0.0,0.0,0.0,0.0,0.0,0.0,0.0,0.0,0.0,0.0,0.0,0.0,0.0,0.0,0.0,0.0,0.0,4.5954,4.594,4.7902,5.1987,5.2367,5.2156,5.137,4.9958,4.7413,4.3754,0.0,0.0,0.0,0.0,0.0,0.0,0.0,0.0,0.0,0.0,0.0,0.0,0.0,0.0,0.0,0.0,0.0,0.0,0.0,0.0,0.0,0.0,0.0,0.0,0.0,0.0,0.0,0.0,0.0,0.0,0.0,0.0,0.0,0.0,0.0,0.0,0.0,0.0,0.0,3.9497,4.0371,0.0,0.0,0.0,0.0,0.0,0.0,0.0,0.0,4.021,0.0,0.0,0.0,0.0,0.0,0.0,0.0,0.0,0.0,0.0,0.0,0.0,0.0,0.0,0.0,0.0,0.0,0.0,0.0,0.0,0.0,0.0,0.0,0.0,0.0,0.0,0.0,0.0,0.0,0.0,0.0,0.0,0.0,0.0,0.0,0.0,0.0,0.0,0.0,0.0,0.0,0.0,0.0,0.0,0.0,0.0,0.0,0.0,0.0,0.0,0.0,0.0,0.0,0.0,0.0,4.4222,4.6041,4.8428,5.1581,5.175,5.1386,5.0642,4.8477,4.5689,0.0,0.0,0.0,0.0,0.0,0.0,0.0,0.0,0.0,0.0,0.0,0.0,0.0,0.0,0.0,0.0,0.0,0.0,0.0,0.0,0.0,0.0,0.0,0.0,0.0,0.0,0.0,0.0,0.0,0.0,0.0,0.0,0.0,0.0,0.0,0.0,0.0,0.0,0.0,0.0,4.0426,4.1346,4.322,0.0,0.0,0.0,0.0,0.0,0.0,4.0832,4.0324,0.0,0.0,0.0,0.0,0.0,0.0,0.0,0.0,0.0,0.0,0.0,0.0,0.0,0.0,0.0,0.0,0.0,0.0,0.0,0.0,0.0,0.0,0.0,0.0,0.0,0.0,0.0,0.0,0.0,0.0,0.0,0.0,0.0,0.0,0.0,0.0,0.0,0.0,0.0,0.0,0.0,0.0,0.0,0.0,0.0,0.0,0.0,0.0,0.0,0.0,0.0,0.0,0.0,0.0,0.0,4.2293,4.5831,4.8766,5.0863,5.0972,5.0634,4.9838,4.7022,4.414,0.0,0.0,0.0,0.0,0.0,0.0,0.0,0.0,0.0,0.0,0.0,0.0,0.0,0.0,0.0,0.0,0.0,0.0,0.0,0.0,0.0,0.0,0.0,0.0,0.0,0.0,0.0,0.0,0.0,0.0,0.0,0.0,0.0,0.0,0.0,0.0,0.0,0.0,0.0,0.0,0.0,4.2597,4.4533,4.3653,0.0,0.0,0.0,0.0,4.1671,4.1407,0.0,0.0,0.0,0.0,0.0,0.0,0.0,0.0,0.0,0.0,0.0,0.0,0.0,0.0,0.0,0.0,0.0,0.0,0.0,0.0,0.0,0.0,0.0,0.0,0.0,0.0,0.0,0.0,0.0,0.0,0.0,0.0,0.0,0.0,0.0,0.0,0.0,0.0,0.0,0.0,0.0,0.0,0.0,0.0,0.0,0.0,0.0,0.0,0.0,0.0,0.0,0.0,0.0,0.0,0.0,0.0,4.2259,4.5331,4.8011,5.0117,5.0244,4.9872,4.9112,4.6259,4.3612,0.0,0.0,0.0,0.0,0.0,0.0,0.0,0.0,0.0,0.0,0.0,0.0,0.0,0.0,0.0,0.0,0.0,0.0,0.0,0.0,0.0,0.0,0.0,0.0,0.0,0.0,0.0,0.0,0.0,0.0,0.0,0.0,0.0,0.0,0.0,0.0,0.0,0.0,0.0,0.0,0.0,4.4533,4.5432,4.4864,4.3829,0.0,0.0,4.3951,4.3254,4.4208,0.0,0.0,0.0,0.0,0.0,0.0,0.0,0.0,0.0,0.0,0.0,0.0,0.0,0.0,0.0,0.0,0.0,0.0,0.0,0.0,0.0,0.0,0.0,0.0,0.0,0.0,0.0,0.0,0.0,0.0,0.0,0.0,0.0,0.0,0.0,0.0,0.0,0.0,0.0,0.0,0.0,0.0,0.0,0.0,0.0,0.0,0.0,0.0,0.0,0.0,0.0,0.0,0.0,0.0,0.0,3.9451,4.1149,4.5676,4.8518,4.9432,4.9458,4.9323,4.8984,4.5304,4.2462,0.0,0.0,0.0,0.0,0.0,0.0,0.0,0.0,0.0,0.0,0.0,0.0,0.0,0.0,0.0,0.0,0.0,0.0,0.0,0.0,0.0,0.0,0.0,0.0,0.0,0.0,0.0,0.0,0.0,0.0,0.0,0.0,0.0,0.0,0.0,0.0,0.0,0.0,0.0,0.0,0.0,0.0,4.5662,4.5778,0.0,0.0,0.0,4.4323,4.3524,0.0,0.0,0.0,0.0,0.0,0.0,0.0,0.0,0.0,0.0,0.0,0.0,0.0,0.0,0.0,0.0,0.0,0.0,0.0,0.0,0.0,0.0,0.0,0.0,0.0,0.0,0.0,0.0,0.0,0.0,0.0,0.0,0.0,0.0,0.0,0.0,0.0,0.0,0.0,0.0,0.0,0.0,0.0,0.0,0.0,0.0,0.0,0.0,0.0,0.0,0.0,0.0,0.0,0.0,0.0,0.0,0.0,4.0202,4.5974,4.9018,4.9018,4.9018,4.9018,4.8951,4.5372,0.0,0.0,0.0,0.0,0.0,0.0,0.0,0.0,0.0,0.0,0.0,0.0,0.0,0.0,0.0,0.0,0.0,0.0,0.0,0.0,0.0,0.0,0.0,0.0,0.0,0.0,0.0,3.0262,0.0,0.0,0.0,0.0,0.0,0.0,0.0,0.0,0.0,0.0,0.0,0.0,0.0,0.0,4.6034,4.6237,4.6549,4.6989,0.0,0.0,4.456,4.4532,4.5203,4.456,0.0,0.0,0.0,0.0,0.0,0.0,0.0,0.0,0.0,0.0,0.0,0.0,0.0,0.0,0.0,0.0,0.0,0.0,0.0,0.0,0.0,0.0,0.0,0.0,0.0,0.0,0.0,0.0,0.0,0.0,0.0,0.0,0.0,0.0,0.0,0.0,0.0,0.0,0.0,0.0,0.0,0.0,0.0,0.0,0.0,0.0,0.0,0.0,0.0,0.0,0.0,0.0,0.0,0.0,0.0,4.0278,4.5966,4.9018,4.9018,4.9018,4.9018,4.8984,4.7368,4.4458,0.0,0.0,0.0,0.0,0.0,0.0,0.0,0.0,0.0,0.0,0.0,0.0,0.0,0.0,0.0,0.0,0.0,0.0,0.0,0.0,0.0,0.0,0.0,0.0,0.0,0.0,0.0,0.0,0.0,0.0,0.0,0.0,0.0,0.0,0.0,0.0,0.0,0.0,0.0,0.0,0.0,4.6989,4.765,4.7225,4.7537,0.0,0.0,4.5277,4.7286,4.8199,4.7218,4.2834,0.0,0.0,0.0,0.0,0.0,0.0,0.0,0.0,0.0,0.0,0.0,0.0,0.0,0.0,0.0,0.0,0.0,0.0,0.0,0.0,0.0,0.0,0.0,0.0,0.0,0.0,0.0,0.0,0.0,0.0,0.0,0.0,0.0,0.0,0.0,0.0,0.0,0.0,0.0,0.0,0.0,0.0,0.0,0.0,0.0,0.0,0.0,0.0,0.0,0.0,0.0,0.0,0.0,3.9811,4.0168,4.5981,4.9018,4.9018,4.9018,4.9018,4.9018,4.7571,4.4898,0.0,0.0,0.0,0.0,0.0,0.0,0.0,0.0,0.0,0.0,0.0,0.0,0.0,0.0,0.0,0.0,0.0,0.0,0.0,0.0,0.0,0.0,0.0,0.0,0.0,0.0,0.0,0.0,3.4586,3.4831,3.5043,0.0,0.0,0.0,0.0,0.0,0.0,0.0,0.0,0.0,0.0,4.7894,4.9094,4.862,0.0,0.0,4.774,4.6082,4.6474,4.6771,4.5722,4.2178,4.1231,0.0,0.0,0.0,0.0,0.0,0.0,0.0,0.0,0.0,0.0,0.0,0.0,0.0,0.0,0.0,0.0,0.0,0.0,0.0,0.0,0.0,0.0,0.0,0.0,0.0,0.0,0.0,0.0,0.0,0.0,0.0,0.0,0.0,0.0,0.0,0.0,0.0,0.0,0.0,0.0,0.0,0.0,0.0,0.0,0.0,0.0,0.0,0.0,0.0,0.0,0.0,0.0,3.998,4.0445,4.6075,4.9018,4.9018,4.9018,4.9018,4.8984,4.8003,4.5812,0.0,0.0,0.0,0.0,0.0,0.0,0.0,0.0,0.0,0.0,0.0,0.0,0.0,0.0,0.0,0.0,0.0,0.0,0.0,0.0,0.0,0.0,0.0,0.0,0.0,0.0,0.0,0.0,3.5309,3.5151,3.4751,0.0,0.0,0.0,0.0,0.0,0.0,0.0,0.0,0.0,0.0,4.8594,4.9009,4.8209,4.7717,4.8338,4.6352,4.4827,4.4987,4.482,4.3856,4.1498,0.0,0.0,0.0,0.0,0.0,0.0,0.0,0.0,0.0,0.0,0.0,0.0,0.0,0.0,0.0,0.0,0.0,0.0,0.0,0.0,0.0,0.0,0.0,0.0,0.0,0.0,0.0,0.0,0.0,0.0,3.0476,0.0,0.0,0.0,0.0,0.0,0.0,0.0,0.0,0.0,0.0,0.0,0.0,0.0,0.0,0.0,0.0,0.0,0.0,0.0,0.0,0.0,0.0,3.9743,4.1191,4.6338,4.9018,4.9018,4.9018,4.9018,4.9018,4.8951,4.7537,4.454,0.0,0.0,0.0,0.0,0.0,0.0,0.0,0.0,0.0,0.0,0.0,0.0,0.0,0.0,0.0,0.0,0.0,0.0,0.0,0.0,0.0,0.0,0.0,0.0,0.0,0.0,3.4707,3.4673,3.4711,0.0,0.0,0.0,0.0,0.0,0.0,0.0,0.0,0.0,0.0,4.7496,4.8916,4.7075,4.5325,4.448,4.4745,4.2194,4.1004,4.3146,4.2791,4.1947,0.0,0.0,0.0,0.0,0.0,0.0,0.0,0.0,0.0,0.0,0.0,0.0,0.0,0.0,0.0,0.0,0.0,0.0,0.0,0.0,0.0,0.0,0.0,0.0,0.0,0.0,0.0,3.3799,3.3155,0.0,0.0,0.0,0.0,0.0,0.0,0.0,0.0,0.0,0.0,0.0,3.9068,3.8841,0.0,0.0,0.0,0.0,0.0,0.0,0.0,0.0,0.0,0.0,0.0,0.0,4.0253,4.1381,4.6331,4.9018,4.9018,4.9018,4.9018,4.9018,4.9018,4.7597,4.4709,0.0,0.0,0.0,0.0,0.0,0.0,0.0,0.0,0.0,0.0,0.0,0.0,0.0,0.0,0.0,0.0,0.0,0.0,0.0,0.0,0.0,0.0,0.0,0.0,0.0,3.4766,0.0,0.0,0.0,0.0,0.0,0.0,0.0,0.0,0.0,0.0,0.0,4.5039,4.5886,4.6397,4.6512,4.5976,4.5333,4.5071,0.0,0.0,0.0,0.0,0.0,0.0,0.0,0.0,0.0,0.0,0.0,0.0,0.0,0.0,4.0359,3.9198,3.9568,4.0054,4.0054,0.0,0.0,0.0,0.0,0.0,0.0,0.0,0.0,0.0,0.0,0.0,0.0,0.0,0.0,3.6523,0.0,3.4782,0.0,0.0,0.0,0.0,0.0,0.0,0.0,0.0,4.0088,4.1405,4.2372,4.1953,4.1764,0.0,4.0445,3.7982,0.0,0.0,0.0,0.0,0.0,0.0,0.0,0.0,4.1014,4.2094,4.66,4.9018,4.9018,4.9018,4.9018,4.9018,4.9018,4.7868,4.5447,4.3213,4.1109,0.0,0.0,0.0,0.0,0.0,0.0,0.0,0.0,0.0,0.0,0.0,0.0,0.0,0.0,0.0,0.0,0.0,0.0,0.0,0.0,0.0,0.0,0.0,3.4937,0.0,0.0,0.0,0.0,0.0,0.0,0.0,0.0,0.0,4.2598,4.448,4.5962,4.6772,4.6486,4.5714,4.4426,0.0,0.0,0.0,0.0,0.0,0.0,0.0,3.9766,3.9715,4.0048,4.0719,4.1776,4.2696,4.3207,4.294,0.0,0.0,4.1369,4.1586,4.2085,4.2085,4.2239,4.2437,4.2559,4.2775,4.292,0.0,0.0,0.0,0.0,0.0,0.0,0.0,0.0,4.1182,4.0737,0.0,3.7137,0.0,0.0,0.0,0.0,0.0,3.8652,0.0,0.0,4.4934,4.6191,4.4456,4.4396,4.4386,4.4337,4.311,4.1832,4.0494,3.8564,0.0,0.0,0.0,0.0,0.0,0.0,4.1923,4.3468,4.7073,4.9018,4.9018,4.9018,4.9018,4.9018,4.9018,4.8342,4.6936,4.6143,4.4404,4.1468,3.8684,0.0,0.0,0.0,0.0,0.0,0.0,0.0,0.0,0.0,0.0,0.0,0.0,0.0,0.0,0.0,0.0,0.0,0.0,0.0,0.0,3.5138,0.0,0.0,0.0,0.0,0.0,0.0,0.0,0.0,0.0,0.0,4.2134,4.4357,4.6394,4.6979,0.0,0.0,0.0,0.0,4.1252,3.8196,3.7623,3.767,3.77,3.8709,3.9915,4.1162,0.0,0.0,4.4297,4.4627,4.4563,4.3902,4.4864,4.5262,4.3123,4.2336,4.2035,4.1996,4.2668,4.3146,4.325,4.4016,4.4603,4.1439,0.0,0.0,0.0,0.0,3.7811,3.8257,3.9423,3.9385,3.9027,3.8341,3.7514,0.0,0.0,0.0,0.0,0.0,0.0,4.0495,4.1903,4.4126,4.5623,4.6431,4.6441,4.6431,4.6401,4.5603,4.4995,4.4546,4.3066,4.0148,3.5947,0.0,0.0,0.0,0.0,4.2198,4.4123,4.7299,4.9018,4.9018,4.9018,4.9018,4.9018,4.9018,4.8815,4.8376,4.8165,4.6921,4.4498,4.2172,0.0,0.0,0.0,0.0,0.0,0.0,0.0,0.0,0.0,0.0,0.0,0.0,0.0,0.0,0.0,0.0,0.0,0.0,0.0,3.5108,3.6207,3.6746,0.0,0.0,0.0,0.0,0.0,0.0,0.0,0.0,0.0,4.4266,4.4828,4.5193,0.0,0.0,4.181,3.9698,4.0708,4.1493,4.1053,4.0963,0.0,4.1554,4.1165,4.0975,4.1343,4.2452,4.3389,4.3605,4.4475,4.5078,4.4865,4.4813,4.4558,4.4069,4.4458,4.4817,4.4903,4.4617,4.4573,4.5154,4.5574,4.5914,4.3899,4.2698,4.0923,3.998,3.9621,3.9272,3.9656,4.0524,4.0524,4.032,3.9854,3.8916,3.7662,3.6183,3.5912,0.0,0.0,0.0,4.095,4.2861,4.3617,4.4654,4.5795,4.6311,4.655,4.6543,4.6653,4.642,4.5892,4.4576,4.2112,3.8529,0.0,0.0,3.8175,4.0621,4.2662,4.4233,4.6994,4.8442,4.8425,4.8803,4.9018,4.9018,4.9018,4.9018,4.9018,4.9018,4.8233,4.6628,4.4178,4.1106,0.0,0.0,0.0,0.0,0.0,0.0,0.0,0.0,0.0,0.0,0.0,3.2856,3.1442,0.0,0.0,0.0,3.4673,3.5571,3.6917,3.7725,0.0,0.0,0.0,0.0,0.0,0.0,0.0,4.1435,4.3788,4.5533,4.5674,4.5334,4.5108,4.528,4.358,4.1853,4.0516,0.0,4.293,4.282,4.278,4.288,4.325,4.291,4.2641,4.29,4.3559,4.4057,4.4117,4.4785,4.5274,4.5214,4.4755,4.4307,4.4307,4.473,4.5057,4.5066,4.494,4.5014,4.5552,4.5907,4.6375,4.4953,4.471,4.2339,4.0893,4.0189,4.0977,4.202,4.3179,4.3155,4.3206,4.304,4.0849,3.962,3.9037,3.7224,0.0,3.9175,4.0155,4.1564,4.3361,4.3401,4.3448,4.3535,4.476,4.536,4.5423,4.6623,4.6591,4.5364,4.4117,4.2791,4.1493,4.1433,4.1112,4.0618,4.1904,4.3062,4.3933,4.6126,4.743,4.7593,4.85,4.9018,4.9018,4.9018,4.9018,4.9018,4.9018,4.8642,4.7781,4.5029,4.2198,3.9336,0.0,0.0,0.0,0.0,0.0,0.0,0.0,0.0,0.0,0.0,0.0,0.0,0.0,0.0,0.0,3.7293,0.0,3.9601,3.975,0.0,0.0,0.0,4.2182,4.3549,4.4806,4.5274,4.4606,0.0,0.0,4.654,4.5862,4.5933,4.7219,4.6082,4.4706,4.3489,4.4337,4.4866,4.3718,4.3589,4.3579,4.3808,4.3978,4.4277,4.4825,4.5185,4.4975,4.4975,4.5005,4.5095,4.5035,4.4606,4.4207,4.4207,4.3758,4.33,4.3409,4.4062,4.4652,4.4709,4.5379,4.5996,4.3508,4.3456,4.2849,4.2281,4.1755,4.1014,4.0657,4.0592,4.0592,4.0592,4.0541,4.0007,3.9689,3.9537,3.903,3.9106,3.9613,4.0801,4.1583,4.2079,4.2633,4.312,4.3547,4.4402,4.4995,4.545,4.6169,4.639,4.6001,4.4725,4.3419,4.2191,4.1652,4.0847,3.9762,4.0755,4.1886,4.3094,4.436,4.5864,4.7563,4.8492,4.9018,4.9018,4.9018,4.9018,4.9018,4.9018,4.8334,4.6984,4.567,4.3349,3.9833,3.6749,0.0,0.0,0.0,0.0,0.0,0.0,0.0,0.0,0.0,3.4839,3.2662,0.0,3.6485,0.0,3.9376,4.1562,4.2372,4.2871,0.0,0.0,4.4018,4.4337,4.6161,4.7081,4.732,4.667,4.7919,4.8577,4.7908,4.7249,4.713,4.7919,4.5593,4.3658,4.3359,4.4456,4.5195,4.4935,4.5142,4.5593,4.5402,4.4835,4.4366,4.4506,4.4117,4.3788,4.3778,4.3788,4.3788,4.3778,4.3658,4.3539,4.3569,4.3389,4.3319,4.33,4.3517,4.3644,4.3664,4.4463,4.5135,4.3,4.3,4.3,4.2317,4.1157,4.0941,4.0412,3.9697,3.971,3.971,3.971,3.971,3.971,3.971,3.971,3.971,3.9736,4.044,4.0756,4.0768,4.0925,4.1172,4.1501,4.2454,4.3365,4.4202,4.505,4.5769,4.619,4.4954,4.3918,4.3259,4.2591,4.1594,4.0335,4.0232,4.0543,4.1291,4.2818,4.4858,4.749,4.778,4.7931,4.803,4.7699,4.7361,4.7064,4.6705,4.5947,4.4795,4.3601,4.1765,3.9081,3.6584,3.4387,0.0,0.0,0.0,0.0,0.0,0.0,0.0,0.0,0.0,0.0,0.0,3.8901,3.9499,4.2082,4.3858,4.4217,4.4805,4.5683,4.6931,4.6751,4.7189,4.8865,4.9374,4.9333,4.8663,4.9243,4.9464,4.8816,4.8158,4.7878,4.8248,4.6441,4.5074,4.5042,4.5302,4.5266,4.5033,4.4836,4.4676,4.4662,4.4487,4.4187,4.3908,4.3539,4.329,4.329,4.329,4.329,4.329,4.329,4.329,4.329,4.329,4.329,4.329,4.329,4.329,4.3309,4.3732,4.4109,4.3,4.3,4.3,4.182,3.9998,4.0887,4.0524,3.9283,3.9283,3.9358,3.9496,3.9622,3.971,3.971,3.971,3.971,3.971,3.971,3.971,3.9672,3.9132,3.8906,3.8957,4.0211,4.1477,4.272,4.376,4.4913,4.61,4.4835,4.4097,4.3918,4.3339,4.2422,4.1164,3.9978,3.9412,3.9421,4.1734,4.4297,4.7045,4.6542,4.6347,4.6478,4.5913,4.5263,4.4628,4.382,4.3016,4.2217,4.0698,3.9294,3.8134,3.6064,3.4697,0.0,3.3626,0.0,0.0,0.0,0.0,0.0,0.0,0.0,0.0,4.1035,4.2402,4.3569,4.4965,4.5843,4.5933,4.651,4.7627,4.9318,4.9546,4.9984,5.1038,5.1128,5.0847,5.0267,5.0159,4.9871,4.9187,4.8648,4.8278,4.8098,4.7549,4.7059,4.7144,4.6215,4.5392,4.4886,4.3737,4.3266,4.3079,4.3597,4.3938,4.3449,4.31,4.3081,4.304,4.3021,4.306,4.3041,4.317,4.329,4.329,4.329,4.329,4.329,4.329,4.329,4.329,4.3339,4.329,4.3,4.3,4.3,4.2247,4.1026,4.1214,3.9659,3.7021,3.7021,3.7512,3.8391,3.9295,3.971,3.971,3.971,3.971,3.971,3.971,3.971,3.9672,3.9145,3.8906,3.8982,4.0211,4.1466,4.2692,4.3316,4.4242,4.5484,4.4147,4.2951,4.1972,4.1813,4.1094,3.9849,0.0,0.0,0.0,4.2297,4.4064,4.4649,4.4851,4.4985,4.5,4.4871,0.0,4.458,4.382,4.2732,4.1331,4.0331,0.0,0.0,0.0,0.0,0.0,0.0,0.0,0.0,0.0,0.0,0.0,4.1723,4.1083,4.1064,4.319,4.4885,4.5702,4.744,4.8757,4.922,4.986,5.0428,5.0769,5.0828,5.0948,5.1187,5.0727,5.0315,5.0237,4.9751,4.9206,4.8588,4.8368,4.8098,4.7619,4.7369,4.7298,4.7279,4.6572,4.6067,4.587,4.4525,4.3739,4.3237,4.3299,4.3409,4.321,4.2477,4.1998,4.1978,4.1978,4.1957,4.2029,4.2699,4.329,4.329,4.329,4.329,4.329,4.329,4.329,4.329,4.329,4.329,4.3,0.0,4.3,4.2046,0.0,4.0512,3.8944,3.6468,3.7562,3.8316,3.8868,3.9446,3.971,3.9647,3.912,3.8831,3.8856,3.8316,3.8354,3.8818,3.8303,3.8203,3.8467,3.911,4.0259,4.1737,4.1942,4.3193,4.5152,4.3938,4.316,4.2821,4.2491,4.2003,4.1365,4.1326,4.1036,4.0388,4.1933,4.3283,4.4341,4.4251,4.4218,4.4282,4.3913,0.0,0.0,0.0,0.0,0.0,0.0,0.0,0.0,0.0,0.0,4.0346,4.0376,4.0795,4.1754,4.2462,4.3539,4.5134,4.5584,4.5385,4.4387,4.6411,4.8005,4.8663,4.9673,5.0361,5.0667,5.1008,5.1217,5.1217,5.1217,5.1098,5.0745,5.0387,4.9938,4.9333,4.8996,4.8558,4.7889,4.7818,4.7668,4.7369,4.7298,4.7179,4.6785,4.5976,4.5054,4.3817,4.333,4.2859,4.2565,4.2467,4.2487,4.2316,4.1504,4.1095,4.1514,4.1597,4.1782,4.2295,4.2931,4.329,4.329,4.329,4.329,4.329,4.329,4.329,4.329,4.329,4.329,4.3,4.3,4.3,4.1909,4.0137,4.0023,3.8856,3.7085,0.0,0.0,0.0,3.9597,3.971,3.9622,3.8718,3.8291,3.8241,3.7386,3.7449,3.8291,3.7851,3.7826,3.814,3.8363,3.9323,4.0924,4.0974,4.2431,4.5013,4.3878,4.3569,4.4027,4.3569,4.329,4.329,4.329,4.2771,4.1803,4.1654,4.2495,4.4316,4.3729,4.3442,4.3599,4.296,4.2312,4.1714,4.112,4.05,4.0006,4.0359,4.0427,4.0139,4.1135,4.1903,4.2262,4.2771,4.3609,4.4725,4.5334,4.6172,4.7388,4.8697,4.8996,4.7867,4.9381,5.0596,5.1158,5.1217,5.1217,5.1217,5.1217,5.1217,5.1217,5.1217,5.0936,5.0297,5.0088,4.9572,4.8547,4.8229,4.7948,4.7429,4.7328,4.7298,4.7298,4.7298,4.6999,4.6162,4.4965,4.3516,4.2052,4.1906,4.173,4.1916,4.204,4.1906,4.205,4.1074,4.0586,4.1305,4.1597,4.1959,4.2629,4.3091,4.328,4.329,4.329,4.329,4.329,4.329,4.329,4.329,4.329,4.329,4.3,4.3,4.3,4.2562,4.1822,4.1291,4.0374,3.9208,3.8542,3.8241,3.8316,3.927,3.971,3.971,3.9521,3.9459,3.9446,3.9295,3.932,3.9446,3.9383,3.9157,3.8831,3.9762,4.0704,4.1542,4.1986,4.2944,4.4204,4.3668,4.3359,4.3419,4.3359,4.329,4.329,4.329,4.321,4.302,4.258,4.2496,4.2816,4.2285,4.2005,4.2033,4.1945,4.1802,4.1683,4.1554,4.1418,4.1317,4.1267,4.1713,4.2701,4.2941,4.3808,4.5443,4.5702,4.6061,4.683,4.698,4.7339,4.8128,4.9333,4.9968,4.9848,5.0566,5.1086,5.1217,5.1176,5.1217,5.1217,5.1217,5.1217,5.1217,5.1217,5.0925,5.0249,4.9733,4.9146,4.8349,4.7788,4.7448,4.7339,4.7298,4.7298,4.7298,4.716,4.68,4.5506,4.3969,4.3031,4.278,4.2139,4.2091,4.267,4.3021,4.286,4.3051,4.1978,4.119,4.1525,4.1597,4.1732,4.1885,4.275,4.323,4.329,4.329,4.329,4.329,4.329,4.329,4.329,4.329,4.329,4.3,4.3,4.3,4.2688,4.2123,4.1254,4.0412,3.9672,3.9145,3.8944,3.8969,3.9484,3.971,3.9647,3.9044,3.8768,3.8743,3.8153,3.8228,3.8743,3.8755,3.8806,3.902,4.015,4.1036,4.1731,4.2634,4.3476,4.4215,4.3997,4.3658,4.3319,4.329,4.329,4.329,4.329,4.329,4.3309,4.3051,4.2929,4.2929,4.2704,4.2569,4.2578,4.2569,4.2732,4.3082,4.3074,4.324,4.3604,4.3908,4.4337,4.4895,4.5284,4.5882,4.6749,4.685,4.6969,4.7279,4.7298,4.7568,4.8248,4.8835,4.9344,4.9673,5.0619,5.1026,5.0715,5.0966,5.1217,5.1217,5.1217,5.1217,5.1217,5.1217,5.0799,4.9883,4.9486,4.8887,4.7948,4.7489,4.7298,4.7298,4.7298,4.7298,4.7238,4.677,4.5873,4.4884,4.3246,4.2378,4.303,4.285,4.276,4.316,4.275,4.2447,4.2386,4.142,4.1042,4.1399,4.1608,4.1856,4.2406,4.2991,4.325,4.329,4.329,4.329,4.329,4.329,4.329,4.329,4.329,4.329,4.3176,4.3176,4.3051,4.2688,4.2137,4.1267,4.0526,3.9898,3.9873,3.9823,3.971,3.971,3.971,3.9597,3.8768,3.8391,3.8266,3.7525,3.76,3.8316,3.8391,3.8617,3.9209,4.0509,4.1437,4.1993,4.3301,4.4162,4.4504,4.4526,4.4177,4.3599,4.3539,4.3439,4.329,4.329,4.329,4.329,4.329,4.329,4.329,4.329,4.33,4.329,4.3459,4.3778,4.4277,4.4596,4.5005,4.5514,4.6161,4.6529,4.654,4.6999,4.7298,4.7298,4.7298,4.7298,4.7298,4.7448,4.7668,4.8027,4.8379,4.8618,4.8917,5.0032,5.0649,5.0338,5.0667,5.1026,5.1176,5.1217,5.1217,5.1217,5.1217,5.069,4.9546,4.9288,4.8798,4.7578,4.7298,4.7298,4.7298,4.7298,4.7298,4.7149,4.6142,4.5125,4.4474,4.3047,4.2486,4.2921,4.312,4.3001,4.313,4.2649,4.2163,4.1978,4.1378,4.1389,4.1895,4.2029,4.2274,4.307,4.325,4.329,4.329,4.329,4.329,4.329,4.329,4.329,4.329,4.329,4.329,4.374,4.3639,4.3187,4.2701,4.2199,4.2048,4.1393,4.0487,4.0424,4.0149,3.9772,3.971,3.9735,3.9672,3.9546,3.9471,3.9471,3.9434,3.9409,3.9471,3.9559,3.9584,3.9829,4.1494,4.2367,4.2696,4.4291,4.5168,4.5204,4.5185,4.4845,4.4277,4.4207,4.3938,4.3419,4.3359,4.3329,4.329,4.329,4.329,4.329,4.329,4.329,4.33,4.3908,4.4247,4.4396,4.5463,4.614,4.6271,4.682,4.7209,4.7209,4.7279,4.7298,4.7298,4.7309,4.7298,4.7369,4.7859,4.7978,4.7549,4.8517,4.8678,4.7758,4.8738,4.9714,5.0069,5.0237,5.0578,5.1086,5.1217,5.1217,5.1217,5.1217,5.072,4.9576,4.9288,4.8798,4.7459,4.7298,4.7298,4.7298,4.7298,4.7279,4.7189,4.6202,4.5274,4.4925,4.3945,4.304,4.307,4.2518,4.2396,4.2991,4.326,4.2981,4.304,4.304,4.286,4.2911,4.2991,4.322,4.316,4.329,4.329,4.329,4.329,4.329,4.329,4.329,4.329,4.329,4.329,4.329,4.4077,4.3776,4.3564,4.2975,4.2249,4.2199,4.1733,4.0988,4.0963,4.0851,4.065,4.065,4.03,3.971,3.971,3.971,3.971,3.971,3.971,3.971,3.971,4.0109,4.0931,4.2364,4.3461,4.4293,4.5766,4.6292,4.5892,4.5484,4.5155,4.4915,4.4885,4.4766,4.4486,4.4486,4.4486,4.4486,4.4486,4.4486,4.4426,4.4087,4.4097,4.4456,4.4766,4.5095,4.5463,4.6031,4.648,4.6879,4.7149,4.7298,4.7298,4.7298,4.7298,4.7339,4.7698,4.7889,4.7919,4.8517,4.8588,4.7938,4.8368,4.8278,4.747,4.8188,4.8966,4.9595,4.9991,5.0476,5.1098,5.1217,5.1217,5.1217,5.1217,5.072,4.9468,4.9288,4.8798,4.7549,4.7298,4.7298,4.7298,4.7298,4.7119,4.682,4.6161,4.5653,4.4875,4.4207,4.3788,4.3339,4.287,4.282,4.322,4.329,4.329,4.329,4.329,4.329,4.329,4.329,4.329,4.329,4.329,4.329,4.329,4.329,4.329,4.329,4.329,4.329,4.329,4.329,4.329,4.4629,4.4242,4.3955,4.3352,4.2651,4.2462,4.2071,4.1592,4.1528,4.1453,4.1289,4.1289,4.0876,4.0224,4.0149,4.0074,3.991,3.9923,3.9823,3.9722,3.971,4.0376,4.1628,4.2906,4.4163,4.544,4.6642,4.7018,4.655,4.6102,4.5753,4.5603,4.5574,4.5484,4.5304,4.5274,4.5274,4.5274,4.5274,4.5364,4.5473,4.5114,4.5005,4.5274,4.5484,4.5802,4.626,4.6491,4.6779,4.7279,4.7298,4.7298,4.7298,4.7298,4.7298,4.7369,4.7908,4.8319,4.8319,4.9086,4.9176,4.8427,4.8457,4.8278,4.7818,4.8008,4.8678,4.9505,4.9961,5.0476,5.1098,5.1217,5.1217,5.1217,5.1217,5.0739,4.9744,4.9456,4.8858,4.7799,4.7418,4.7298,4.7298,4.7309,4.713,4.6719,4.642,4.6061,4.5014,4.4566,4.4097,4.3628,4.3439,4.328,4.329,4.329,4.329,4.329,4.329,4.329,4.329,4.329,4.329,4.329,4.329,4.329,4.329,4.329,4.329,4.329,4.329,4.329,4.329,4.329,4.329,4.5462,4.5246,4.4267,4.379,4.3689,4.3176,4.2676,4.2224,4.2174,4.1845,4.1414,4.1364,4.1289,4.1239,4.1252,4.0951,4.0512,4.0462,4.0211,3.9836,3.985,4.0427,4.164,4.2906,4.4238,4.5685,4.6834,4.7298,4.7209,4.7149,4.6869,4.6271,4.6271,4.5963,4.5484,4.5424,4.5334,4.5464,4.5454,4.5663,4.6181,4.6211,4.5892,4.5514,4.5922,4.63,4.639,4.6909,4.7268,4.7298,4.7298,4.7298,4.7328,4.7358,4.7399,4.7429,4.8008,4.8338,4.8517,4.9452,4.962,4.8637,4.8798,4.8929,4.8259,4.8308,4.8906,5.0028,5.0207,5.0536,5.1086,5.1217,5.1217,5.1217,5.1217,5.0847,5.0177,4.9565,4.9037,4.8248,4.7608,4.7339,4.7298,4.7298,4.7279,4.7089,4.67,4.623,4.5942,4.5074,4.4426,4.4097,4.3728,4.329,4.329,4.329,4.329,4.329,4.329,4.329,4.329,4.329,4.329,4.329,4.329,4.329,4.329,4.329,4.329,4.329,4.329,4.329,4.3509,4.3359,4.3389,4.5799,4.5437,4.4629,4.4303,4.4252,4.374,4.3388,4.3187,4.2864,4.2587,4.2409,4.2384,4.2384,4.237,4.2384,4.1893,4.1076,4.1026,4.0901,4.0819,4.1633,4.2737,4.4026,4.5364,4.6402,4.721,4.7721,4.7698,4.7339,4.7298,4.7189,4.6999,4.6939,4.679,4.661,4.658,4.658,4.658,4.6591,4.67,4.6939,4.6939,4.682,4.6621,4.682,4.6939,4.6939,4.7179,4.7298,4.7298,4.7298,4.75,4.7908,4.8338,4.8577,4.8648,4.9153,4.9531,4.9561,4.9938,4.986,4.9067,4.8738,4.8618,4.8438,4.8708,4.9295,5.0069,5.0626,5.0966,5.1116,5.1217,5.1217,5.1217,5.1176,5.0769,4.9894,4.9426,4.8887,4.7908,4.7429,4.7298,4.7298,4.7298,4.7298,4.7279,4.7059,4.676,4.6271,4.5503,4.4815,4.4307,4.3748,4.329,4.329,4.329,4.329,4.329,4.329,4.329,4.329,4.329,4.329,4.329,4.329,4.329,4.329,4.329,4.329,4.329,4.329,4.3479,4.3878,4.3509,4.3569,4.61,4.5698,4.5146,4.488,4.4844,4.4278,4.4052,4.3991,4.3503,4.3251,4.3226,4.3076,4.3,4.3,4.3,4.2624,4.1868,4.1692,4.1722,4.2025,4.2957,4.43,4.5912,4.6952,4.7851,4.8462,4.8397,4.7948,4.7369,4.7298,4.7298,4.7298,4.7298,4.7298,4.7298,4.7298,4.7399,4.7559,4.7638,4.7709,4.7878,4.7739,4.7638,4.7578,4.7399,4.7298,4.7298,4.7489,4.7638,4.7638,4.7818,4.8158,4.8607,4.9037,4.9288,4.9337,4.9841,5.0207,5.0226,5.0387,5.017,4.9378,4.8917,4.8618,4.8648,4.9048,4.9655,5.0368,5.0877,5.1217,5.1217,5.1217,5.1217,5.1158,5.1026,5.0548,4.9714,4.9217,4.8498,4.7608,4.7339,4.7298,4.7298,4.7298,4.7298,4.7298,4.7298,4.7089,4.667,4.6042,4.5394,4.4725,4.4097,4.3628,4.3409,4.3319,4.3329,4.3329,4.33,4.329,4.329,4.329,4.329,4.329,4.329,4.329,4.329,4.329,4.329,4.329,4.3329,4.3429,4.3539,4.3539,4.3599,4.6301,4.6185,4.5723,4.5512,4.5397,4.4855,4.4589,4.4529,4.4016,4.3714,4.3639,4.324,4.3,4.3,4.3,4.2964,4.2957,4.2608,4.2773,4.3362,4.3736,4.5154,4.7343,4.768,4.8295,4.9213,4.8637,4.8008,4.7519,4.7519,4.7519,4.7399,4.7478,4.7578,4.7399,4.7508,4.7728,4.8169,4.8308,4.8588,4.9108,4.8618,4.8319,4.8248,4.7769,4.7489,4.7429,4.7948,4.8248,4.8368,4.8858,4.9269,4.9288,4.9438,4.9408,4.9546,4.9961,5.0207,5.0327,5.0757,5.0451,4.9636,4.9288,4.9217,4.9307,4.9378,4.9875,5.0828,5.1146,5.1182,5.1058,5.0988,5.1058,5.1158,5.0787,5.0387,4.9968,4.9063,4.8027,4.7448,4.7298,4.7298,4.7298,4.7298,4.7298,4.7298,4.7298,4.7268,4.7089,4.655,4.6012,4.5414,4.4755,4.4207,4.3748,4.3349,4.3359,4.3359,4.3329,4.329,4.329,4.329,4.329,4.329,4.329,4.329,4.329,4.329,4.329,4.33,4.3329,4.3429,4.3599,4.3688,4.3569,4.6311,4.6286,4.611,4.6035,4.5974,4.5447,4.5236,4.5121,4.4242,4.379,4.3689,4.3251,4.3,4.3,4.3014,4.3492,4.4306,4.4192,4.4265,4.4811,4.6451,4.7704,4.8613,4.9574,4.9973,4.9825,4.9307,4.8899,4.8689,4.8659,4.8678,4.8678,4.8648,4.8667,4.8607,4.8678,4.8828,4.8959,4.8977,4.9108,4.9288,4.9108,4.8989,4.8989,4.8768,4.8678,4.8678,4.8427,4.8517,4.8947,4.9198,4.9486,4.9901,5.035,5.0589,5.0631,5.0769,5.0907,5.0847,5.0591,5.0306,4.992,4.9553,4.9565,4.9841,4.9901,5.029,5.1056,5.1194,5.0887,5.0071,4.9824,5.0275,5.1094,5.0996,5.0561,5.0039,4.9063,4.8087,4.7459,4.7298,4.7298,4.7298,4.7298,4.7298,4.7298,4.7298,4.7298,4.7209,4.6779,4.629,4.5952,4.5384,4.4875,4.4486,4.4087,4.3938,4.3698,4.3479,4.3329,4.329,4.329,4.329,4.329,4.329,4.329,4.329,4.329,4.329,4.3329,4.3359,4.3569,4.3868,4.3957,4.3967,4.6612,4.6587,4.6386,4.6311,4.6276,4.5924,4.5813,4.5648,4.4844,4.4432,4.4292,4.3628,4.3316,4.3251,4.3076,4.3768,4.4981,4.5489,4.607,4.6682,4.8214,4.9406,4.9921,5.0733,5.0847,5.0278,4.9811,4.9516,4.9288,4.9288,4.9288,4.9288,4.9288,4.9258,4.9288,4.9288,4.9378,4.9565,4.9643,4.9733,4.9894,4.9774,4.9643,4.9595,4.9426,4.9426,4.9565,4.9224,4.9194,4.9595,4.9823,5.0182,5.0566,5.0936,5.1217,5.1135,5.0769,5.0627,5.097,4.9791,4.948,4.9836,4.9398,4.9309,4.9938,5.0207,5.0518,5.1056,5.1206,5.087,5.0167,4.9957,5.0359,5.1058,5.0407,4.9968,4.942,4.8805,4.8068,4.7519,4.7298,4.7298,4.7298,4.7298,4.7298,4.7298,4.7298,4.7298,4.7209,4.6958,4.6659,4.639,4.5942,4.5533,4.5274,4.4915,4.4586,4.4127,4.3668,4.3449,4.329,4.329,4.329,4.329,4.329,4.329,4.329,4.329,4.33,4.3359,4.3489,4.3848,4.4207,4.4576,4.4606,4.7124,4.7023,4.6547,4.6336,4.6311,4.6261,4.6235,4.62,4.5648,4.5386,4.5171,4.4267,4.3829,4.3678,4.3526,4.4174,4.5222,4.6643,4.7922,4.8812,4.9504,5.0005,5.0929,5.1117,5.0907,5.0416,5.0267,4.9991,4.9636,4.9606,4.9408,4.9576,4.9606,4.9456,4.9606,4.9426,4.9804,5.0219,5.0267,5.0548,5.1008,5.0578,5.0237,5.0237,4.9834,4.9774,5.0159,5.0177,5.0207,5.0327,5.0757,5.1038,5.1187,5.1217,5.1217,5.117,5.0035,5.0263,5.0424,4.9397,4.8649,5.0085,4.9457,4.8849,5.013,5.019,5.0228,5.0757,5.0698,5.0591,5.0347,5.0395,5.0567,5.0757,4.9637,4.8746,4.8496,4.8398,4.7926,4.7543,4.7369,4.7298,4.7298,4.7298,4.7298,4.7298,4.7298,4.7298,4.7298,4.7119,4.6958,4.6689,4.642,4.6281,4.6022,4.5603,4.5304,4.4995,4.4356,4.3818,4.3419,4.3319,4.329,4.329,4.3359,4.3349,4.33,4.3329,4.3449,4.3609,4.3848,4.4187,4.4546,4.4915,4.4996,4.7465,4.7099,4.6948,4.6662,4.6336,4.6311,4.6311,4.6235,4.5738,4.5537,4.5336,4.4729,4.4278,4.3929,4.4821,4.5659,4.6755,4.8003,4.9357,5.049,5.0662,5.0793,5.1129,5.1217,5.1128,5.0907,5.0877,5.0847,5.0709,5.0601,5.0619,5.072,5.0601,5.0649,5.0709,5.0619,5.0769,5.0907,5.0936,5.0966,5.1128,5.1056,5.0936,5.0907,5.0739,5.0739,5.0907,5.0936,5.0936,5.0925,5.1098,5.1217,5.1135,5.1058,5.0952,5.087,5.071,5.0662,5.0804,5.0239,5.0258,5.0803,5.0058,5.0567,5.082,4.9986,4.9666,4.9557,4.889,4.7909,4.721,4.777,4.8638,4.9492,4.9192,4.9075,4.9281,4.8415,4.7582,4.7896,4.7616,4.7399,4.7369,4.7309,4.7309,4.7298,4.7298,4.7298,4.7298,4.7298,4.7119,4.7179,4.7029,4.698,4.677,4.6352,4.6012,4.5852,4.5224,4.4356,4.3808,4.3319,4.3319,4.329,4.3479,4.3509,4.3389,4.3329,4.3549,4.3858,4.3828,4.4007,4.4736,4.5214,4.5185,4.7958,4.7415,4.7199,4.6772,4.6336,4.6311,4.6311,4.6235,4.5999,4.5839,4.5832,4.5941,4.5739,4.5602,4.6723,4.7817,4.8814,4.9638,5.0569,5.1369,5.129,5.1194,5.1217,5.1217,5.1217,5.1217,5.1217,5.1187,5.1187,5.1217,5.1217,5.1158,5.1217,5.1217,5.1158,5.1217,5.1217,5.1187,5.1217,5.1217,5.1217,5.1217,5.1217,5.1206,5.1217,5.1217,5.117,5.0674,5.0591,5.0917,5.071,5.0347,5.0287,4.9752,4.9521,4.9455,4.8977,4.8725,4.9096,4.8539,4.8364,4.9026,4.9022,4.8989,4.912,4.8713,4.8414,4.9051,4.8352,4.7643,4.7133,4.7529,4.8302,4.91,4.9198,4.949,5.0117,4.9213,4.8637,4.8544,4.8169,4.7728,4.7698,4.7489,4.7339,4.7298,4.7298,4.7298,4.7298,4.7298,4.7339,4.7399,4.7429,4.7339,4.7249,4.689,4.6461,4.633,4.5473,4.4666,4.4326,4.3658,4.3379,4.3419,4.3569,4.3688,4.3628,4.3668,4.3878,4.3997,4.3818,4.4127,4.4915,4.5315,4.5315,4.8526,4.7958,4.74,4.6888,4.6436,4.6311,4.6311,4.6311,4.6261,4.6235,4.639,4.714,4.6987,4.7535,4.8177,4.9662,5.0695,5.1051,5.1659,5.1965,5.1726,5.1385,5.1385,5.1265,5.1217,5.1217,5.1217,5.1217,5.1217,5.1217,5.1217,5.1217,5.1217,5.1217,5.1217,5.1217,5.1247,5.1367,5.1427,5.1427,5.1427,5.1427,5.1367,5.1217,5.1217,5.0999,5.0639,5.0011,4.9691,5.0662,4.9618,4.9063,4.8853,4.7811,4.744,4.7402,4.6927,4.6785,4.6733,4.5687,4.49,4.6837,4.6291,4.5714,4.7043,4.7184,4.7261,4.8151,4.8601,4.8013,4.8464,4.8763,4.8862,4.9088,4.9198,4.9484,4.9893,5.0041,4.983,4.9445,4.8798,4.8468,4.8218,4.7878,4.7429,4.7638,4.7519,4.7298,4.7399,4.7549,4.7578,4.7608,4.7608,4.7608,4.7549,4.744,4.7029,4.664,4.5473,4.4755,4.4805,4.4286,4.3718,4.3569,4.3848,4.4027,4.4087,4.4177,4.4237,4.4237,4.4097,4.4636,4.5274,4.5315,4.5315,4.9088,4.8551,4.7967,4.7415,4.6913,4.6486,4.6311,4.6311,4.6311,4.6316,4.6411,4.6588,4.6564,4.6371,4.8761,4.9534,5.0192,5.172,5.2872,5.2808,5.2276,5.2007,5.1887,5.1546,5.1265,5.1247,5.1217,5.1217,5.1217,5.1247,5.1217,5.1217,5.1217,5.1217,5.1217,5.1277,5.1487,5.1887,5.1977,5.1965,5.1905,5.1905,5.1708,5.1277,5.1217,5.0639,4.98,4.9357,4.8812,4.8123,4.7709,4.7459,4.7608,4.8063,4.776,4.7133,4.7618,4.7694,4.7081,4.6239,4.6318,4.6539,4.6396,4.6746,4.6863,4.5978,4.5661,4.5714,4.5035,4.578,4.7402,4.7593,4.8239,4.8964,4.921,4.9304,4.9345,4.9075,4.9269,4.9667,4.9494,4.9067,4.9048,4.8487,4.8158,4.8027,4.7728,4.7399,4.7459,4.7668,4.7668,4.7638,4.8038,4.8068,4.7889,4.7799,4.7459,4.6939,4.5832,4.4975,4.5025,4.4954,4.4406,4.4177,4.4157,4.4307,4.4416,4.4237,4.4177,4.4267,4.4486,4.5084,4.5514,4.5434,4.5464,4.928,4.8768,4.8435,4.7983,4.7425,4.6898,4.6672,4.6622,4.6386,4.6695,4.7401,4.798,4.8564,4.9175,5.118,5.2136,5.2094,5.2943,5.3653,5.3503,5.3007,5.2665,5.2648,5.2306,5.2007,5.1756,5.1678,5.1666,5.1606,5.1355,5.1217,5.1217,5.1217,5.1217,5.1307,5.1487,5.1839,5.218,5.2516,5.2534,5.2246,5.2193,5.1887,5.1337,5.1206,5.081,5.0275,4.8775,4.8065,4.7324,4.6302,4.5769,4.5952,4.62,4.5885,4.5555,4.5753,4.6003,4.5289,4.5182,4.5035,4.5222,4.5195,4.5195,4.5115,4.4413,4.4535,4.4698,4.4657,4.4887,4.6837,4.7884,4.8502,4.8915,4.9198,4.9418,4.9863,4.9808,4.981,5.0397,5.011,4.9811,4.9523,4.9105,4.8607,4.8368,4.8128,4.7799,4.7298,4.7489,4.7549,4.7728,4.8308,4.8528,4.8319,4.8098,4.7859,4.7238,4.639,4.5653,4.5324,4.5264,4.5074,4.4845,4.4546,4.4606,4.4655,4.4416,4.4416,4.4725,4.5095,4.5533,4.5653,4.5394,4.5603,4.933,4.8903,4.8827,4.8501,4.8008,4.7465,4.7224,4.7149,4.6737,4.7455,4.8752,5.0148,5.0903,5.2768,5.3954,5.49,5.4911,5.4528,5.4341,5.4239,5.3665,5.3384,5.3336,5.3246,5.3037,5.2528,5.2408,5.2336,5.2037,5.1666,5.1397,5.1247,5.1217,5.1337,5.1475,5.1858,5.233,5.2713,5.3121,5.3161,5.2759,5.2617,5.224,5.1284,5.0702,5.0357,4.9601,4.8272,4.7151,4.7242,4.5165,4.4515,4.4484,4.4288,4.3277,4.3403,4.3947,4.4047,4.3683,4.3323,4.3268,4.3,4.3087,4.3115,4.3156,4.3323,4.3671,4.4291,4.4644,4.5275,4.6694,4.7694,4.8477,4.8837,4.8977,4.9655,5.0335,5.0846,5.1069,5.1021,5.0697,5.044,5.017,4.9823,4.9235,4.8697,4.8498,4.8199,4.7698,4.7459,4.7638,4.8076,4.8745,4.8977,4.8798,4.8248,4.8008,4.7399,4.6689,4.6401,4.5873,4.5773,4.5642,4.5134,4.4925,4.4984,4.5014,4.4865,4.4965,4.5315,4.5464,4.5663,4.5544,4.5294,4.5713,4.954,4.9414,4.8994,4.8743,4.8576,4.8033,4.7767,4.7767,4.7709,4.8548,4.9934,5.0345,5.152,5.2841,5.3696,5.4502,5.5057,5.4982,5.4952,5.485,5.4311,5.4042,5.4012,5.4024,5.3922,5.3743,5.3396,5.2887,5.2426,5.2067,5.1828,5.1367,5.1337,5.1546,5.1935,5.2258,5.2887,5.3531,5.3864,5.3876,5.3494,5.3114,5.2384,5.0908,4.9969,4.8999,4.7971,4.7175,4.6302,4.5249,4.4713,4.4605,4.4902,4.5475,4.5032,4.4193,4.4487,4.44,4.3333,4.3051,4.3,4.3,4.3,4.3,4.3,4.3,4.3212,4.3588,4.4413,4.5169,4.5356,4.6824,4.7427,4.7745,4.8377,4.8927,4.8787,4.9727,5.107,5.1152,5.1044,5.0936,5.0679,5.041,4.9931,4.9392,4.9004,4.8697,4.8278,4.8068,4.8098,4.8626,4.9273,4.9355,4.9277,4.8607,4.8068,4.7459,4.6969,4.713,4.6711,4.6491,4.6211,4.5952,4.5623,4.5533,4.5473,4.5324,4.5493,4.5773,4.5783,4.5764,4.5903,4.6012,4.5942,4.959,4.9565,4.9289,4.9204,4.9104,4.8586,4.8375,4.8466,4.8938,5.0007,5.1333,5.232,5.3543,5.4689,5.4953,5.5208,5.5147,5.5222,5.5222,5.5102,5.485,5.47,5.47,5.47,5.473,5.464,5.4341,5.3832,5.3264,5.2845,5.2516,5.2366,5.2247,5.2396,5.2725,5.3144,5.3499,5.4155,5.4401,5.4043,5.3006,5.2211,5.0771,5.0011,4.9265,4.8489,4.7906,4.693,4.6586,4.6108,4.5468,4.5309,4.5592,4.5831,4.5816,4.4706,4.4877,4.4791,4.3669,4.3388,4.3327,4.3025,4.3,4.3,4.3,4.3,4.3,4.3295,4.418,4.5008,4.5102,4.6266,4.7299,4.7972,4.8302,4.8502,4.9063,4.98,5.0407,5.1023,5.1092,5.1074,5.1086,5.0817,5.0536,5.0117,4.962,4.9213,4.8846,4.8498,4.8308,4.8547,4.9015,4.9146,4.9097,4.8697,4.8068,4.7459,4.7179,4.7309,4.7339,4.6999,4.713,4.716,4.6811,4.6322,4.5963,4.5843,4.6031,4.629,4.6461,4.6621,4.6711,4.676,4.655,4.959,4.959,4.959,4.959,4.9515,4.917,4.8969,4.9112,4.9734,5.0883,5.2491,5.3979,5.5361,5.6396,5.6288,5.5807,5.5251,5.5222,5.5222,5.5192,5.5162,5.5162,5.5192,5.5222,5.5132,5.5072,5.5042,5.485,5.4059,5.3623,5.3366,5.3067,5.3139,5.3318,5.3456,5.3322,5.3853,5.402,5.3981,5.3268,5.1674,4.9886,4.8763,4.8641,4.8463,4.8188,4.7811,4.7094,4.6808,4.6647,4.6257,4.5824,4.6185,4.6286,4.5859,4.5106,4.4855,4.4468,4.3966,4.3765,4.3503,4.3065,4.3,4.3,4.3,4.3,4.3014,4.3198,4.3809,4.4467,4.4562,4.5806,4.6927,4.7735,4.777,4.8088,4.9161,4.9873,5.0131,5.0603,5.0976,5.1152,5.1176,5.1146,5.0835,5.0607,5.0099,4.98,4.9363,4.8577,4.8308,4.8319,4.8517,4.8708,4.8708,4.8607,4.7997,4.7429,4.7298,4.7388,4.7429,4.7369,4.7638,4.7948,4.7709,4.7219,4.677,4.6591,4.695,4.7238,4.7328,4.7298,4.716,4.695,4.6741,4.959,4.959,4.959,4.959,4.959,4.9515,4.9522,4.9559,4.9822,5.0584,5.2436,5.3878,5.5254,5.5922,5.6225,5.5782,5.5371,5.5222,5.5222,5.5222,5.5222,5.5222,5.5222,5.5222,5.5222,5.5222,5.5222,5.4832,5.4264,5.4025,5.3729,5.3333,5.3235,5.3424,5.3669,5.3123,5.2574,5.2853,5.1965,5.114,5.0615,4.9248,4.8515,4.81,4.7458,4.6817,4.6913,4.6545,4.6506,4.6438,4.6345,4.621,4.6311,4.6311,4.6261,4.5984,4.5623,4.4959,4.4141,4.3991,4.3689,4.3277,4.3076,4.3025,4.3076,4.3101,4.3101,4.3014,4.3351,4.3462,4.3768,4.4563,4.5262,4.6383,4.7465,4.7669,4.8464,5.0287,5.0496,5.0436,5.0881,5.1082,5.1217,5.1176,5.1146,5.0907,5.0637,5.0338,4.9949,4.9183,4.8547,4.8547,4.8349,4.8468,4.8379,4.8278,4.7938,4.7358,4.7358,4.7448,4.7668,4.7818,4.8237,4.8416,4.8297,4.8506,4.8517,4.8397,4.8248,4.7848,4.7489,4.7369,4.7339,4.71,4.6681,4.9866,4.959,4.959,4.959,4.959,4.959,4.9907,5.0524,5.138,5.244,5.3824,5.5665,5.6566,5.6461,5.6357,5.5807,5.5311,5.5222,5.5222,5.5222,5.5222,5.5222,5.5222,5.5222,5.5222,5.5103,5.5078,5.4463,5.4099,5.4192,5.4258,5.322,5.3072,5.3184,5.3504,5.29,5.2806,5.2316,5.0916,4.9569,4.9086,4.8137,4.7279,4.7294,4.6621,4.6361,4.6311,4.6311,4.6311,4.6311,4.6311,4.6311,4.6311,4.6311,4.6286,4.6276,4.61,4.5573,4.492,4.4784,4.4242,4.3664,4.3438,4.3463,4.3452,4.3452,4.3452,4.3463,4.3894,4.3807,4.3462,4.4236,4.4739,4.5674,4.7069,4.7922,4.8564,5.0035,5.0999,5.087,5.0775,5.1011,5.1217,5.1206,5.1206,5.1086,5.0936,5.0787,5.0488,5.0069,4.9434,4.8947,4.8648,4.8349,4.8158,4.8008,4.7728,4.7328,4.7358,4.7538,4.7997,4.8308,4.8686,4.9183,4.9411,4.9692,5.0074,4.9385,4.8487,4.7919,4.7399,4.7279,4.71,4.6322,4.5945,5.0243,4.9615,4.959,4.959,4.9629,4.983,5.0086,5.0558,5.1821,5.2876,5.4091,5.5758,5.6746,5.6756,5.6184,5.5611,5.5222,5.5222,5.5222,5.5222,5.5222,5.5222,5.5222,5.5222,5.4989,5.4692,5.5065,5.4077,5.3277,5.3538,5.3863,5.2989,5.2402,5.2689,5.272,5.1957,5.1293,5.0519,4.8933,4.804,4.7759,4.6979,4.6496,4.6346,4.6286,4.6311,4.6311,4.6311,4.6311,4.6311,4.6311,4.6311,4.6311,4.6311,4.6311,4.6286,4.621,4.6075,4.5648,4.5397,4.4959,4.4392,4.3976,4.4001,4.4016,4.4016,4.3865,4.3779,4.467,4.4415,4.4028,4.4522,4.5142,4.5793,4.6656,4.7808,4.9051,5.0323,5.117,5.107,5.0999,5.1058,5.1217,5.1217,5.1217,5.1217,5.1187,5.1116,5.0847,5.0506,4.9961,4.9295,4.9037,4.8588,4.8188,4.7919,4.7578,4.7388,4.7418,4.7638,4.8098,4.8607,4.9045,4.9602,5.0147,5.0207,5.02,4.9374,4.8607,4.8368,4.8008,4.7209,4.667,4.5892,4.5385,5.0569,4.959,4.9615,4.959,4.9627,5.054,5.0106,4.9496,5.0225,5.0898,5.1852,5.3176,5.5361,5.5849,5.5705,5.5248,5.5103,5.5179,5.5078,5.5078,5.5166,5.4989,5.4926,5.473,5.4394,5.3557,5.4119,5.3279,5.1795,5.2079,5.2751,5.2844,5.1386,5.1876,5.1644,5.0477,4.9092,4.8285,4.7118,4.6763,4.6701,4.6406,4.6316,4.6311,4.6311,4.6311,4.6311,4.6311,4.6311,4.6311,4.6311,4.6311,4.6311,4.6311,4.6311,4.6311,4.6311,4.621,4.606,4.5773,4.5246,4.478,4.4554,4.4554,4.4554,4.4554,4.4353,4.4401,4.5612,4.571,4.5244,4.5168,4.627,4.6409,4.712,4.8013,4.921,5.04,5.1112,5.1182,5.1217,5.1217,5.1217,5.1217,5.1217,5.1217,5.1176,5.1146,5.0835,5.0476,5.0051,4.9595,4.9426,4.9007,4.8409,4.8068,4.7818,4.7698,4.7668,4.7919,4.8248,4.8787,4.9482,4.983,5.0297,5.0297,5.0219,4.9572,4.9146,4.9026,4.8547,4.7399,4.661,4.5982,4.5503,5.1348,5.0636,5.0243,4.9715,4.9152,4.949,4.9988,5.0549,5.0901,5.2266,5.3697,5.4481,5.5234,5.5739,5.5457,5.4654,5.4107,5.4913,5.4509,5.4042,5.3847,5.386,5.386,5.3649,5.3082,5.2228,5.2923,5.2281,4.9763,5.0296,5.0142,4.9931,4.9621,4.9692,4.9437,4.9215,4.8209,4.7508,4.674,4.6286,4.6311,4.6311,4.6311,4.6311,4.6311,4.6311,4.6311,4.6311,4.6311,4.6311,4.6311,4.6311,4.6311,4.6311,4.6311,4.6311,4.6311,4.6311,4.6286,4.6075,4.5748,4.5336,4.5146,4.5171,4.5131,4.5131,4.5686,4.621,4.7006,4.7244,4.7077,4.7622,4.8328,4.7722,4.7795,4.8514,4.9431,5.0615,5.107,5.1194,5.1217,5.1217,5.1217,5.1217,5.1217,5.1217,5.1176,5.1116,5.0835,5.0656,5.035,5.0092,4.9942,4.9277,4.8648,4.8338,4.8068,4.8008,4.7948,4.8308,4.8667,4.9392,4.9998,5.0267,5.0416,5.0446,5.0278,4.9871,4.9434,4.8906,4.8128,4.716,4.655,4.6042,4.5503,5.1825,5.1046,5.077,5.0017,4.9117,4.9171,4.9568,5.0288,5.0993,5.2402,5.454,5.4484,5.4458,5.4534,5.4604,5.3636,5.3029,5.3544,5.3306,5.3029,5.279,5.2655,5.2602,5.2482,5.2201,5.0961,5.1194,5.074,4.7977,4.8285,4.8343,4.8181,4.7875,4.8094,4.8522,4.8009,4.7879,4.7526,4.6983,4.6286,4.6311,4.6311,4.6311,4.6311,4.6311,4.6311,4.6311,4.6311,4.6311,4.6311,4.6311,4.6311,4.6311,4.6311,4.6311,4.6311,4.6311,4.6311,4.6311,4.6261,4.6135,4.5799,4.5738,4.5723,4.5723,4.5768,4.6202,4.7357,4.8367,4.9077,4.8849,4.9452,4.9896,4.9398,4.8633,4.9124,4.9885,5.0881,5.1047,5.1217,5.1217,5.1217,5.1217,5.1217,5.1217,5.1217,5.1187,5.1176,5.1116,5.0966,5.0877,5.0679,5.0559,4.9733,4.8876,4.8738,4.8558,4.8248,4.8338,4.8775,4.9243,4.992,5.0387,5.0667,5.0727,5.0637,5.029,4.9793,4.9146,4.8457,4.7728,4.7059,4.6401,4.5862,4.5204,5.1916,5.0553,5.0996,5.0535,4.954,4.9953,4.9129,4.8227,4.9904,5.0975,5.1552,5.2469,5.2348,5.1811,5.2644,5.2105,5.1359,5.2254,5.2228,5.1318,5.1618,5.17,5.1605,5.1414,5.0837,4.9436,4.9706,4.9267,4.6591,4.7578,4.746,4.6934,4.683,4.7161,4.8184,4.7072,4.6436,4.6376,4.6346,4.6301,4.6311,4.6311,4.6311,4.6311,4.6311,4.6311,4.6311,4.6311,4.6311,4.6311,4.6311,4.6311,4.6311,4.6311,4.6311,4.6311,4.6311,4.6311,4.6311,4.6311,4.6235,4.62,4.61,4.6135,4.624,4.6425,4.6953,4.8326,4.9323,5.0274,5.0525,5.0794,5.119,5.0969,5.0218,4.9951,5.0774,5.0917,5.1135,5.1217,5.1217,5.1217,5.1217,5.1217,5.1217,5.1217,5.1217,5.1217,5.1217,5.1187,5.1128,5.1026,5.0847,5.0122,4.9366,4.9247,4.9037,4.8697,4.8577,4.8895,4.9434,5.0021,5.0499,5.0888,5.0559,5.0081,4.9883,4.9613,4.8816,4.8008,4.7698,4.7089,4.6401,4.5713,4.5084,5.2034,5.1431,5.0544,4.9741,4.9083,4.8755,4.8363,4.8375,4.983,5.0671,5.0754,5.1331,5.129,5.1044,5.0933,5.0685,4.9748,5.0685,5.0671,4.9507,5.0043,4.9664,4.9593,4.9635,4.908,4.7977,4.8242,4.8343,4.6361,4.7027,4.6904,4.6361,4.6316,4.6556,4.6845,4.6436,4.6301,4.6301,4.6286,4.6311,4.6311,4.6311,4.6311,4.6311,4.6311,4.6311,4.6311,4.6311,4.6311,4.6311,4.6311,4.6311,4.6311,4.6311,4.6311,4.6311,4.6311,4.6311,4.6311,4.6311,4.6311,4.6311,4.6311,4.6311,4.6301,4.7324,4.8299,4.9463,5.0545,5.1713,5.2876,5.2976,5.3082,5.2524,5.1908,5.1552,5.1751,5.1344,5.1217,5.1217,5.1217,5.1217,5.1217,5.1217,5.1217,5.1217,5.1217,5.1217,5.1217,5.1217,5.1187,5.1187,5.0978,5.0343,4.9845,4.9468,4.8828,4.8218,4.8308,4.8708,4.9295,4.9984,5.0182,5.032,4.9912,4.9464,4.9075,4.8686,4.8117,4.7549,4.7399,4.7059,4.6431,4.5743,4.5084,5.2,5.1649,5.0234,4.9163,4.8476,4.7857,4.7935,4.8608,4.9522,4.9932,4.9918,4.9904,4.9551,4.9423,4.9566,4.9124,4.8006,4.9196,4.9153,4.7992,4.8387,4.8239,4.8065,4.8111,4.7904,4.6983,4.6983,4.7072,4.6316,4.6311,4.6316,4.6316,4.6311,4.6361,4.6376,4.6316,4.6311,4.6311,4.6311,4.6311,4.6311,4.6311,4.6311,4.6311,4.6311,4.6311,4.6311,4.6311,4.6311,4.6311,4.6311,4.6311,4.6311,4.6311,4.6311,4.6311,4.6311,4.6311,4.6311,4.6311,4.6311,4.6311,4.6311,4.6311,4.6361,4.6968,4.8169,4.958,5.1509,5.268,5.3599,5.3854,5.4012,5.3396,5.3025,5.2641,5.2133,5.1756,5.1397,5.1397,5.1217,5.1217,5.1217,5.1217,5.1217,5.1217,5.1217,5.1217,5.1217,5.1217,5.1217,5.1217,5.1068,5.0481,4.9905,4.9408,4.8708,4.7788,4.8038,4.8528,4.9007,4.9636,4.9714,4.9662,4.9254,4.8757,4.8147,4.7657,4.7549,4.7429,4.7369,4.6939,4.6401,4.5832,4.5204,5.1749,5.1138,5.0017,4.8871,4.7917,4.7324,4.7558,4.8355,4.8401,4.843,4.843,4.8445,4.7933,4.6998,4.786,4.7725,4.6934,4.7948,4.7519,4.7161,4.7622,4.7235,4.725,4.7549,4.7191,4.665,4.6481,4.6695,4.6311,4.6311,4.6311,4.6311,4.6311,4.6311,4.6311,4.6311,4.6311,4.6311,4.6311,4.6311,4.6311,4.6311,4.6311,4.6311,4.6311,4.6311,4.6311,4.6311,4.6311,4.6311,4.6311,4.6311,4.6311,4.6311,4.6311,4.6311,4.6311,4.6311,4.6311,4.6311,4.6311,4.6311,4.6311,4.6311,4.6725,4.7342,4.8664,4.9903,5.1482,5.2308,5.3074,5.3742,5.4371,5.3952,5.3593,5.3114,5.2576,5.2157,5.1816,5.1576,5.1307,5.1247,5.1217,5.1217,5.1217,5.1217,5.1217,5.1217,5.1217,5.1217,5.1217,5.1217,5.0978,5.0601,5.0074,4.9595,4.8917,4.8117,4.8098,4.8468,4.8917,4.9108,4.9037,4.8876,4.8577,4.8158,4.7698,4.7478,4.7358,4.7298,4.7298,4.7149,4.6689,4.6042,4.5384,5.1172,5.0503,4.9038,4.8209,4.7792,4.6913,4.6712,4.6919,4.6909,4.6923,4.6934,4.6923,4.6755,4.6391,4.677,4.6621,4.6621,4.6636,4.665,4.668,4.6889,4.6621,4.6621,4.677,4.6621,4.6481,4.6311,4.6311,4.6311,4.6311,4.6311,4.6311,4.6311,4.6311,4.6311,4.6311,4.6311,4.6311,4.6311,4.6311,4.6311,4.6311,4.6311,4.6311,4.6311,4.6311,4.6311,4.6311,4.6311,4.6311,4.6311,4.6311,4.6311,4.6311,4.6311,4.6311,4.6311,4.6311,4.6311,4.6311,4.6311,4.6311,4.6311,4.7027,4.7699,4.8649,4.9678,5.0685,5.1999,5.3121,5.3675,5.4221,5.4655,5.4563,5.4192,5.3773,5.3234,5.2755,5.2384,5.1816,5.1576,5.1217,5.1217,5.1217,5.1217,5.1217,5.1217,5.1217,5.1217,5.1217,5.1217,5.1217,5.1098,5.0739,5.0398,4.9949,4.9224,4.8607,4.8487,4.8308,4.8427,4.8487,4.8349,4.8199,4.8008,4.7758,4.7429,4.7298,4.7298,4.7298,4.7298,4.7179,4.6929,4.63,4.5862,5.082,4.9925,4.851,4.7682,4.7205,4.6577,4.6311,4.6311,4.6311,4.6311,4.6311,4.6331,4.6311,4.6286,4.6346,4.6316,4.6331,4.6376,4.6346,4.6346,4.6311,4.6316,4.6301,4.6311,4.6331,4.6311,4.6311,4.6311,4.6311,4.6311,4.6311,4.6311,4.6311,4.6311,4.6311,4.6311,4.6311,4.6311,4.6311,4.6311,4.6311,4.6311,4.6311,4.6311,4.6311,4.6311,4.6311,4.6311,4.6311,4.6311,4.6311,4.6311,4.6311,4.6311,4.6311,4.6311,4.6311,4.6311,4.6311,4.6311,4.6311,4.6311,4.6346,4.7519,4.8459,4.9395,5.031,5.1318,5.2936,5.4239,5.4496,5.4781,5.4972,5.5162,5.482,5.4491,5.3982,5.3443,5.2833,5.2205,5.1756,5.1367,5.1217,5.1217,5.1217,5.1217,5.1217,5.1217,5.1217,5.1217,5.1217,5.1217,5.1128,5.0948,5.0607,5.0237,4.9662,4.8985,4.8487,4.8338,4.8207,4.7967,4.7859,4.7739,4.7578,4.7399,4.7298,4.7298,4.7298,4.7298,4.7298,4.7238,4.7029,4.657,4.6241,5.0544,4.9455,4.8309,4.7239,4.6386,4.6311,4.6311,4.6311,4.6311,4.6311,4.6311,4.6311,4.6311,4.6311,4.6311,4.6311,4.6311,4.6311,4.6311,4.6311,4.6311,4.6311,4.6311,4.6311,4.6311,4.6311,4.6311,4.6311,4.6311,4.6311,4.6311,4.6311,4.6311,4.6311,4.6311,4.6311,4.6311,4.6311,4.6311,4.6311,4.6311,4.6311,4.6311,4.6311,4.6311,4.6311,4.6311,4.6311,4.6311,4.6311,4.6311,4.6311,4.6311,4.6311,4.6311,4.6311,4.6311,4.6311,4.6311,4.6311,4.6311,4.6311,4.6361,4.7878,4.9053,4.9734,5.0533,5.2213,5.3899,5.4329,5.4577,5.4858,5.5128,5.5222,5.5012,5.479,5.4491,5.3892,5.3222,5.2564,5.1947,5.1517,5.1217,5.1217,5.1217,5.1217,5.1217,5.1217,5.1217,5.1217,5.1217,5.1217,5.1158,5.1038,5.0787,5.0458,5.0081,4.9494,4.8865,4.8577,4.8607,4.8098,4.7429,4.7399,4.7429,4.7358,4.7298,4.7298,4.7298,4.7298,4.7298,4.7298,4.7059,4.6749,4.667,4.9967,4.8903,4.7767,4.6913,4.6336,4.6311,4.6311,4.6311,4.6311,4.6311,4.6311,4.6311,4.6311,4.6311,4.6311,4.6311,4.6311,4.6311,4.6311,4.6311,4.6311,4.6311,4.6311,4.6311,4.6311,4.6311,4.6311,4.6311,4.6311,4.6311,4.6311,4.6311,4.6311,4.6311,4.6311,4.6311,4.6311,4.6311,4.6311,4.6311,4.6311,4.6311,4.6311,4.6311,4.6311,4.6311,4.6311,4.6311,4.6311,4.6311,4.6311,4.6311,4.6311,4.6311,4.6311,4.6311,4.6311,4.6311,4.6311,4.6311,4.6311,4.6331,4.671,4.83,4.9423,4.989,5.1085,5.304,5.4223,5.4419,5.4641,5.4976,5.5222,5.5222,5.5192,5.5072,5.4922,5.4281,5.3581,5.2923,5.2217,5.1738,5.1397,5.1217,5.1217,5.1217,5.1217,5.1217,5.1217,5.1217,5.1217,5.1217,5.1217,5.1098,5.0907,5.0757,5.0469,5.0051,4.9494,4.9235,4.9037,4.8528,4.7978,4.7489,4.7298,4.7358,4.7388,4.7298,4.7298,4.7298,4.7298,4.7298,4.7298,4.7059,4.71,4.9414,4.8284,4.723,4.6587,4.6336,4.6311,4.6311,4.6311,4.6311,4.6311,4.6311,4.6311,4.6311,4.6311,4.6311,4.6311,4.6311,4.6311,4.6311,4.6311,4.6311,4.6311,4.6311,4.6311,4.6311,4.6311,4.6311,4.6311,4.6311,4.6311,4.6311,4.6311,4.6311,4.6311,4.6311,4.6311,4.6311,4.6311,4.6311,4.6311,4.6311,4.6311,4.6311,4.6311,4.6311,4.6311,4.6311,4.6311,4.6311,4.6311,4.6311,4.6311,4.6311,4.6311,4.6311,4.6311,4.6311,4.6311,4.6311,4.6311,4.6311,4.6331,4.7087,4.8693,5.0254,5.092,5.24,5.4197,5.4692,5.4938,5.4938,5.5166,5.5222,5.5222,5.5222,5.5132,5.4892,5.4461,5.4012,5.3653,5.2875,5.2049,5.1708,5.1307,5.1307,5.1217,5.1217,5.1217,5.1217,5.1217,5.1217,5.1217,5.1217,5.1217,5.1098,5.1026,5.0966,5.0529,5.0032,4.9625,4.9247,4.8977,4.8588,4.8008,4.7608,4.7578,4.7549,4.7358,4.7298,4.7298,4.7298,4.7298,4.7298,4.7298,4.7279,4.8761,4.7691,4.6712,4.6311,4.6311,4.6311,4.6311,4.6311,4.6311,4.6311,4.6311,4.6311,4.6311,4.6311,4.6311,4.6311,4.6311,4.6311,4.6311,4.6311,4.6311,4.6311,4.6311,4.6311,4.6311,4.6311,4.6311,4.6311,4.6311,4.6311,4.6311,4.6311,4.6311,4.6311,4.6311,4.6311,4.6311,4.6311,4.6311,4.6311,4.6311,4.6311,4.6311,4.6311,4.6311,4.6311,4.6311,4.6311,4.6311,4.6311,4.6311,4.6311,4.6311,4.6311,4.6311,4.6311,4.6311,4.6311,4.6311,4.6311,4.6311,4.6601,4.7699,4.8951,5.0435,5.1876,5.3332,5.4535,5.504,5.5222,5.5222,5.5222,5.5222,5.5222,5.5222,5.5222,5.4922,5.467,5.4461,5.4192,5.3384,5.2498,5.1977,5.1606,5.1337,5.1247,5.1217,5.1217,5.1217,5.1217,5.1217,5.1217,5.1217,5.1217,5.1217,5.1187,5.1146,5.0877,5.038,4.9912,4.9535,4.9385,4.9026,4.8409,4.8098,4.7908,4.7578,4.7328,4.7298,4.7369,4.7298,4.7298,4.7298,4.7298,4.7298,4.7842,4.7214,4.6562,4.6311,4.6311,4.6311,4.6311,4.6311,4.6311,4.6311,4.6311,4.6311,4.6311,4.6311,4.6311,4.6311,4.6311,4.6311,4.6311,4.6311,4.6311,4.6311,4.6311,4.6311,4.6311,4.6311,4.6311,4.6311,4.6311,4.6311,4.6311,4.6311,4.6311,4.6311,4.6311,4.6311,4.6311,4.6311,4.6311,4.6311,4.6311,4.6311,4.6311,4.6311,4.6311,4.6311,4.6311,4.6311,4.6311,4.6311,4.6311,4.6311,4.6311,4.6311,4.6311,4.6311,4.6311,4.6311,4.6311,4.6311,4.6311,4.6346,4.7372,4.8416,4.9819,5.1112,5.2788,5.4769,5.5222,5.5222,5.5222,5.5222,5.5222,5.5222,5.5222,5.5222,5.5072,5.494,5.482,5.4311,5.3665,5.2917,5.2276,5.1816,5.1337,5.1277,5.1217,5.1217,5.1217,5.1217,5.1217,5.1217,5.1217,5.1217,5.1217,5.1217,5.1158,5.0978,5.0769,5.0301,5.0002,4.9949,4.9542,4.8955,4.8487,4.8177,4.7848,4.7638,4.7459,4.7489,4.7369,4.7298,4.7298,4.7298,4.7298]},{"header":{"parameterUnit":"m.s-1","parameterCategory":1,"la1":31.0,"la2":29.5877,"lo1":-88.7671,"lo2":-86.6584,"dy":0.0162,"dx":0.0185,"nx":115,"ny":88,"refTime":"2024-09-03T06:00:00:Z","depth":0,"parameterNumber":3,"parameterNumberName":"V-component_of_WINDS"},"data":[0.0,0.0,0.0,0.0,0.0,0.0,0.0,0.0,0.0,0.0,0.0,0.0,0.0,0.0,0.0,0.0,0.0,0.0,0.0,0.0,0.0,0.0,0.0,0.0,0.0,0.0,0.0,0.0,0.0,0.0,0.0,0.0,0.0,0.0,0.0,0.0,0.0,0.0,0.0,0.0,0.0,0.0,0.0,0.0,0.0,0.0,0.0,0.0,0.0,0.0,0.0,0.0,0.0,0.0,0.0,0.0,0.0,0.0,0.0,0.0,0.0,0.0,0.0,0.0,0.0,0.0,0.0,0.0,0.0,0.0,0.0,0.0,0.0,0.0,0.0,0.0,0.0,0.0,0.0,0.0,0.0,0.0,0.0,0.0,0.0,0.0,0.0,0.0,0.0,0.0,0.0,0.0,0.0,0.0,0.0,0.0,0.0,0.0,0.0,0.0,0.0,0.0,0.0,0.0,0.0,0.0,0.0,0.0,0.0,0.0,0.0,0.0,0.0,0.0,0.0,0.0,0.0,0.0,0.0,0.0,0.0,0.0,0.0,0.0,0.0,0.0,0.0,0.0,0.0,0.0,0.0,0.0,0.0,0.0,0.0,0.0,0.0,0.0,0.0,0.0,0.0,0.0,0.0,0.0,0.0,0.0,0.0,0.0,0.0,0.0,0.0,0.0,0.0,0.0,0.0,0.0,0.0,0.0,0.0,0.0,0.0,0.0,0.0,0.0,0.0,0.0,0.0,0.0,0.0,0.0,0.0,0.0,0.0,0.0,0.0,0.0,0.0,0.0,0.0,0.0,0.0,0.0,0.0,0.0,0.0,0.0,0.0,0.0,0.0,0.0,0.0,0.0,0.0,0.0,0.0,0.0,0.0,0.0,0.0,0.0,0.0,0.0,0.0,0.0,0.0,0.0,0.0,0.0,0.0,0.0,0.0,0.0,0.0,0.0,0.0,0.0,0.0,0.0,0.0,0.0,0.0,0.0,0.0,0.0,0.0,0.0,0.0,0.0,0.0,0.0,0.0,0.0,0.0,0.0,0.0,0.0,0.0,0.0,0.0,0.0,0.0,0.0,0.0,0.0,0.0,0.0,0.0,0.0,0.0,0.0,0.0,0.0,0.0,0.0,0.0,0.0,0.0,0.0,0.0,0.0,0.0,0.0,0.0,0.0,0.0,0.0,0.0,0.0,0.0,0.0,0.0,0.0,0.0,0.0,0.0,0.0,0.0,0.0,0.0,0.0,0.0,0.0,0.0,0.0,0.0,0.0,0.0,0.0,0.0,0.0,0.0,0.0,0.0,0.0,0.0,0.0,0.0,0.0,0.0,0.0,0.0,0.0,0.0,0.0,0.0,0.0,0.0,0.0,0.0,0.0,0.0,0.0,0.0,0.0,0.0,0.0,0.0,0.0,0.0,0.0,0.0,0.0,0.0,0.0,0.0,0.0,0.0,0.0,0.0,0.0,0.0,0.0,0.0,0.0,0.0,0.0,0.0,0.0,0.0,0.0,0.0,0.0,0.0,0.0,0.0,0.0,0.0,0.0,0.0,0.0,0.0,0.0,0.0,0.0,0.0,0.0,0.0,0.0,0.0,0.0,0.0,0.0,0.0,0.0,0.0,0.0,0.0,0.0,0.0,0.0,0.0,0.0,0.0,0.0,0.0,0.0,0.0,0.0,0.0,0.0,0.0,0.0,0.0,0.0,0.0,0.0,0.0,0.0,0.0,0.0,0.0,0.0,0.0,0.0,0.0,0.0,0.0,0.0,0.0,0.0,0.0,0.0,0.0,0.0,0.0,0.0,0.0,0.0,0.0,0.0,0.0,0.0,0.0,0.0,0.0,0.0,0.0,0.0,0.0,0.0,0.0,0.0,0.0,0.0,0.0,0.0,0.0,0.0,0.0,0.0,0.0,0.0,0.0,0.0,0.0,0.0,0.0,0.0,0.0,0.0,0.0,0.0,0.0,0.0,0.0,0.0,0.0,0.0,0.0,0.0,0.0,0.0,0.0,0.0,0.0,0.0,0.0,0.0,0.0,0.0,0.0,0.0,0.0,0.0,0.0,0.0,0.0,0.0,0.0,0.0,0.0,0.0,0.0,0.0,0.0,0.0,0.0,0.0,0.0,0.0,0.0,0.0,0.0,0.0,0.0,0.0,0.0,0.0,0.0,0.0,0.0,0.0,0.0,0.0,0.0,0.0,0.0,0.0,0.0,0.0,0.0,0.0,0.0,0.0,0.0,0.0,0.0,0.0,0.0,0.0,0.0,0.0,0.0,0.0,0.0,0.0,0.0,0.0,0.0,0.0,0.0,0.0,0.0,0.0,0.0,0.0,0.0,0.0,0.0,0.0,0.0,0.0,0.0,0.0,0.0,0.0,0.0,0.0,0.0,0.0,0.0,0.0,0.0,0.0,0.0,0.0,0.0,0.0,0.0,0.0,0.0,0.0,0.0,0.0,0.0,0.0,0.0,0.0,0.0,0.0,0.0,0.0,0.0,0.0,0.0,0.0,0.0,0.0,0.0,0.0,0.0,0.0,0.0,0.0,0.0,0.0,0.0,0.0,0.0,0.0,0.0,0.0,0.0,0.0,0.0,0.0,0.0,0.0,0.0,0.0,0.0,0.0,0.0,0.0,0.0,0.0,0.0,0.0,0.0,0.0,0.0,0.0,0.0,0.0,0.0,0.0,0.0,0.0,0.0,0.0,0.0,0.0,0.0,0.0,0.0,0.0,0.0,0.0,0.0,0.0,0.0,0.0,0.0,0.0,0.0,0.0,0.0,0.0,0.0,0.0,0.0,0.0,0.0,0.0,0.0,0.0,0.0,0.0,0.0,0.0,0.0,0.0,0.0,0.0,0.0,0.0,0.0,0.0,0.0,0.0,0.0,0.0,0.0,0.0,0.0,0.0,0.0,0.0,0.0,0.0,0.0,0.0,0.0,0.0,0.0,0.0,0.0,0.0,0.0,0.0,0.0,0.0,0.0,0.0,0.0,0.0,0.0,0.0,0.0,0.0,0.0,0.0,0.0,0.0,0.0,0.0,0.0,0.0,0.0,0.0,0.0,0.0,0.0,0.0,0.0,0.0,0.0,0.0,0.0,0.0,0.0,0.0,0.0,0.0,0.0,0.0,0.0,0.0,0.0,0.0,0.0,0.0,0.0,0.0,0.0,0.0,0.0,0.0,0.0,0.0,0.0,0.0,0.0,0.0,0.0,0.0,0.0,0.0,0.0,0.0,0.0,0.0,0.0,0.0,0.0,0.0,0.0,0.0,0.0,0.0,0.0,0.0,0.0,0.0,0.0,0.0,0.0,0.0,0.0,0.0,0.0,0.0,0.0,0.0,0.0,0.0,0.0,0.0,0.0,0.0,0.0,0.0,0.0,0.0,0.0,0.0,0.0,0.0,0.0,0.0,0.0,0.0,0.0,0.0,0.0,0.0,0.0,0.0,0.0,0.0,0.0,0.0,0.0,0.0,0.0,0.0,0.0,0.0,0.0,0.0,0.0,0.0,0.0,0.0,0.0,0.0,0.0,0.0,0.0,0.0,0.0,0.0,0.0,0.0,0.0,0.0,0.0,0.0,0.0,0.0,0.0,0.0,0.0,0.0,0.0,0.0,0.0,0.0,0.0,0.0,0.0,0.0,0.0,0.0,0.0,0.0,0.0,0.0,0.0,0.0,0.0,0.0,0.0,0.0,0.0,0.0,0.0,0.0,0.0,0.0,0.0,0.0,0.0,0.0,0.0,0.0,0.0,0.0,0.0,0.0,0.0,0.0,0.0,0.0,0.0,0.0,0.0,0.0,0.0,0.0,0.0,0.0,0.0,0.0,0.0,0.0,0.0,0.0,0.0,0.0,0.0,0.0,0.0,0.0,0.0,0.0,0.0,0.0,0.0,0.0,0.0,0.0,0.0,0.0,0.0,0.0,0.0,0.0,0.0,0.0,0.0,0.0,0.0,0.0,0.0,0.0,0.0,0.0,0.0,0.0,0.0,0.0,0.0,0.0,0.0,0.0,0.0,0.0,0.0,0.0,0.0,0.0,0.0,0.0,0.0,0.0,0.0,0.0,0.0,0.0,0.0,0.0,0.0,0.0,0.0,0.0,0.0,0.0,0.0,0.0,0.0,0.0,0.0,0.0,0.0,0.0,0.0,0.0,0.0,0.0,0.0,0.0,0.0,0.0,0.0,0.0,0.0,0.0,0.0,0.0,0.0,0.0,0.0,0.0,0.0,0.0,0.0,0.0,0.0,0.0,0.0,0.0,0.0,0.0,0.0,0.0,1.8746,0.0,0.0,0.0,0.0,0.0,0.0,0.0,0.0,0.0,0.0,0.0,0.0,0.0,0.0,0.0,0.0,0.0,0.0,0.0,0.0,0.0,0.0,0.0,0.0,0.0,0.0,0.0,0.0,0.0,0.0,0.0,0.0,0.0,0.0,0.0,0.0,0.0,0.0,0.0,0.0,0.0,0.0,0.0,0.0,0.0,0.0,0.0,0.0,0.0,0.0,0.0,0.0,0.0,0.0,0.0,0.0,0.0,0.0,0.0,0.0,0.0,0.0,0.0,0.0,0.0,0.0,0.0,0.0,0.0,0.0,0.0,0.0,0.0,0.0,0.0,0.0,0.0,0.0,0.0,0.0,0.0,0.0,0.0,0.0,0.0,0.0,0.0,0.0,0.0,0.0,0.0,0.0,0.0,0.0,0.0,0.0,0.0,0.0,0.0,0.0,0.0,0.0,0.0,0.0,0.0,0.0,0.0,0.0,0.0,0.0,1.7115,1.7661,1.715,1.7482,1.8781,0.0,0.0,0.0,0.0,0.0,0.0,0.0,0.0,0.0,0.0,0.0,0.0,0.0,0.0,0.0,0.0,0.0,0.0,0.0,0.0,0.0,0.0,0.0,0.0,0.0,0.0,0.0,0.0,0.0,0.0,0.0,0.0,0.0,0.0,0.0,0.0,0.0,0.0,0.0,0.0,0.0,0.0,0.0,0.0,0.0,0.0,0.0,0.0,0.0,0.0,0.0,0.0,0.0,0.0,0.0,0.0,0.0,0.0,0.0,0.0,0.0,0.0,0.0,0.0,0.0,0.0,0.0,0.0,0.0,0.0,0.0,0.0,0.0,0.0,0.0,0.0,0.0,0.0,0.0,0.0,0.0,0.0,0.0,0.0,0.0,0.0,0.0,0.0,0.0,0.0,0.0,0.0,0.0,0.0,0.0,0.0,0.0,0.0,0.0,0.0,0.0,0.0,0.0,0.0,0.0,0.0,0.0,0.0,0.0,0.0,0.0,0.0,1.8103,1.7988,1.8183,0.0,0.0,0.0,0.0,0.0,0.0,0.0,0.0,0.0,0.0,0.0,0.0,0.0,0.0,0.0,0.0,0.0,0.0,0.0,0.0,0.0,0.0,0.0,0.0,0.0,0.0,0.0,0.0,0.0,0.0,0.0,0.0,0.0,0.0,0.0,0.0,0.0,0.0,0.0,0.0,0.0,0.0,0.0,0.0,0.0,0.0,0.0,0.0,0.0,0.0,0.0,0.0,0.0,0.0,0.0,0.0,0.0,0.0,0.0,0.0,0.0,0.0,0.0,0.0,0.0,0.0,0.0,0.0,0.0,0.0,0.0,0.0,0.0,0.0,0.0,0.0,0.0,0.0,0.0,0.0,0.0,0.0,0.0,0.0,0.0,0.0,0.0,0.0,0.0,0.0,0.0,0.0,0.0,0.0,0.0,0.0,0.0,0.0,0.0,0.0,0.0,0.0,0.0,0.0,0.0,0.0,0.0,0.0,0.0,0.0,1.9889,2.1002,1.936,0.0,1.7798,0.0,0.0,0.0,0.0,0.0,0.0,0.0,0.0,0.0,0.0,0.0,0.0,0.0,0.0,0.0,0.0,0.0,0.0,0.0,0.0,0.0,0.0,0.0,0.0,0.0,0.0,0.0,0.0,0.0,0.0,0.0,0.0,0.0,0.0,0.0,0.0,0.0,0.0,0.0,0.0,0.0,0.0,0.0,0.0,0.0,0.0,0.0,0.0,0.0,0.0,0.0,0.0,0.0,0.0,0.0,0.0,0.0,0.0,0.0,0.0,0.0,0.0,0.0,0.0,0.0,0.0,0.0,0.0,0.0,0.0,0.0,0.0,0.0,0.0,0.0,0.0,0.0,0.0,0.0,0.0,0.0,0.0,0.0,0.0,0.0,0.0,0.0,0.0,0.0,0.0,0.0,0.0,0.0,0.0,0.0,0.0,0.0,0.0,0.0,0.0,0.0,0.0,0.0,0.0,0.0,0.0,0.0,0.0,0.0,0.0,0.0,2.2117,2.1573,2.0691,0.0,0.0,0.0,0.0,0.0,0.0,0.0,0.0,0.0,0.0,0.0,0.0,0.0,0.0,0.0,0.0,0.0,0.0,0.0,0.0,0.0,0.0,0.0,0.0,0.0,0.0,0.0,0.0,0.0,0.0,0.0,0.0,0.0,0.0,0.0,0.0,0.0,0.0,0.0,0.0,0.0,0.0,0.0,0.0,0.0,0.0,0.0,0.0,0.0,0.0,0.0,0.0,0.0,0.0,0.0,0.0,0.0,0.0,0.0,0.0,0.0,0.0,0.0,0.0,0.0,0.0,0.0,0.0,0.0,0.0,0.0,0.0,0.0,0.0,0.0,0.0,0.0,0.0,0.0,0.0,0.0,0.0,0.0,0.0,0.0,0.0,0.0,0.0,0.0,0.0,0.0,0.0,0.0,0.0,0.0,0.0,0.0,0.0,0.0,0.0,0.0,0.0,0.0,0.0,0.0,0.0,0.0,0.0,0.0,0.0,2.3364,0.0,2.287,2.3218,2.2509,2.0666,0.0,0.0,0.0,0.0,0.0,0.0,0.0,0.0,0.0,0.0,0.0,0.0,0.0,0.0,0.0,0.0,0.0,0.0,0.0,0.0,0.0,0.0,0.0,0.0,0.0,0.0,0.0,0.0,0.0,0.0,0.0,0.0,0.0,0.0,0.0,0.0,0.0,0.0,0.0,0.0,0.0,0.0,0.0,0.0,0.0,0.0,0.0,0.0,0.0,0.0,0.0,0.0,0.0,0.0,0.0,0.0,0.0,0.0,0.0,0.0,0.0,0.0,0.0,0.0,0.0,0.0,0.0,0.0,0.0,0.0,0.0,0.0,0.0,0.0,0.0,0.0,0.0,0.0,0.0,0.0,0.0,0.0,0.0,0.0,0.0,0.0,0.0,0.0,0.0,0.0,0.0,0.0,0.0,0.0,0.0,0.0,0.0,0.0,0.0,0.0,0.0,0.0,0.0,0.0,0.0,0.0,0.0,0.0,0.0,2.4723,2.4044,2.3536,2.3716,2.2774,0.0,0.0,0.0,0.0,0.0,0.0,0.0,0.0,0.0,0.0,0.0,0.0,0.0,0.0,0.0,0.0,0.0,0.0,0.0,0.0,0.0,0.0,0.0,0.0,0.0,0.0,0.0,0.0,0.0,0.0,0.0,0.0,0.0,0.0,0.0,0.0,0.0,0.0,0.0,0.0,0.0,0.0,0.0,0.0,0.0,0.0,0.0,0.0,0.0,0.0,0.0,0.0,0.0,0.0,0.0,0.0,0.0,0.0,0.0,0.0,0.0,0.0,0.0,0.0,0.0,0.0,0.0,0.0,0.0,0.0,0.0,0.0,0.0,0.0,0.0,0.0,0.0,0.0,0.0,0.0,0.0,0.0,0.0,0.0,0.0,0.0,0.0,0.0,0.0,0.0,0.0,0.0,0.0,0.0,0.0,0.0,0.0,0.0,0.0,0.0,0.0,0.0,0.0,0.0,0.0,0.0,0.0,0.0,0.0,2.3936,2.4264,2.486,2.5667,2.426,2.3009,0.0,0.0,0.0,0.0,0.0,0.0,0.0,0.0,0.0,0.0,0.0,0.0,0.0,0.0,0.0,0.0,0.0,0.0,0.0,0.0,0.0,0.0,0.0,0.0,0.0,0.0,0.0,0.0,0.0,0.0,0.0,0.0,0.0,0.0,0.0,0.0,0.0,0.0,0.0,0.0,0.0,0.0,0.0,0.0,0.0,0.0,0.0,0.0,0.0,0.0,0.0,0.0,0.0,0.0,0.0,0.0,0.0,0.0,0.0,0.0,0.0,0.0,0.0,0.0,0.0,0.0,0.0,0.0,0.0,0.0,0.0,0.0,0.0,0.0,0.0,0.0,0.0,0.0,0.0,0.0,0.0,0.0,0.0,0.0,0.0,0.0,0.0,0.0,0.0,0.0,0.0,0.0,0.0,0.0,0.0,0.0,0.0,0.0,0.0,0.0,0.0,0.0,0.0,0.0,0.0,0.0,0.0,0.0,0.0,2.3703,0.0,2.5659,0.0,2.4777,2.3342,0.0,0.0,0.0,0.0,0.0,0.0,0.0,0.0,0.0,0.0,0.0,0.0,0.0,0.0,0.0,0.0,0.0,0.0,0.0,0.0,0.0,0.0,0.0,0.0,0.0,0.0,0.0,0.0,0.0,0.0,0.0,0.0,0.0,0.0,0.0,0.0,0.0,0.0,0.0,0.0,0.0,0.0,0.0,0.0,0.0,0.0,0.0,0.0,0.0,0.0,0.0,0.0,0.0,0.0,0.0,0.0,0.0,0.0,0.0,0.0,0.0,0.0,0.0,0.0,0.0,0.0,0.0,0.0,0.0,0.0,0.0,0.0,0.0,0.0,0.0,0.0,0.0,0.0,0.0,0.0,0.0,0.0,0.0,0.0,0.0,0.0,0.0,0.0,0.0,0.0,0.0,0.0,0.0,0.0,0.0,0.0,0.0,0.0,0.0,0.0,0.0,0.0,0.0,0.0,0.0,0.0,0.0,0.0,2.2502,2.4938,2.6211,2.644,2.5745,2.5246,2.3666,0.0,0.0,0.0,0.0,0.0,0.0,0.0,0.0,0.0,0.0,0.0,0.0,0.0,0.0,0.0,0.0,0.0,0.0,0.0,0.0,0.0,0.0,0.0,0.0,0.0,0.0,0.0,0.0,0.0,0.0,0.0,0.0,0.0,0.0,0.0,0.0,0.0,0.0,0.0,0.0,0.0,0.0,0.0,0.0,0.0,0.0,0.0,0.0,0.0,0.0,0.0,0.0,0.0,0.0,0.0,0.0,0.0,0.0,0.0,0.0,0.0,0.0,0.0,0.0,0.0,0.0,0.0,0.0,0.0,0.0,0.0,0.0,0.0,0.0,0.0,0.0,0.0,0.0,0.0,0.0,0.0,0.0,0.0,0.0,0.0,0.0,0.0,0.0,0.0,0.0,0.0,0.0,0.0,0.0,0.0,0.0,0.0,0.0,0.0,0.0,0.0,0.0,0.0,0.0,0.0,0.0,0.0,0.0,0.0,2.3342,2.4559,2.5503,2.6094,2.4633,2.349,0.0,0.0,0.0,0.0,0.0,0.0,0.0,0.0,0.0,0.0,0.0,0.0,0.0,0.0,0.0,0.0,0.0,0.0,0.0,0.0,0.0,0.0,0.0,0.0,0.0,0.0,0.0,0.0,0.0,0.0,0.0,0.0,0.0,0.0,0.0,0.0,0.0,0.0,0.0,0.0,0.0,0.0,0.0,0.0,0.0,0.0,0.0,0.0,0.0,0.0,0.0,0.0,0.0,0.0,0.0,0.0,0.0,0.0,0.0,0.0,0.0,0.0,0.0,0.0,0.0,0.0,0.0,0.0,0.0,0.0,0.0,0.0,0.0,0.0,0.0,0.0,0.0,0.0,0.0,0.0,0.0,0.0,0.0,0.0,0.0,0.0,0.0,0.0,0.0,0.0,0.0,0.0,0.0,0.0,0.0,0.0,0.0,0.0,0.0,0.0,0.0,0.0,0.0,0.0,0.0,0.0,0.0,0.0,0.0,2.3778,2.5249,2.6316,2.6881,2.5258,2.3987,2.3097,0.0,0.0,0.0,0.0,0.0,0.0,0.0,0.0,0.0,0.0,0.0,0.0,0.0,0.0,0.0,0.0,0.0,0.0,0.0,0.0,0.0,0.0,0.0,0.0,0.0,0.0,0.0,0.0,0.0,0.0,0.0,0.0,0.0,0.0,0.0,0.0,0.0,0.0,0.0,0.0,0.0,0.0,0.0,0.0,0.0,0.0,0.0,0.0,0.0,0.0,0.0,0.0,0.0,0.0,0.0,0.0,0.0,0.0,0.0,0.0,0.0,0.0,0.0,0.0,0.0,0.0,0.0,0.0,0.0,0.0,0.0,0.0,0.0,0.0,0.0,0.0,0.0,0.0,0.0,0.0,0.0,0.0,0.0,0.0,0.0,0.0,0.0,0.0,0.0,0.0,0.0,0.0,0.0,0.0,0.0,0.0,0.0,0.0,0.0,0.0,0.0,0.0,0.0,0.0,0.0,0.0,0.0,0.0,2.5815,2.7903,2.8613,2.7819,2.6868,2.5051,0.0,0.0,0.0,0.0,0.0,0.0,0.0,0.0,0.0,0.0,0.0,0.0,0.0,0.0,0.0,0.0,0.0,0.0,0.0,0.0,0.0,0.0,0.0,0.0,0.0,0.0,0.0,0.0,0.0,0.0,0.0,0.0,0.0,0.0,0.0,0.0,0.0,0.0,0.0,0.0,0.0,0.0,0.0,0.0,0.0,0.0,0.0,0.0,0.0,0.0,0.0,0.0,0.0,0.0,0.0,0.0,0.0,0.0,0.0,0.0,0.0,0.0,0.0,0.0,0.0,0.0,0.0,0.0,0.0,0.0,0.0,0.0,0.0,0.0,0.0,0.0,0.0,0.0,0.0,0.0,0.0,0.0,0.0,0.0,0.0,0.0,0.0,0.0,0.0,0.0,0.0,0.0,0.0,0.0,0.0,0.0,0.0,0.0,0.0,0.0,0.0,0.0,0.0,0.0,0.0,0.0,0.0,0.0,0.0,2.7213,2.9258,2.9961,2.909,2.7337,2.5747,0.0,0.0,0.0,0.0,0.0,0.0,0.0,0.0,0.0,0.0,0.0,0.0,0.0,0.0,0.0,0.0,0.0,0.0,0.0,0.0,0.0,0.0,0.0,0.0,0.0,0.0,0.0,0.0,0.0,0.0,0.0,0.0,0.0,0.0,0.0,0.0,0.0,0.0,0.0,0.0,0.0,0.0,0.0,0.0,0.0,0.0,0.0,0.0,0.0,0.0,0.0,0.0,0.0,0.0,0.0,0.0,0.0,0.0,0.0,0.0,0.0,0.0,0.0,0.0,0.0,0.0,0.0,0.0,0.0,0.0,0.0,0.0,0.0,0.0,0.0,0.0,0.0,0.0,0.0,0.0,0.0,0.0,0.0,0.0,0.0,0.0,0.0,0.0,0.0,0.0,0.0,0.0,0.0,0.0,0.0,0.0,0.0,0.0,0.0,0.0,0.0,0.0,0.0,0.0,0.0,0.0,0.0,0.0,2.6784,2.7956,3.0229,3.1094,3.041,2.8314,2.6438,0.0,0.0,0.0,0.0,0.0,0.0,0.0,0.0,0.0,0.0,0.0,0.0,0.0,0.0,0.0,0.0,0.0,0.0,0.0,0.0,0.0,0.0,0.0,0.0,0.0,0.0,0.0,0.0,0.0,0.0,0.0,0.0,0.0,0.0,0.0,0.0,0.0,0.0,0.0,0.0,0.0,0.0,0.0,0.0,0.0,0.0,0.0,0.0,0.0,0.0,0.0,0.0,0.0,0.0,0.0,0.0,0.0,0.0,0.0,0.0,0.0,0.0,0.0,0.0,0.0,0.0,0.0,0.0,0.0,0.0,0.0,0.0,0.0,0.0,0.0,0.0,0.0,0.0,0.0,0.0,0.0,0.0,0.0,0.0,0.0,0.0,0.0,0.0,0.0,0.0,0.0,0.0,0.0,0.0,0.0,0.0,0.0,0.0,0.0,0.0,0.0,0.0,0.0,0.0,0.0,0.0,0.0,0.0,2.75,2.8359,3.0815,3.1944,3.1455,2.9428,2.7148,0.0,0.0,0.0,0.0,0.0,0.0,0.0,0.0,0.0,0.0,0.0,0.0,0.0,0.0,0.0,0.0,0.0,0.0,0.0,0.0,0.0,0.0,0.0,0.0,0.0,0.0,0.0,0.0,0.0,0.0,0.0,0.0,0.0,0.0,0.0,0.0,0.0,0.0,0.0,0.0,0.0,0.0,0.0,0.0,0.0,0.0,0.0,0.0,0.0,0.0,0.0,0.0,0.0,0.0,0.0,0.0,0.0,0.0,0.0,0.0,0.0,0.0,0.0,0.0,0.0,0.0,0.0,0.0,0.0,0.0,0.0,0.0,0.0,0.0,0.0,0.0,0.0,0.0,0.0,0.0,0.0,0.0,0.0,0.0,0.0,0.0,0.0,0.0,0.0,0.0,0.0,0.0,0.0,0.0,0.0,0.0,0.0,0.0,0.0,0.0,0.0,0.0,0.0,0.0,0.0,0.0,0.0,0.0,2.793,2.8775,3.0664,3.1606,3.1489,2.9434,2.7572,0.0,0.0,0.0,0.0,0.0,0.0,0.0,0.0,0.0,0.0,0.0,0.0,0.0,0.0,0.0,0.0,0.0,0.0,0.0,0.0,0.0,0.0,0.0,0.0,0.0,0.0,0.0,0.0,0.0,0.0,0.0,0.0,0.0,0.0,0.0,0.0,0.0,0.0,0.0,0.0,0.0,0.0,0.0,0.0,0.0,0.0,0.0,0.0,2.1982,0.0,0.0,0.0,0.0,0.0,0.0,0.0,0.0,0.0,0.0,0.0,0.0,0.0,0.0,0.0,0.0,0.0,0.0,0.0,0.0,0.0,0.0,0.0,0.0,0.0,0.0,0.0,0.0,0.0,0.0,0.0,0.0,0.0,0.0,0.0,0.0,0.0,0.0,0.0,0.0,0.0,0.0,0.0,0.0,0.0,0.0,0.0,0.0,0.0,0.0,0.0,0.0,0.0,0.0,0.0,0.0,0.0,0.0,0.0,2.7982,2.9219,3.0513,3.1099,3.0845,2.9381,2.7793,0.0,0.0,0.0,0.0,0.0,0.0,0.0,0.0,0.0,0.0,0.0,0.0,0.0,0.0,0.0,0.0,0.0,0.0,0.0,0.0,0.0,0.0,0.0,0.0,0.0,0.0,0.0,0.0,0.0,0.0,0.0,0.0,0.0,0.0,0.0,0.0,0.0,0.0,0.0,0.0,0.0,0.0,0.0,0.0,0.0,0.0,0.0,0.0,0.0,0.0,0.0,0.0,0.0,0.0,0.0,0.0,0.0,0.0,0.0,0.0,0.0,0.0,0.0,0.0,0.0,0.0,0.0,0.0,0.0,0.0,0.0,0.0,0.0,0.0,0.0,0.0,0.0,0.0,0.0,0.0,0.0,0.0,0.0,0.0,0.0,0.0,0.0,0.0,0.0,0.0,0.0,0.0,0.0,0.0,0.0,0.0,0.0,0.0,0.0,0.0,0.0,0.0,0.0,0.0,0.0,0.0,0.0,2.6198,2.7799,2.9618,3.0419,3.0566,3.0098,2.9277,2.7812,2.5696,0.0,0.0,0.0,0.0,0.0,0.0,0.0,0.0,0.0,0.0,0.0,0.0,0.0,0.0,0.0,0.0,0.0,0.0,0.0,0.0,0.0,0.0,0.0,0.0,0.0,0.0,0.0,0.0,0.0,0.0,0.0,0.0,0.0,0.0,0.0,0.0,0.0,0.0,2.0391,2.1387,0.0,0.0,0.0,0.0,0.0,0.0,0.0,0.0,2.2402,0.0,0.0,0.0,0.0,0.0,0.0,0.0,0.0,0.0,0.0,0.0,0.0,0.0,0.0,0.0,0.0,0.0,0.0,0.0,0.0,0.0,0.0,0.0,0.0,0.0,0.0,0.0,0.0,0.0,0.0,0.0,0.0,0.0,0.0,0.0,0.0,0.0,0.0,0.0,0.0,0.0,0.0,0.0,0.0,0.0,0.0,0.0,0.0,0.0,0.0,0.0,0.0,0.0,0.0,0.0,0.0,2.6498,2.6523,2.7656,3.0034,3.0234,3.0131,2.9696,2.8861,2.7409,2.5309,0.0,0.0,0.0,0.0,0.0,0.0,0.0,0.0,0.0,0.0,0.0,0.0,0.0,0.0,0.0,0.0,0.0,0.0,0.0,0.0,0.0,0.0,0.0,0.0,0.0,0.0,0.0,0.0,0.0,0.0,0.0,0.0,0.0,0.0,0.0,0.0,0.0,0.0,0.0,2.2761,2.3279,0.0,0.0,0.0,0.0,0.0,0.0,0.0,0.0,2.3245,0.0,0.0,0.0,0.0,0.0,0.0,0.0,0.0,0.0,0.0,0.0,0.0,0.0,0.0,0.0,0.0,0.0,0.0,0.0,0.0,0.0,0.0,0.0,0.0,0.0,0.0,0.0,0.0,0.0,0.0,0.0,0.0,0.0,0.0,0.0,0.0,0.0,0.0,0.0,0.0,0.0,0.0,0.0,0.0,0.0,0.0,0.0,0.0,0.0,0.0,0.0,0.0,0.0,0.0,0.0,2.5515,2.6582,2.7995,2.9799,2.9897,2.9668,2.9238,2.7988,2.6412,0.0,0.0,0.0,0.0,0.0,0.0,0.0,0.0,0.0,0.0,0.0,0.0,0.0,0.0,0.0,0.0,0.0,0.0,0.0,0.0,0.0,0.0,0.0,0.0,0.0,0.0,0.0,0.0,0.0,0.0,0.0,0.0,0.0,0.0,0.0,0.0,0.0,0.0,0.0,0.0,2.334,2.3856,2.4906,0.0,0.0,0.0,0.0,0.0,0.0,2.3574,2.3281,0.0,0.0,0.0,0.0,0.0,0.0,0.0,0.0,0.0,0.0,0.0,0.0,0.0,0.0,0.0,0.0,0.0,0.0,0.0,0.0,0.0,0.0,0.0,0.0,0.0,0.0,0.0,0.0,0.0,0.0,0.0,0.0,0.0,0.0,0.0,0.0,0.0,0.0,0.0,0.0,0.0,0.0,0.0,0.0,0.0,0.0,0.0,0.0,0.0,0.0,0.0,0.0,0.0,0.0,0.0,2.4402,2.6477,2.8191,2.9403,2.9447,2.9252,2.8756,2.7148,2.55,0.0,0.0,0.0,0.0,0.0,0.0,0.0,0.0,0.0,0.0,0.0,0.0,0.0,0.0,0.0,0.0,0.0,0.0,0.0,0.0,0.0,0.0,0.0,0.0,0.0,0.0,0.0,0.0,0.0,0.0,0.0,0.0,0.0,0.0,0.0,0.0,0.0,0.0,0.0,0.0,0.0,2.4578,2.5679,2.5171,0.0,0.0,0.0,0.0,2.4074,2.3906,0.0,0.0,0.0,0.0,0.0,0.0,0.0,0.0,0.0,0.0,0.0,0.0,0.0,0.0,0.0,0.0,0.0,0.0,0.0,0.0,0.0,0.0,0.0,0.0,0.0,0.0,0.0,0.0,0.0,0.0,0.0,0.0,0.0,0.0,0.0,0.0,0.0,0.0,0.0,0.0,0.0,0.0,0.0,0.0,0.0,0.0,0.0,0.0,0.0,0.0,0.0,0.0,0.0,0.0,0.0,0.0,2.4383,2.6172,2.7702,2.8898,2.899,2.8775,2.8373,2.6674,2.5164,0.0,0.0,0.0,0.0,0.0,0.0,0.0,0.0,0.0,0.0,0.0,0.0,0.0,0.0,0.0,0.0,0.0,0.0,0.0,0.0,0.0,0.0,0.0,0.0,0.0,0.0,0.0,0.0,0.0,0.0,0.0,0.0,0.0,0.0,0.0,0.0,0.0,0.0,0.0,0.0,0.0,2.5679,2.623,2.5886,2.5257,0.0,0.0,2.5359,2.5004,2.5539,0.0,0.0,0.0,0.0,0.0,0.0,0.0,0.0,0.0,0.0,0.0,0.0,0.0,0.0,0.0,0.0,0.0,0.0,0.0,0.0,0.0,0.0,0.0,0.0,0.0,0.0,0.0,0.0,0.0,0.0,0.0,0.0,0.0,0.0,0.0,0.0,0.0,0.0,0.0,0.0,0.0,0.0,0.0,0.0,0.0,0.0,0.0,0.0,0.0,0.0,0.0,0.0,0.0,0.0,0.0,2.2763,2.3728,2.6355,2.7995,2.8522,2.8555,2.8476,2.8281,2.614,2.45,0.0,0.0,0.0,0.0,0.0,0.0,0.0,0.0,0.0,0.0,0.0,0.0,0.0,0.0,0.0,0.0,0.0,0.0,0.0,0.0,0.0,0.0,0.0,0.0,0.0,0.0,0.0,0.0,0.0,0.0,0.0,0.0,0.0,0.0,0.0,0.0,0.0,0.0,0.0,0.0,0.0,0.0,2.638,2.6413,0.0,0.0,0.0,2.5574,2.516,0.0,0.0,0.0,0.0,0.0,0.0,0.0,0.0,0.0,0.0,0.0,0.0,0.0,0.0,0.0,0.0,0.0,0.0,0.0,0.0,0.0,0.0,0.0,0.0,0.0,0.0,0.0,0.0,0.0,0.0,0.0,0.0,0.0,0.0,0.0,0.0,0.0,0.0,0.0,0.0,0.0,0.0,0.0,0.0,0.0,0.0,0.0,0.0,0.0,0.0,0.0,0.0,0.0,0.0,0.0,0.0,0.0,2.3181,2.6543,2.8301,2.8301,2.8301,2.8301,2.8262,2.6179,0.0,0.0,0.0,0.0,0.0,0.0,0.0,0.0,0.0,0.0,0.0,0.0,0.0,0.0,0.0,0.0,0.0,0.0,0.0,0.0,0.0,0.0,0.0,0.0,0.0,0.0,0.0,1.7428,0.0,0.0,0.0,0.0,0.0,0.0,0.0,0.0,0.0,0.0,0.0,0.0,0.0,0.0,2.6595,2.6712,2.6875,2.7129,0.0,0.0,2.571,2.5759,2.6081,2.571,0.0,0.0,0.0,0.0,0.0,0.0,0.0,0.0,0.0,0.0,0.0,0.0,0.0,0.0,0.0,0.0,0.0,0.0,0.0,0.0,0.0,0.0,0.0,0.0,0.0,0.0,0.0,0.0,0.0,0.0,0.0,0.0,0.0,0.0,0.0,0.0,0.0,0.0,0.0,0.0,0.0,0.0,0.0,0.0,0.0,0.0,0.0,0.0,0.0,0.0,0.0,0.0,0.0,0.0,0.0,2.3284,2.6555,2.8301,2.8301,2.8301,2.8301,2.8281,2.7331,2.5652,0.0,0.0,0.0,0.0,0.0,0.0,0.0,0.0,0.0,0.0,0.0,0.0,0.0,0.0,0.0,0.0,0.0,0.0,0.0,0.0,0.0,0.0,0.0,0.0,0.0,0.0,0.0,0.0,0.0,0.0,0.0,0.0,0.0,0.0,0.0,0.0,0.0,0.0,0.0,0.0,0.0,2.7129,2.7545,2.7266,2.7428,0.0,0.0,2.6108,2.7318,2.7845,2.7278,2.4715,0.0,0.0,0.0,0.0,0.0,0.0,0.0,0.0,0.0,0.0,0.0,0.0,0.0,0.0,0.0,0.0,0.0,0.0,0.0,0.0,0.0,0.0,0.0,0.0,0.0,0.0,0.0,0.0,0.0,0.0,0.0,0.0,0.0,0.0,0.0,0.0,0.0,0.0,0.0,0.0,0.0,0.0,0.0,0.0,0.0,0.0,0.0,0.0,0.0,0.0,0.0,0.0,0.0,2.2999,2.3162,2.653,2.8301,2.8301,2.8301,2.8301,2.8301,2.7448,2.5906,0.0,0.0,0.0,0.0,0.0,0.0,0.0,0.0,0.0,0.0,0.0,0.0,0.0,0.0,0.0,0.0,0.0,0.0,0.0,0.0,0.0,0.0,0.0,0.0,0.0,0.0,0.0,0.0,2.2837,2.2891,2.2852,0.0,0.0,0.0,0.0,0.0,0.0,0.0,0.0,0.0,0.0,2.7669,2.8326,2.8053,0.0,0.0,2.7546,2.6589,2.6849,2.7037,2.6431,2.4367,2.382,0.0,0.0,0.0,0.0,0.0,0.0,0.0,0.0,0.0,0.0,0.0,0.0,0.0,0.0,0.0,0.0,0.0,0.0,0.0,0.0,0.0,0.0,0.0,0.0,0.0,0.0,0.0,0.0,0.0,0.0,0.0,0.0,0.0,0.0,0.0,0.0,0.0,0.0,0.0,0.0,0.0,0.0,0.0,0.0,0.0,0.0,0.0,0.0,0.0,0.0,0.0,0.0,2.3097,2.3307,2.6602,2.8301,2.8301,2.8301,2.8301,2.8281,2.7715,2.6433,0.0,0.0,0.0,0.0,0.0,0.0,0.0,0.0,0.0,0.0,0.0,0.0,0.0,0.0,0.0,0.0,0.0,0.0,0.0,0.0,0.0,0.0,0.0,0.0,0.0,0.0,0.0,0.0,2.4896,2.4713,2.4262,0.0,0.0,0.0,0.0,0.0,0.0,0.0,0.0,0.0,0.0,2.8946,2.9013,2.9057,2.9116,2.9296,2.8127,2.7252,2.7366,2.7264,2.6744,2.5508,0.0,0.0,0.0,0.0,0.0,0.0,0.0,0.0,0.0,0.0,0.0,0.0,0.0,0.0,0.0,0.0,0.0,0.0,0.0,0.0,0.0,0.0,0.0,0.0,0.0,0.0,0.0,0.0,0.0,0.0,2.5544,0.0,0.0,0.0,0.0,0.0,0.0,0.0,0.0,0.0,0.0,0.0,0.0,0.0,0.0,0.0,0.0,0.0,0.0,0.0,0.0,0.0,0.0,2.296,2.3811,2.677,2.8301,2.8301,2.8301,2.8301,2.8301,2.8262,2.7428,2.5667,0.0,0.0,0.0,0.0,0.0,0.0,0.0,0.0,0.0,0.0,0.0,0.0,0.0,0.0,0.0,0.0,0.0,0.0,0.0,0.0,0.0,0.0,0.0,0.0,0.0,0.0,2.4529,2.4306,2.4319,0.0,0.0,0.0,0.0,0.0,0.0,0.0,0.0,0.0,0.0,2.9177,3.1107,2.9559,3.0178,3.066,3.0341,2.8813,2.8132,2.936,2.9186,2.8897,0.0,0.0,0.0,0.0,0.0,0.0,0.0,0.0,0.0,0.0,0.0,0.0,0.0,0.0,0.0,0.0,0.0,0.0,0.0,0.0,0.0,0.0,0.0,0.0,0.0,0.0,0.0,2.8329,2.7821,0.0,0.0,0.0,0.0,0.0,0.0,0.0,0.0,0.0,0.0,0.0,3.2746,3.2591,0.0,0.0,0.0,0.0,0.0,0.0,0.0,0.0,0.0,0.0,0.0,0.0,2.4172,2.3951,2.6783,2.8301,2.8301,2.8301,2.8301,2.8301,2.8301,2.748,2.5764,0.0,0.0,0.0,0.0,0.0,0.0,0.0,0.0,0.0,0.0,0.0,0.0,0.0,0.0,0.0,0.0,0.0,0.0,0.0,0.0,0.0,0.0,0.0,0.0,0.0,2.7577,0.0,0.0,0.0,0.0,0.0,0.0,0.0,0.0,0.0,0.0,0.0,2.7803,2.8067,3.0113,3.1354,3.0611,3.0866,3.1248,0.0,0.0,0.0,0.0,0.0,0.0,0.0,0.0,0.0,0.0,0.0,0.0,0.0,0.0,2.6429,2.3118,2.2873,2.3125,2.3125,0.0,0.0,0.0,0.0,0.0,0.0,0.0,0.0,0.0,0.0,0.0,0.0,0.0,0.0,3.0613,0.0,2.9888,0.0,0.0,0.0,0.0,0.0,0.0,0.0,0.0,3.3657,3.4762,3.5554,3.5203,3.5063,0.0,3.39,3.1853,0.0,0.0,0.0,0.0,0.0,0.0,0.0,0.0,2.5026,2.4043,2.6786,2.8301,2.8301,2.8301,2.8301,2.8301,2.8301,2.7637,2.6206,2.4918,2.3719,0.0,0.0,0.0,0.0,0.0,0.0,0.0,0.0,0.0,0.0,0.0,0.0,0.0,0.0,0.0,0.0,0.0,0.0,0.0,0.0,0.0,0.0,0.0,2.9283,0.0,0.0,0.0,0.0,0.0,0.0,0.0,0.0,0.0,2.9191,2.9686,3.0278,3.061,3.2155,3.2777,3.1488,0.0,0.0,0.0,0.0,0.0,0.0,0.0,2.9661,2.9859,3.0196,3.0928,3.231,3.2651,3.2689,3.2523,0.0,0.0,2.645,2.6033,2.6266,2.6266,2.6828,2.6954,2.5794,2.6116,2.6253,0.0,0.0,0.0,0.0,0.0,0.0,0.0,0.0,3.4844,3.4524,0.0,3.342,0.0,0.0,0.0,0.0,0.0,3.3415,0.0,0.0,3.7788,3.8781,3.7324,3.7274,3.7286,3.7223,3.6133,3.5043,3.3903,3.102,0.0,0.0,0.0,0.0,0.0,0.0,2.5487,2.4312,2.6904,2.8301,2.8301,2.8301,2.8301,2.8301,2.8301,2.791,2.7064,2.6641,2.5669,2.3957,2.3445,0.0,0.0,0.0,0.0,0.0,0.0,0.0,0.0,0.0,0.0,0.0,0.0,0.0,0.0,0.0,0.0,0.0,0.0,0.0,0.0,2.9468,0.0,0.0,0.0,0.0,0.0,0.0,0.0,0.0,0.0,0.0,3.2422,3.232,3.2561,3.3086,0.0,0.0,0.0,0.0,3.4519,3.1962,3.1552,3.1556,3.1581,3.2445,3.3437,3.4443,0.0,0.0,3.4921,3.3401,3.2302,3.175,3.2353,3.2267,3.1026,3.018,2.9794,2.9783,2.8881,2.8019,2.7786,2.7155,2.6257,3.8326,0.0,0.0,0.0,0.0,3.6196,3.7085,3.807,3.8054,3.775,3.7167,3.7006,0.0,0.0,0.0,0.0,0.0,0.0,3.6462,3.7585,3.7833,3.8303,3.8982,3.8969,3.8982,3.8956,3.8266,3.7776,3.7399,3.5758,3.3096,2.9534,0.0,0.0,0.0,0.0,2.7469,2.7205,2.7914,2.8301,2.8301,2.8301,2.8301,2.8301,2.8301,2.8184,2.793,2.7826,2.709,2.5739,2.5528,0.0,0.0,0.0,0.0,0.0,0.0,0.0,0.0,0.0,0.0,0.0,0.0,0.0,0.0,0.0,0.0,0.0,0.0,0.0,2.9443,3.0382,3.0834,0.0,0.0,0.0,0.0,0.0,0.0,0.0,0.0,0.0,3.6268,3.4749,3.3556,0.0,0.0,3.4027,3.229,3.3707,3.4778,3.4391,3.4315,0.0,3.4888,3.4561,3.4363,3.4653,3.5641,3.6287,3.5965,3.6136,3.626,3.6088,3.5966,3.5722,3.527,3.3236,3.1747,3.1624,3.2027,3.2088,3.1197,3.065,3.0067,4.2601,3.8976,3.8877,3.9011,3.932,3.9724,4.0332,4.1013,4.1013,4.0829,4.0467,4.0453,4.0189,3.9747,3.8616,0.0,0.0,0.0,3.9244,4.0807,4.0055,4.0251,4.1143,4.068,4.0465,4.0414,3.9626,3.8994,3.8529,3.7424,3.5317,3.2294,0.0,0.0,2.9559,2.9819,2.9098,2.7472,2.8499,2.882,2.8311,2.8283,2.8301,2.8301,2.8301,2.8301,2.8301,2.8301,2.7865,2.6972,2.6891,2.6425,0.0,0.0,0.0,0.0,0.0,0.0,0.0,0.0,0.0,0.0,0.0,2.757,2.6398,0.0,0.0,0.0,2.9111,2.9864,3.0994,3.1673,0.0,0.0,0.0,0.0,0.0,0.0,0.0,3.4787,3.6783,3.8228,3.8304,3.6813,3.5721,3.5756,3.5626,3.5139,3.3997,0.0,3.5983,3.5871,3.5857,3.5981,3.6331,3.6006,3.578,3.5958,3.657,3.7009,3.706,3.76,3.799,3.7939,3.7575,3.7198,3.7198,3.5381,3.3934,3.3921,3.4154,3.4056,3.3267,3.2707,3.2041,4.597,4.5771,4.3772,4.321,4.3547,4.2806,4.2993,4.3771,4.3795,4.3799,4.3798,4.3733,4.338,4.2695,4.1229,0.0,4.2728,4.1809,4.2181,4.3646,4.3496,4.3448,4.3417,4.2152,4.1565,4.1554,4.0262,3.9094,3.8065,3.6998,3.5906,3.4778,3.4728,3.3646,3.1699,3.2208,3.0574,2.6692,2.9086,2.9728,2.8491,2.8338,2.8301,2.8301,2.8301,2.8301,2.8301,2.8301,2.8172,2.7865,2.7746,2.7469,2.6972,0.0,0.0,0.0,0.0,0.0,0.0,0.0,0.0,0.0,0.0,0.0,0.0,0.0,0.0,0.0,3.1275,0.0,3.3266,3.3391,0.0,0.0,0.0,3.5355,3.6521,3.7576,3.799,3.7449,0.0,0.0,3.9095,3.8504,3.8542,3.9622,3.8668,3.7513,3.6532,3.7223,3.7626,3.6684,3.6595,3.6607,3.6759,3.6922,3.7173,3.7613,3.7914,3.7739,3.7739,3.7764,3.7839,3.7789,3.7449,3.7135,3.7135,3.6575,3.6393,3.6263,3.5403,3.4593,3.452,3.3502,3.2582,4.9857,4.9799,4.9292,4.7764,4.5768,4.6485,4.6642,4.6388,4.6388,4.6388,4.6381,4.6379,4.6291,4.6113,4.5724,4.5762,4.61,4.4893,4.4544,4.4829,4.3431,4.3003,4.3405,4.1678,4.1095,4.1465,3.9891,3.8969,3.8642,3.755,3.6433,3.5344,3.4892,3.4029,3.2705,3.1841,3.2231,3.3859,3.1715,3.0356,2.9811,2.8814,2.8301,2.8301,2.8301,2.8301,2.8301,2.8301,2.8542,2.9039,2.8711,2.8777,2.9307,2.7629,0.0,0.0,0.0,0.0,0.0,0.0,0.0,0.0,0.0,2.9217,2.7437,0.0,3.0598,0.0,3.2986,3.4817,3.5554,3.5993,0.0,0.0,3.6935,3.7223,3.8756,3.9483,3.9684,3.9183,4.0186,4.0738,4.0199,3.9647,3.9546,4.0186,3.8278,3.6695,3.6443,3.7324,3.7902,3.7726,3.8026,3.8278,3.8202,3.7663,3.7248,3.7386,3.706,3.6783,3.6795,3.6783,3.6783,3.6795,3.6695,3.6594,3.6619,3.6468,3.643,3.6393,3.6133,3.5918,3.5894,3.4836,3.3896,5.1217,5.1217,5.1217,4.9492,4.6879,4.8201,4.8188,4.7309,4.7298,4.7298,4.7298,4.7298,4.7298,4.7298,4.7298,4.7298,4.7225,4.6572,4.6244,4.6181,4.4833,4.4394,4.4675,4.306,4.2198,4.1947,4.0452,3.9458,3.8844,3.7763,3.6872,3.6259,3.5718,3.4901,3.3789,3.2561,3.2922,3.4897,3.3831,3.2293,3.0364,2.9387,2.8534,2.7747,2.7539,2.7344,2.7155,2.7614,2.7967,2.8195,2.8962,2.9432,2.9467,2.8487,2.7676,0.0,0.0,0.0,0.0,0.0,0.0,0.0,0.0,0.0,0.0,0.0,3.2641,3.3144,3.5292,3.6761,3.7062,3.7637,3.8354,3.9358,3.9207,3.9597,4.1003,4.143,4.1418,4.0879,4.1343,4.1505,4.0939,4.0387,4.0174,4.0462,3.8969,3.7864,3.7962,3.8863,3.9501,3.9233,3.993,4.005,3.9124,3.7953,3.7098,3.6884,3.6594,3.6405,3.6405,3.6405,3.6405,3.6405,3.6405,3.6405,3.6405,3.6405,3.6405,3.6405,3.6405,3.6405,3.6381,3.581,3.5283,5.1217,5.1217,5.1217,4.9811,4.7668,4.8809,4.8349,4.679,4.679,4.6879,4.707,4.7219,4.7298,4.7298,4.7298,4.7298,4.7298,4.7298,4.7298,4.7279,4.661,4.629,4.6247,4.5004,4.3732,4.2464,4.1278,4.002,3.8768,3.7663,3.7022,3.6872,3.6406,3.5616,3.4502,3.3545,3.3126,3.3115,3.4672,3.3837,3.0478,2.9597,2.8436,2.6919,2.6491,2.6133,2.5749,2.6803,2.7207,2.6863,2.8979,2.9897,2.9228,2.9204,2.9082,0.0,2.8232,0.0,0.0,0.0,0.0,0.0,0.0,0.0,0.0,3.4413,3.5579,3.6619,3.7751,3.8467,3.8542,3.907,3.9986,4.1314,4.1528,4.1918,4.285,4.2925,4.2713,4.2249,4.2135,4.187,4.1227,4.0775,4.0487,4.0337,3.9898,3.9509,3.9712,4.0374,4.0715,4.046,4.1188,4.0434,3.8789,3.767,3.6909,3.6519,3.6629,3.6592,3.6699,3.6662,3.6676,3.6639,3.6546,3.6405,3.6405,3.6405,3.6405,3.6405,3.6405,3.6405,3.6405,3.6346,3.6405,5.1217,5.1217,5.1217,5.032,4.8947,4.9198,4.729,4.4047,4.4047,4.4655,4.5753,4.683,4.7298,4.7298,4.7298,4.7298,4.7298,4.7298,4.7298,4.7279,4.66,4.629,4.6226,4.5004,4.3743,4.2437,4.0837,3.9422,3.8165,3.7085,3.608,3.518,3.5066,3.4463,3.3456,0.0,0.0,0.0,3.1495,3.0711,3.0758,2.7958,2.63,2.5964,2.5874,0.0,2.5754,2.6803,2.7651,2.8207,2.9487,0.0,0.0,0.0,0.0,0.0,0.0,0.0,0.0,0.0,0.0,0.0,3.499,3.4416,3.4438,3.622,3.7663,3.8391,3.9785,4.0889,4.1369,4.1884,4.2361,4.2624,4.2674,4.2774,4.2975,4.2612,4.2313,4.2224,4.177,4.1266,4.0725,4.0563,4.0337,3.9935,3.9747,3.971,3.9672,3.9601,3.941,3.922,3.8983,3.8043,3.701,3.6757,3.6687,3.6499,3.7231,3.7712,3.7735,3.7735,3.7758,3.7678,3.7036,3.6405,3.6405,3.6405,3.6405,3.6405,3.6405,3.6405,3.6405,3.6405,3.6405,5.1217,0.0,5.1217,5.0081,0.0,4.8308,4.6411,4.3389,4.4715,4.5663,4.6322,4.701,4.7298,4.7249,4.6621,4.6302,4.6281,4.5613,4.5683,4.6262,4.5623,4.5503,4.5792,4.514,4.3695,4.1624,4.0747,3.9535,3.8013,3.6909,3.6256,3.5931,3.5655,3.5264,3.4748,3.4734,3.4472,3.3908,3.3187,3.2783,3.2606,3.0716,2.9233,2.8347,2.8127,0.0,0.0,0.0,0.0,0.0,0.0,0.0,0.0,0.0,0.0,3.3836,3.3861,3.4212,3.5075,3.5629,3.6533,3.7914,3.8228,3.804,3.7224,3.8944,4.0326,4.0879,4.1681,4.2258,4.2562,4.2824,4.3,4.3,4.3,4.29,4.2651,4.235,4.1973,4.1418,4.109,4.07,4.0161,4.0124,3.9998,3.9747,3.971,3.9609,3.941,3.9637,3.9861,3.9778,3.8567,3.7566,3.7308,3.7243,3.7219,3.7356,3.8198,3.8637,3.8187,3.8096,3.7952,3.7379,3.6768,3.6405,3.6405,3.6405,3.6405,3.6405,3.6405,3.6405,3.6405,3.6405,3.6405,5.1217,5.1217,5.1217,4.989,4.7807,4.7698,4.6281,4.4147,0.0,0.0,0.0,4.7189,4.7298,4.7219,4.6142,4.5633,4.5574,4.4506,4.4606,4.5633,4.5084,4.5055,4.5454,4.5266,4.3649,4.0946,4.0618,3.9611,3.7875,3.6859,3.6619,3.6984,3.6619,3.6405,3.6405,3.6405,3.5929,3.5077,3.5556,3.5284,3.4197,3.3422,3.2311,3.083,3.0449,3.0146,2.9841,3.0916,3.1341,3.0959,3.2901,3.3922,3.3718,3.4536,3.5141,3.5442,3.5869,3.6572,3.755,3.804,3.8743,3.9785,4.0839,4.109,4.0187,4.1482,4.2526,4.295,4.3,4.3,4.3,4.3,4.3,4.3,4.3,4.2788,4.2274,4.2098,4.1619,4.0713,4.0424,4.0211,3.9798,3.9735,3.971,3.971,3.971,3.9459,3.9058,3.9607,4.005,3.9559,3.8568,3.8009,3.7804,3.7666,3.7815,3.7655,3.866,3.9172,3.8413,3.8096,3.7697,3.7057,3.658,3.6417,3.6405,3.6405,3.6405,3.6405,3.6405,3.6405,3.6405,3.6405,3.6405,5.1217,5.1217,5.1217,5.0667,4.9759,4.9235,4.8169,4.67,4.5933,4.5574,4.5663,4.68,4.7298,4.7298,4.71,4.6999,4.701,4.683,4.686,4.701,4.6909,4.664,4.6098,4.5141,4.3602,4.1542,4.0083,3.8646,3.738,3.6683,3.6443,3.6494,3.6443,3.6405,3.6405,3.6405,3.6318,3.6118,3.4442,3.3482,3.3264,3.1379,3.0239,2.9999,2.9988,2.9852,2.9818,3.1313,3.207,3.2009,3.3642,3.5002,3.589,3.6091,3.682,3.8153,3.8391,3.8693,3.9295,3.9421,3.9722,4.0362,4.1418,4.1998,4.1897,4.25,4.2914,4.3,4.2989,4.3,4.3,4.3,4.3,4.3,4.3,4.2802,4.221,4.1731,4.1215,4.0524,4.0099,3.9836,3.9722,3.971,3.971,3.971,3.9572,3.927,3.8503,3.8729,3.8491,3.7538,3.7672,3.7609,3.701,3.6662,3.6849,3.6627,3.7735,3.8536,3.8175,3.8096,3.7948,3.7838,3.6978,3.6476,3.6405,3.6405,3.6405,3.6405,3.6405,3.6405,3.6405,3.6405,3.6405,5.1217,5.1217,5.1217,5.0817,5.0117,4.9164,4.8188,4.7279,4.6651,4.6411,4.6441,4.7029,4.7298,4.7249,4.6531,4.6202,4.6172,4.5443,4.5533,4.6172,4.6213,4.6221,4.6194,4.5058,4.3504,4.1685,4.0194,3.8697,3.7307,3.6959,3.6695,3.643,3.6405,3.6405,3.6405,3.6405,3.6405,3.6381,3.5409,3.4879,3.4879,3.3911,3.3389,3.3378,3.3389,3.3498,3.3811,3.4513,3.5054,3.5349,3.6396,3.7223,3.7713,3.8039,3.8542,3.9271,3.9333,3.9434,3.9672,3.971,3.9936,4.0462,4.0978,4.1404,4.1681,4.2498,4.2864,4.2626,4.2813,4.3,4.3,4.3,4.3,4.3,4.3,4.2649,4.1856,4.1478,4.0976,4.0211,3.9848,3.971,3.971,3.971,3.971,3.966,3.9245,3.8492,3.7725,3.8072,3.799,3.6771,3.6861,3.6906,3.6498,3.6978,3.7266,3.7335,3.8289,3.8693,3.8311,3.8085,3.7812,3.7312,3.6697,3.6452,3.6405,3.6405,3.6405,3.6405,3.6405,3.6405,3.6405,3.6405,3.6405,5.1427,5.1427,5.1277,5.0817,5.0106,4.9153,4.8297,4.7549,4.7519,4.7459,4.7298,4.7298,4.7298,4.7189,4.6202,4.5753,4.5603,4.4696,4.4785,4.5663,4.5753,4.6022,4.629,4.4842,4.3285,4.181,4.0224,3.8687,3.7509,3.7362,3.711,3.6644,3.6594,3.6531,3.6405,3.6405,3.6405,3.6405,3.6405,3.6405,3.6405,3.6405,3.6393,3.6405,3.6507,3.6795,3.7173,3.7462,3.7764,3.8191,3.8756,3.9107,3.9095,3.9459,3.971,3.971,3.971,3.971,3.971,3.9836,3.9998,4.03,4.0549,4.075,4.1001,4.1982,4.2523,4.2286,4.2562,4.2864,4.2989,4.3,4.3,4.3,4.3,4.2534,4.1528,4.1289,4.0901,3.9923,3.971,3.971,3.971,3.971,3.971,3.9584,3.8718,3.7864,3.7546,3.7648,3.728,3.6779,3.6605,3.6686,3.6533,3.7034,3.7528,3.7735,3.8334,3.8322,3.7826,3.7678,3.7462,3.6664,3.6452,3.6405,3.6405,3.6405,3.6405,3.6405,3.6405,3.6405,3.6405,3.6405,3.6405,5.2127,5.2007,5.1468,5.0805,5.0207,5.0028,4.9303,4.8278,4.8229,4.7848,4.7399,4.7298,4.7328,4.7279,4.713,4.704,4.704,4.6969,4.6939,4.704,4.7119,4.7149,4.684,4.4254,4.2761,4.221,3.9661,3.8237,3.7952,3.7914,3.765,3.7173,3.7135,3.6909,3.6494,3.6443,3.6418,3.6405,3.6405,3.6405,3.6405,3.6405,3.6405,3.6393,3.6884,3.7148,3.7274,3.819,3.8781,3.8869,3.9308,3.9635,3.9635,3.9672,3.971,3.971,3.9697,3.971,3.9747,4.0136,4.0236,3.9898,4.0688,4.08,4.0074,4.0851,4.1692,4.206,4.2224,4.2487,4.2914,4.3,4.3,4.3,4.3,4.2559,4.1553,4.1289,4.0901,3.9823,3.971,3.971,3.971,3.971,3.9672,3.9597,3.8768,3.799,3.7738,3.7203,3.676,3.6664,3.7185,3.7324,3.6697,3.644,3.6709,3.6699,3.6699,3.6849,3.6791,3.6697,3.6487,3.6558,3.6405,3.6405,3.6405,3.6405,3.6405,3.6405,3.6405,3.6405,3.6405,3.6405,3.6405,5.2558,5.2199,5.1917,5.1187,5.0267,5.0207,4.968,4.8929,4.8899,4.8738,4.8498,4.8498,4.8027,4.7298,4.7298,4.7298,4.7298,4.7298,4.7298,4.7298,4.7298,4.6909,4.5985,4.4182,4.2826,4.1964,3.9938,3.8843,3.8529,3.8165,3.7889,3.7688,3.7663,3.7563,3.7349,3.7349,3.7349,3.7349,3.7349,3.7349,3.7299,3.7034,3.7022,3.7324,3.7563,3.7839,3.819,3.8668,3.9044,3.9358,3.9584,3.971,3.971,3.971,3.971,3.9722,4.0023,4.0161,4.0186,4.0688,4.0725,4.0224,4.0563,4.0487,3.981,4.0412,4.1065,4.1592,4.197,4.2425,4.29,4.3,4.3,4.3,4.3,4.2559,4.1439,4.1289,4.0901,3.9898,3.971,3.971,3.971,3.971,3.9559,3.9308,3.8756,3.8329,3.7675,3.7135,3.6783,3.6528,3.6838,3.6896,3.6487,3.6405,3.6405,3.6405,3.6405,3.6405,3.6405,3.6405,3.6405,3.6405,3.6405,3.6405,3.6405,3.6405,3.6405,3.6405,3.6405,3.6405,3.6405,3.6405,3.6405,5.3216,5.2725,5.2354,5.1636,5.0745,5.0548,5.011,4.9595,4.9546,4.9456,4.9288,4.9288,4.8768,4.7938,4.7848,4.7758,4.7589,4.7578,4.7459,4.7339,4.7298,4.6627,4.5354,4.4093,4.2834,4.1593,4.03,3.9497,3.9082,3.8705,3.8391,3.8266,3.8241,3.8165,3.8015,3.799,3.799,3.799,3.799,3.8065,3.8178,3.7876,3.7764,3.799,3.8165,3.8454,3.8881,3.9032,3.9296,3.9672,3.971,3.971,3.971,3.971,3.971,3.9747,4.0199,4.0499,4.0499,4.1165,4.124,4.0613,4.0638,4.0487,4.0124,4.0261,4.08,4.1517,4.1945,4.2425,4.29,4.3,4.3,4.3,4.3,4.2598,4.1717,4.1453,4.0951,4.0086,3.981,3.971,3.971,3.9697,3.9546,3.9245,3.8994,3.8693,3.7813,3.7436,3.7022,3.6669,3.6531,3.6417,3.6405,3.6405,3.6405,3.6405,3.6405,3.6405,3.6405,3.6405,3.6405,3.6405,3.6405,3.6405,3.6405,3.6405,3.6405,3.6405,3.6405,3.6405,3.6405,3.6405,3.6405,5.4149,5.3922,5.2755,5.2187,5.2067,5.1427,5.0775,5.0237,5.0177,4.9841,4.9438,4.9378,4.9288,4.9228,4.9217,4.8858,4.8308,4.8248,4.7948,4.7448,4.7334,4.6635,4.5343,4.4093,4.2813,4.1498,4.0377,3.971,3.9635,3.9584,3.9371,3.8869,3.8869,3.8567,3.8165,3.8115,3.804,3.8128,3.814,3.8316,3.8793,3.8818,3.8529,3.8191,3.8555,3.8894,3.8969,3.9383,3.9685,3.971,3.971,3.971,3.9735,3.976,3.9772,3.9798,4.0261,4.0538,4.0688,4.1518,4.1683,4.0789,4.0901,4.0988,4.0449,4.0512,4.1014,4.2048,4.2199,4.2475,4.2914,4.3,4.3,4.3,4.3,4.2713,4.2174,4.1567,4.1102,4.0462,3.9948,3.9722,3.971,3.971,3.9672,3.9534,3.9208,3.8856,3.8592,3.7864,3.7299,3.7022,3.6733,3.6405,3.6405,3.6405,3.6405,3.6405,3.6405,3.6405,3.6405,3.6405,3.6405,3.6405,3.6405,3.6405,3.6405,3.6405,3.6405,3.6405,3.6405,3.6405,3.6569,3.6443,3.6468,5.4581,5.4119,5.3216,5.2827,5.2767,5.2127,5.1708,5.1468,5.1026,5.0697,5.0541,5.0511,5.0511,5.0522,5.0511,4.9954,4.9007,4.8947,4.8798,4.8458,4.7657,4.6563,4.5292,4.3952,4.245,4.1016,4.0421,4.0023,3.9722,3.971,3.9597,3.9459,3.9409,3.9283,3.9132,3.9107,3.9107,3.9107,3.9094,3.9208,3.9409,3.9409,3.9308,3.912,3.9308,3.9409,3.9409,3.9609,3.971,3.971,3.971,3.9835,4.0199,4.0538,4.0738,4.0775,4.1267,4.1607,4.1632,4.1973,4.1884,4.1127,4.0851,4.075,4.06,4.0826,4.1341,4.206,4.2551,4.2813,4.2939,4.3,4.3,4.3,4.2989,4.2624,4.1843,4.1428,4.0976,4.0199,3.9798,3.971,3.971,3.971,3.971,3.9672,3.9509,3.9258,3.8869,3.8203,3.7625,3.7198,3.677,3.6405,3.6405,3.6405,3.6405,3.6405,3.6405,3.6405,3.6405,3.6405,3.6405,3.6405,3.6405,3.6405,3.6405,3.6405,3.6405,3.6405,3.6405,3.6544,3.6859,3.6569,3.6619,5.494,5.4461,5.3803,5.3516,5.3443,5.2797,5.2528,5.2426,5.1816,5.1517,5.1487,5.1307,5.1217,5.1217,5.1217,5.0769,4.9924,4.9714,4.9229,4.8558,4.7631,4.6276,4.4677,4.364,4.2359,4.0936,4.0588,4.0211,3.9747,3.971,3.971,3.971,3.971,3.971,3.971,3.971,3.9772,3.9885,3.9973,4.001,4.0174,4.0036,3.9973,3.9923,3.9772,3.971,3.971,3.9848,3.9973,3.9973,4.0124,4.0387,4.0763,4.1102,4.1289,4.1352,4.1845,4.2199,4.2238,4.235,4.2121,4.1364,4.1001,4.075,4.0775,4.1088,4.1642,4.2311,4.2738,4.3,4.3,4.3,4.3,4.295,4.2864,4.2462,4.1692,4.1252,4.065,3.9948,3.9722,3.971,3.971,3.971,3.971,3.971,3.971,3.9534,3.9183,3.8655,3.809,3.755,3.7022,3.6669,3.6505,3.643,3.6418,3.6418,3.6393,3.6405,3.6405,3.6405,3.6405,3.6405,3.6405,3.6405,3.6405,3.6405,3.6405,3.6405,3.6418,3.6482,3.6594,3.6594,3.6644,5.5179,5.5072,5.4491,5.4209,5.4102,5.3486,5.3198,5.3097,5.2456,5.2097,5.2007,5.1475,5.1217,5.1217,5.1217,5.1146,5.0743,5.0219,4.9151,4.7686,4.7184,4.5774,4.362,4.331,4.2564,4.1317,4.0789,4.0261,3.9873,3.9873,3.9873,3.9772,3.9861,3.9923,3.9772,3.9886,4.0049,4.0374,4.0512,4.0725,4.1138,4.075,4.0499,4.0462,4.0061,3.9848,3.9798,4.0211,4.0462,4.0563,4.0951,4.125,4.1289,4.1414,4.1389,4.1528,4.1945,4.2199,4.2299,4.2637,4.2333,4.1603,4.1289,4.1252,4.1327,4.1364,4.1804,4.2674,4.2964,4.3042,4.3129,4.3212,4.3129,4.295,4.2663,4.235,4.1998,4.1192,4.03,3.9836,3.971,3.971,3.971,3.971,3.971,3.971,3.971,3.9685,3.9534,3.9082,3.863,3.8128,3.7575,3.7135,3.677,3.6455,3.6443,3.6443,3.6418,3.6405,3.6405,3.6405,3.6405,3.6405,3.6405,3.6405,3.6405,3.6405,3.6405,3.6393,3.6418,3.6482,3.6644,3.672,3.6619,5.5222,5.5192,5.4982,5.4892,5.479,5.4162,5.388,5.3773,5.2725,5.2187,5.2067,5.1517,5.1217,5.1217,5.1206,5.0698,4.9831,4.9567,4.9134,4.8264,4.6578,4.5294,4.4375,4.3476,4.2657,4.1924,4.1327,4.0963,4.0787,4.0762,4.08,4.08,4.0775,4.0814,4.0763,4.08,4.0926,4.1013,4.1051,4.1138,4.1289,4.1138,4.1038,4.1038,4.0876,4.08,4.08,4.0613,4.0688,4.1026,4.1214,4.1478,4.1895,4.2272,4.2473,4.2484,4.2624,4.2763,4.2713,4.2592,4.2446,4.1934,4.158,4.1567,4.1845,4.1895,4.2222,4.2889,4.3028,4.327,4.4153,4.4372,4.392,4.3087,4.2838,4.2567,4.2034,4.1192,4.035,3.9823,3.971,3.971,3.971,3.971,3.971,3.971,3.971,3.971,3.9635,3.9296,3.8906,3.858,3.8102,3.7675,3.7349,3.7034,3.6909,3.6708,3.6544,3.6418,3.6405,3.6405,3.6405,3.6405,3.6405,3.6405,3.6405,3.6405,3.6405,3.6418,3.6443,3.6619,3.6871,3.6946,3.6934,5.5581,5.5551,5.5311,5.5222,5.5149,5.473,5.4568,5.4401,5.3443,5.2923,5.2785,5.1965,5.1565,5.1517,5.1307,5.046,4.9223,4.8701,4.8151,4.7503,4.6004,4.4779,4.4264,4.345,4.2713,4.2235,4.182,4.1503,4.1289,4.1289,4.1289,4.1289,4.1289,4.1264,4.1289,4.1289,4.1364,4.1567,4.1656,4.1731,4.1843,4.1742,4.1656,4.1592,4.1428,4.1428,4.1567,4.1304,4.1279,4.1592,4.1806,4.2108,4.25,4.2788,4.3,4.3098,4.3409,4.3575,4.3173,4.3762,4.3346,4.2517,4.2307,4.2231,4.2276,4.2199,4.2436,4.2889,4.3014,4.3351,4.4044,4.4223,4.3824,4.3129,4.329,4.2842,4.186,4.0953,4.0312,3.9873,3.971,3.971,3.971,3.971,3.971,3.971,3.971,3.971,3.9635,3.9446,3.9195,3.8969,3.8592,3.8228,3.799,3.7688,3.7412,3.7048,3.6683,3.6519,3.6405,3.6405,3.6405,3.6405,3.6405,3.6405,3.6405,3.6405,3.6393,3.6443,3.6532,3.6833,3.7135,3.7424,3.7388,5.6222,5.6102,5.5534,5.5251,5.5222,5.5162,5.5132,5.5059,5.4401,5.4059,5.3832,5.2755,5.2205,5.2025,5.1387,5.026,4.9001,4.7542,4.6252,4.5369,4.4671,4.4168,4.3282,4.3059,4.2763,4.2375,4.2249,4.197,4.1603,4.1578,4.1389,4.1553,4.1578,4.1453,4.1578,4.1428,4.1768,4.2185,4.2249,4.2462,4.2824,4.2487,4.2224,4.2224,4.1793,4.1742,4.2135,4.2174,4.2199,4.2299,4.2637,4.285,4.2975,4.3,4.3,4.3056,4.4194,4.3934,4.3809,4.4673,4.497,4.2706,4.3135,4.3647,4.2532,4.2583,4.2899,4.3303,4.3492,4.3616,4.3838,4.3783,4.3644,4.3303,4.3818,4.3174,4.1077,4.0769,4.0662,4.0026,3.9747,3.971,3.971,3.971,3.971,3.971,3.971,3.971,3.971,3.9559,3.9446,3.922,3.8994,3.8856,3.8617,3.8266,3.8015,3.7776,3.7261,3.6808,3.6494,3.643,3.6405,3.6405,3.6443,3.6455,3.6393,3.6418,3.6519,3.6632,3.6833,3.7098,3.7399,3.7688,3.7714,5.6598,5.6192,5.6013,5.5641,5.5251,5.5222,5.5222,5.5132,5.4478,5.4239,5.4,5.3336,5.2593,5.2121,5.094,4.9448,4.776,4.628,4.4833,4.3673,4.3533,4.3381,4.3045,4.3,4.2925,4.2763,4.2738,4.2713,4.2573,4.2459,4.2498,4.2559,4.2459,4.2523,4.2573,4.2498,4.2624,4.2763,4.2788,4.2813,4.2925,4.2889,4.2788,4.2763,4.2598,4.2598,4.2763,4.2788,4.2788,4.2802,4.29,4.3,4.3098,4.3129,4.3254,4.3351,4.3478,4.3533,4.3367,4.3962,4.3761,4.3008,4.3515,4.3164,4.2927,4.3716,4.4256,4.467,4.5342,4.6265,4.6979,4.6409,4.5555,4.4685,4.4609,4.3921,4.2323,4.2249,4.2074,4.0637,3.9999,3.9772,3.9747,3.9697,3.9697,3.971,3.971,3.971,3.971,3.971,3.9559,3.9609,3.9484,3.9421,3.9245,3.8894,3.863,3.8517,3.7989,3.7261,3.682,3.643,3.643,3.6405,3.6544,3.6569,3.6468,3.6418,3.6582,3.6822,3.6796,3.6947,3.7538,3.7939,3.7914,5.7154,5.6539,5.6312,5.5803,5.5251,5.5222,5.5222,5.5132,5.482,5.4598,5.4349,5.3229,5.2472,5.197,5.0379,4.8633,4.6959,4.6086,4.4887,4.3487,4.3157,4.3028,4.3,4.3,4.3,4.3,4.3,4.2975,4.2975,4.3,4.3,4.295,4.3,4.3,4.295,4.3,4.3,4.2975,4.3,4.3,4.3,4.3,4.3,4.3014,4.3,4.3,4.3056,4.3519,4.3616,4.3295,4.3478,4.3838,4.3907,4.4454,4.4711,4.4725,4.5249,4.5462,4.5062,4.5661,4.5846,4.5195,4.5142,4.5235,4.5035,4.5475,4.5793,4.5169,4.5859,4.6539,4.7056,4.6656,4.5912,4.5115,4.5008,4.422,4.2427,4.2522,4.2233,4.1141,4.0374,4.0049,4.0023,3.9848,3.9722,3.971,3.971,3.971,3.971,3.971,3.9722,3.9772,3.9798,3.9722,3.9647,3.9346,3.9007,3.8919,3.8178,3.75,3.7235,3.6695,3.648,3.6494,3.6619,3.672,3.6669,3.6683,3.6859,3.6959,3.6808,3.7048,3.7688,3.8002,3.8002,5.7799,5.7154,5.6551,5.591,5.5371,5.5222,5.5222,5.5222,5.5162,5.5132,5.4798,5.3165,5.2674,5.2075,5.0244,4.8273,4.7016,4.6397,4.5304,4.4113,4.3427,4.3165,4.3165,4.3065,4.3,4.3,4.3,4.3,4.3,4.3,4.3,4.3,4.3,4.3,4.3,4.3,4.3025,4.3126,4.3176,4.3176,4.3176,4.3176,4.3126,4.3,4.3,4.3198,4.3561,4.4221,4.4522,4.3533,4.4603,4.5155,4.5382,4.6423,4.6746,4.6785,4.7261,4.7402,4.7453,4.8514,4.9296,4.735,4.7884,4.8489,4.7146,4.7004,4.6927,4.607,4.5595,4.6214,4.574,4.5422,4.5316,4.5128,4.5008,4.4167,4.299,4.2456,4.2161,4.1466,4.0901,4.0625,4.0437,4.0174,3.9798,3.9973,3.9873,3.971,3.9772,3.9898,3.9923,3.9948,3.9948,3.9948,3.9898,3.9785,3.9484,3.9157,3.8178,3.7575,3.7637,3.7222,3.6745,3.6619,3.6833,3.6984,3.7034,3.711,3.716,3.716,3.7022,3.7475,3.799,3.8002,3.8002,5.8501,5.7829,5.7197,5.6539,5.594,5.5431,5.5222,5.5222,5.5222,5.5166,5.5035,5.4578,5.3981,5.3373,5.0604,4.9184,4.7892,4.6238,4.4735,4.4508,4.3865,4.3639,4.3539,4.3277,4.3065,4.3025,4.3,4.3,4.3,4.3025,4.3,4.3,4.3,4.3,4.3,4.3051,4.3226,4.3539,4.3614,4.3628,4.3578,4.3578,4.3388,4.3051,4.3,4.3561,4.44,4.4833,4.5369,4.6043,4.6527,4.6893,4.6631,4.6161,4.6475,4.7056,4.6565,4.6487,4.7107,4.7934,4.7912,4.7643,4.7783,4.744,4.7325,4.8239,4.8539,4.8489,4.9174,4.8427,4.6785,4.6591,4.5978,4.5262,4.4994,4.4834,4.4381,4.3921,4.3113,4.2233,4.153,4.1127,4.1088,4.0663,4.0387,4.03,4.0049,3.9772,3.9823,3.9998,3.9998,3.9973,4.0287,4.0312,4.0161,4.0086,3.9823,3.9409,3.8479,3.7739,3.7801,3.7763,3.7323,3.711,3.7073,3.7198,3.7311,3.716,3.711,3.7185,3.7349,3.7851,3.8191,3.8103,3.8128,5.8697,5.8055,5.7723,5.7184,5.6581,5.5953,5.5683,5.5623,5.5311,5.4794,5.4081,5.3463,5.2508,5.1397,4.9289,4.7931,4.7397,4.5972,4.502,4.4895,4.4453,4.4192,4.4152,4.389,4.3639,4.3452,4.3363,4.3377,4.3327,4.314,4.3,4.3,4.3,4.3,4.3076,4.3226,4.3354,4.3494,4.3944,4.4105,4.3962,4.3843,4.3539,4.3101,4.3014,4.342,4.392,4.5409,4.6441,4.7583,4.8739,4.8974,4.8371,4.7972,4.8327,4.8638,4.8452,4.8161,4.8886,4.9038,4.9174,4.8948,4.9026,4.9026,4.91,4.9788,4.9679,4.9533,4.9569,4.9308,4.735,4.6291,4.5701,4.5316,4.5008,4.4766,4.4212,4.3801,4.3443,4.264,4.2071,4.182,4.1555,4.1204,4.0763,4.0563,4.0362,4.0086,3.971,3.9848,3.9898,4.0049,4.0512,4.0675,4.0499,4.0337,4.0136,3.966,3.8969,3.8329,3.8052,3.8002,3.7864,3.765,3.7399,3.7449,3.7512,3.7311,3.7311,3.755,3.7839,3.8228,3.8329,3.809,3.8266,5.8756,5.8248,5.8158,5.7769,5.7214,5.6598,5.6342,5.6252,5.573,5.4862,5.3291,5.1816,5.1405,4.926,4.784,4.6812,4.6255,4.5983,4.5598,4.5537,4.5006,4.4794,4.4729,4.4654,4.4478,4.4052,4.3951,4.3915,4.3664,4.3377,4.3151,4.3025,4.3,4.3101,4.324,4.3514,4.374,4.3768,4.4377,4.4756,4.4565,4.4371,4.4029,4.4068,4.444,4.4773,4.5551,4.6845,4.8192,4.8921,5.1106,5.1208,5.0612,5.0473,5.1291,5.1184,5.0666,5.0476,5.0585,5.0893,5.0941,5.1217,5.1094,5.107,5.1035,5.0893,5.0543,4.9897,4.9528,4.8952,4.7491,4.6487,4.5727,4.5342,4.5249,4.4562,4.3852,4.3379,4.2995,4.293,4.2587,4.2347,4.2121,4.1806,4.1291,4.0839,4.065,4.0399,4.0023,3.9823,3.9973,4.0363,4.0902,4.1051,4.0901,4.0462,4.0261,3.9772,3.922,3.8956,3.8492,3.8429,3.8341,3.7914,3.7738,3.7788,3.7813,3.7688,3.7751,3.8002,3.8128,3.8316,3.8216,3.8027,3.8379,5.9039,5.889,5.8324,5.8025,5.7859,5.7244,5.6958,5.6958,5.67,5.5879,5.4433,5.4106,5.2771,5.1279,4.9581,4.7928,4.6506,4.611,4.6085,4.6024,4.5573,4.5347,4.5321,4.5307,4.5246,4.5095,4.478,4.4353,4.3991,4.3689,4.3489,4.3126,4.3101,4.3277,4.3603,4.3826,4.4231,4.4496,4.5072,4.5483,4.5992,4.5715,4.5662,4.6089,4.6878,4.789,4.9029,4.9957,5.1031,5.2226,5.2788,5.2777,5.237,5.1769,5.169,5.1743,5.1232,5.1049,5.1244,5.1277,5.1217,5.1217,5.1217,5.1217,5.1217,5.1217,5.0988,5.0615,4.9788,4.9051,4.8878,4.7363,4.6759,4.6435,4.5833,4.5302,4.5395,4.4481,4.3115,4.3017,4.2903,4.2788,4.2548,4.2322,4.192,4.1468,4.1142,4.0839,4.0487,4.0312,4.0337,4.0802,4.1368,4.1391,4.1302,4.0763,4.0312,3.9823,3.9434,3.9546,3.9195,3.9032,3.8818,3.858,3.8303,3.8228,3.8178,3.8052,3.8215,3.8429,3.8417,3.8379,3.8517,3.863,3.8592,5.9099,5.9069,5.874,5.8607,5.8487,5.7902,5.762,5.7441,5.6421,5.5054,5.3711,5.275,5.1565,5.0059,4.8833,4.7413,4.6582,4.6311,4.6311,4.621,4.6024,4.5899,4.5899,4.5899,4.5924,4.5849,4.5598,4.5171,4.4694,4.4342,4.4066,4.394,4.384,4.3966,4.4242,4.4593,4.4717,4.509,4.5648,4.685,4.8253,4.7791,4.7735,4.8137,4.8678,4.9397,4.9962,5.088,5.1512,5.2461,5.3325,5.3818,5.3886,5.3632,5.3026,5.2692,5.2082,5.164,5.1727,5.1708,5.1606,5.1247,5.1217,5.1217,5.1217,5.1217,5.1217,5.0917,5.0047,4.9198,4.9112,4.7962,4.6888,4.62,4.5912,4.5701,4.5155,4.44,4.3769,4.317,4.2967,4.2928,4.2914,4.2688,4.2475,4.2123,4.1683,4.1317,4.0964,4.065,4.0512,4.0713,4.1128,4.1215,4.1152,4.0839,4.0312,3.9823,3.9609,3.9697,3.9722,3.9459,3.9546,3.9572,3.9257,3.8868,3.8567,3.8467,3.8668,3.8906,3.9007,3.912,3.9195,3.9258,3.9082,5.9099,5.9099,5.9099,5.9099,5.9009,5.8534,5.8294,5.7918,5.6555,5.5045,5.3241,5.19,5.0424,4.8728,4.7652,4.6828,4.6336,4.6311,4.6311,4.6286,4.6261,4.6261,4.6286,4.6311,4.6235,4.6185,4.616,4.6024,4.5386,4.4995,4.4754,4.4503,4.4539,4.469,4.483,4.5592,4.5389,4.5555,4.6564,4.8545,4.9901,5.0213,4.9893,5.0013,5.0131,5.0558,5.1075,5.1789,5.2415,5.3132,5.3832,5.461,5.5072,5.5192,5.4683,5.3785,5.3486,5.2995,5.2396,5.2157,5.1816,5.1265,5.1217,5.1217,5.1217,5.1217,5.1206,5.0999,5.0424,4.974,4.9655,4.8402,4.7261,4.6501,4.6409,4.6135,4.5048,4.4318,4.4085,4.3602,4.3226,4.3017,4.2989,4.2964,4.2727,4.2512,4.2085,4.1833,4.1443,4.0738,4.0512,4.0499,4.0688,4.0826,4.0826,4.0763,4.0275,3.9798,3.971,3.9785,3.9798,3.9747,3.9973,4.0211,4.001,3.9622,3.9245,3.9094,3.9396,3.966,3.9735,3.971,3.9572,3.9396,3.922,5.9099,5.9099,5.9099,5.9099,5.9099,5.9009,5.8952,5.8768,5.8237,5.768,5.5196,5.4231,5.2205,5.027,4.7967,4.6858,4.6436,4.6311,4.6311,4.6311,4.6311,4.6311,4.6311,4.6311,4.6311,4.6311,4.6311,4.5984,4.5811,4.5609,4.5234,4.4975,4.5092,4.4928,4.5787,4.6716,4.6924,4.6786,4.8803,5.0393,5.092,5.1868,5.234,5.2722,5.3406,5.3916,5.373,5.4048,5.4391,5.4552,5.4836,5.5102,5.5222,5.5222,5.5162,5.4832,5.4371,5.3551,5.2606,5.2426,5.2067,5.1546,5.1307,5.1247,5.1307,5.1337,5.1337,5.1206,5.087,5.0775,5.046,4.9601,4.8964,4.7795,4.672,4.6513,4.574,4.3907,4.3726,4.3795,4.3337,4.3101,4.3,4.2989,4.2964,4.2763,4.2537,4.2286,4.1959,4.1292,4.0713,4.0713,4.0524,4.0625,4.0549,4.0487,4.0224,3.976,3.976,3.9836,3.9998,4.0124,4.0475,4.0626,4.0526,4.0701,4.0688,4.0588,4.0462,4.0149,3.9848,3.9747,3.9722,3.9521,3.917,5.9428,5.9099,5.9099,5.9099,5.9099,5.9099,5.8369,5.7264,5.6287,5.4869,5.3124,5.1824,5.0487,4.9189,4.7631,4.6828,4.6386,4.6311,4.6311,4.6311,4.6311,4.6311,4.6311,4.6311,4.6311,4.6391,4.6421,4.6902,4.6666,4.6438,4.606,4.6724,4.6774,4.7001,4.7051,4.7788,4.8414,4.9456,5.1447,5.2693,5.261,5.3374,5.4239,5.4226,5.4858,5.5128,5.5222,5.5222,5.5222,5.5222,5.5222,5.5222,5.5222,5.5222,5.5192,5.5149,5.494,5.4311,5.3533,5.3341,5.2725,5.2037,5.1768,5.1798,5.1756,5.1756,5.1756,5.1798,5.0661,5.0477,5.0775,4.9945,4.9443,4.8527,4.712,4.6252,4.5634,4.4194,4.3198,4.3351,4.3462,4.3184,4.3,4.3014,4.3014,4.2914,4.2788,4.2663,4.2411,4.206,4.148,4.1026,4.0775,4.0524,4.0387,4.0261,4.0049,3.9735,3.976,3.9911,4.0275,4.0512,4.0852,4.1292,4.1507,4.1719,4.1993,4.1416,4.0663,4.0186,3.9772,3.9672,3.9521,3.8868,3.8467,5.9877,5.9129,5.9099,5.9099,5.9015,5.8538,5.7649,5.6398,5.4757,5.3079,5.1331,4.9985,4.868,4.7703,4.717,4.6637,4.6311,4.6311,4.6311,4.6311,4.6311,4.6311,4.6311,4.6311,4.6526,4.6815,4.6436,4.7346,4.8129,4.7837,4.7471,4.8503,4.8679,4.8599,4.868,4.9494,5.046,5.2001,5.3812,5.4299,5.3922,5.4551,5.5015,5.5141,5.5192,5.5222,5.5222,5.5222,5.5222,5.5222,5.5222,5.5222,5.5222,5.5222,5.5222,5.5192,5.5102,5.491,5.4401,5.4102,5.3551,5.2905,5.2438,5.2468,5.2456,5.2456,5.2276,5.2145,5.0657,5.0257,5.0232,4.9691,4.9075,4.8414,4.7529,4.637,4.5169,4.3866,4.3056,4.3115,4.3198,4.3129,4.3,4.3,4.3,4.3,4.2975,4.2939,4.2713,4.245,4.1945,4.1341,4.1102,4.0725,4.0412,4.0186,3.9923,3.9785,3.981,3.9973,4.0337,4.0763,4.1153,4.1644,4.2149,4.2199,4.2146,4.143,4.0763,4.0563,4.0261,3.9635,3.9183,3.8529,3.804,6.0266,5.9099,5.9129,5.9099,5.8915,5.6937,5.6852,5.697,5.5384,5.4284,5.2938,5.0932,4.8311,4.7384,4.6768,4.6461,4.6391,4.6301,4.6421,4.6421,4.6316,4.6526,4.6601,4.677,4.7102,4.7933,4.7357,4.8184,4.9664,4.9422,4.8762,4.8661,5.0086,4.9579,4.9764,5.0947,5.2444,5.3714,5.4895,5.5147,5.4892,5.5091,5.5166,5.5222,5.5222,5.5222,5.5222,5.5222,5.5222,5.5222,5.5222,5.5222,5.5222,5.5222,5.5222,5.5222,5.5222,5.5102,5.4922,5.4551,5.3922,5.3396,5.3126,5.3126,5.3126,5.3126,5.2887,5.213,5.0602,4.972,4.9511,4.9104,4.8229,4.777,4.7069,4.6214,4.4994,4.3836,4.3126,4.3042,4.3,4.3,4.3,4.3,4.3,4.3,4.2989,4.2964,4.2727,4.2425,4.2021,4.1592,4.1428,4.1076,4.0575,4.0312,4.0124,4.0023,3.9998,4.0186,4.0462,4.0914,4.1544,4.1858,4.2274,4.2274,4.2185,4.1619,4.1215,4.1115,4.0713,3.9772,3.9132,3.8605,3.8203,6.1194,6.0312,5.9877,5.9249,5.8447,5.7595,5.6069,5.4237,5.3259,5.1755,5.0211,4.8306,4.7383,4.703,4.6637,4.6859,4.7372,4.6616,4.6968,4.7446,4.7666,4.7652,4.7652,4.7831,4.8401,4.9265,4.8575,4.9208,5.17,5.1181,5.1332,5.1537,5.1835,5.1767,5.2011,5.206,5.3045,5.3935,5.4756,5.5192,5.5222,5.5222,5.5222,5.5222,5.5222,5.5222,5.5222,5.5222,5.5222,5.5222,5.5222,5.5222,5.5222,5.5222,5.5222,5.5222,5.5222,5.5222,5.5192,5.491,5.4521,5.4,5.3803,5.3832,5.3815,5.3815,5.3138,5.2059,5.049,4.9352,4.8537,4.7726,4.69,4.6794,4.6383,4.5687,4.4752,4.3588,4.3115,4.3028,4.3,4.3,4.3,4.3,4.3,4.3,4.2989,4.2939,4.2727,4.2576,4.2272,4.2032,4.1907,4.1302,4.0775,4.0538,4.0312,4.0261,4.0211,4.0512,4.0814,4.1468,4.2023,4.2249,4.2375,4.24,4.2235,4.187,4.148,4.1014,4.0362,3.9572,3.9082,3.8655,3.8203,6.1762,6.0835,6.0505,5.9608,5.8374,5.7508,5.5659,5.3196,5.1919,5.0328,4.8121,4.7414,4.7444,4.7773,4.7336,4.7846,4.8459,4.7948,4.8155,4.8459,4.8719,4.8808,4.8865,4.8994,4.9294,5.0518,5.0226,5.0685,5.3518,5.3187,5.3135,5.3335,5.361,5.3413,5.2866,5.3174,5.3291,5.3867,5.4496,5.5192,5.5222,5.5222,5.5222,5.5222,5.5222,5.5222,5.5222,5.5222,5.5222,5.5222,5.5222,5.5222,5.5222,5.5222,5.5222,5.5222,5.5222,5.5222,5.5222,5.5162,5.5012,5.4581,5.4478,5.4491,5.4491,5.4453,5.3828,5.2078,5.0332,4.8757,4.782,4.68,4.5922,4.5713,4.5675,4.5088,4.4304,4.3337,4.3142,4.3,4.3,4.3,4.3,4.3,4.3,4.3,4.2975,4.2989,4.2939,4.2813,4.2738,4.2548,4.2448,4.1731,4.0989,4.0851,4.07,4.0462,4.0538,4.0927,4.1343,4.1934,4.235,4.2562,4.2612,4.2537,4.2222,4.1781,4.1215,4.0638,4.0049,3.9509,3.8956,3.8504,3.7952,6.194,6.028,6.0775,6.0192,5.8681,5.6153,5.5317,5.4811,5.2159,5.0615,5.0083,4.9008,4.9137,4.9816,4.8877,4.9338,5.0059,4.9237,4.9265,5.0156,4.9847,4.9763,4.9861,5.0058,5.0643,5.2066,5.1754,5.2172,5.4883,5.3925,5.4029,5.459,5.4679,5.4342,5.3279,5.4419,5.5065,5.5116,5.5141,5.5179,5.5222,5.5222,5.5222,5.5222,5.5222,5.5222,5.5222,5.5222,5.5222,5.5222,5.5222,5.5222,5.5222,5.5222,5.5222,5.5222,5.5222,5.5222,5.5222,5.5222,5.5132,5.5059,5.494,5.5012,5.5077,5.487,5.3954,5.1823,5.0384,4.8708,4.7426,4.6214,4.5364,4.4847,4.487,4.4583,4.3822,4.3295,4.3098,4.3,4.3,4.3,4.3,4.3,4.3,4.3,4.3,4.3,4.3,4.2975,4.2925,4.2864,4.2713,4.2057,4.1378,4.1277,4.1102,4.0839,4.0738,4.1028,4.148,4.1996,4.2397,4.2724,4.2448,4.2046,4.1856,4.163,4.0939,4.0261,4.0023,3.9534,3.8956,3.8379,3.7851,6.2046,6.1327,6.0236,5.9279,5.8301,5.699,5.5574,5.3844,5.1798,5.0699,5.0616,5.0087,5.0129,5.038,5.0491,5.074,5.1713,5.074,5.0754,5.1999,5.1483,5.1795,5.1862,5.1822,5.2402,5.3518,5.3227,5.3135,5.5128,5.4458,5.4615,5.5128,5.5166,5.4964,5.4667,5.5065,5.5179,5.5179,5.5192,5.5222,5.5222,5.5222,5.5222,5.5222,5.5222,5.5222,5.5222,5.5222,5.5222,5.5222,5.5222,5.5222,5.5222,5.5222,5.5222,5.5222,5.5222,5.5222,5.5222,5.5222,5.5222,5.5222,5.5222,5.5222,5.5179,5.42,5.2911,5.15,5.0161,4.8329,4.6346,4.5874,4.5211,4.4662,4.4481,4.4176,4.3641,4.3274,4.3,4.3,4.3,4.3,4.3,4.3,4.3,4.3,4.3,4.3,4.3,4.3,4.2975,4.2975,4.2799,4.2219,4.1779,4.1439,4.0926,4.0437,4.0512,4.0826,4.1341,4.1918,4.2108,4.2247,4.1882,4.1505,4.1178,4.0852,4.0375,3.9898,3.9772,3.9509,3.8982,3.8404,3.7851,6.1972,6.1553,5.9833,5.859,5.7739,5.7034,5.5325,5.3105,5.193,5.1481,5.1495,5.1508,5.1903,5.2024,5.1834,5.2306,5.3492,5.2239,5.228,5.3505,5.3095,5.3282,5.344,5.3345,5.3584,5.4496,5.4496,5.4419,5.5166,5.5222,5.5166,5.5166,5.5222,5.5128,5.5116,5.5166,5.5222,5.5222,5.5222,5.5222,5.5222,5.5222,5.5222,5.5222,5.5222,5.5222,5.5222,5.5222,5.5222,5.5222,5.5222,5.5222,5.5222,5.5222,5.5222,5.5222,5.5222,5.5222,5.5222,5.5222,5.5222,5.5222,5.5222,5.5222,5.5128,5.4509,5.3293,5.182,4.996,4.8378,4.6825,4.6352,4.5321,4.478,4.4493,4.422,4.3793,4.3452,4.3151,4.3151,4.3,4.3,4.3,4.3,4.3,4.3,4.3,4.3,4.3,4.3,4.3,4.3,4.2875,4.2359,4.1829,4.1389,4.0826,4.0099,4.0287,4.0675,4.1076,4.1603,4.1692,4.1694,4.1329,4.0889,4.04,4.0011,3.9898,3.9798,3.9747,3.9409,3.8956,3.8479,3.7952,6.1672,6.091,5.9608,5.8274,5.7137,5.6462,5.4981,5.3177,5.3082,5.3055,5.3055,5.3042,5.3557,5.4483,5.3623,5.3795,5.459,5.3544,5.3977,5.4342,5.3886,5.4278,5.4265,5.3951,5.4316,5.4832,5.5027,5.4794,5.5222,5.5222,5.5222,5.5222,5.5222,5.5222,5.5222,5.5222,5.5222,5.5222,5.5222,5.5222,5.5222,5.5222,5.5222,5.5222,5.5222,5.5222,5.5222,5.5222,5.5222,5.5222,5.5222,5.5222,5.5222,5.5222,5.5222,5.5222,5.5222,5.5222,5.5222,5.5222,5.5222,5.5222,5.5222,5.5222,5.4769,5.4132,5.2788,5.1564,4.9988,4.918,4.8236,4.6898,4.5623,4.5271,4.497,4.4568,4.4116,4.3765,4.3503,4.3302,4.3076,4.3025,4.3,4.3,4.3,4.3,4.3,4.3,4.3,4.3,4.3,4.3,4.2799,4.2459,4.1993,4.1592,4.1001,4.0375,4.0337,4.0625,4.1001,4.1138,4.1102,4.0989,4.0738,4.0387,4.0023,3.9861,3.976,3.971,3.971,3.9584,3.922,3.8655,3.8102,6.0984,6.022,5.8441,5.7453,5.6987,5.594,5.5087,5.4603,5.456,5.4547,5.459,5.4547,5.4743,5.5103,5.473,5.4858,5.4858,5.4845,5.4832,5.4807,5.4628,5.4858,5.4858,5.473,5.4858,5.5027,5.5222,5.5222,5.5222,5.5222,5.5222,5.5222,5.5222,5.5222,5.5222,5.5222,5.5222,5.5222,5.5222,5.5222,5.5222,5.5222,5.5222,5.5222,5.5222,5.5222,5.5222,5.5222,5.5222,5.5222,5.5222,5.5222,5.5222,5.5222,5.5222,5.5222,5.5222,5.5222,5.5222,5.5222,5.5222,5.5222,5.5222,5.4458,5.3766,5.2802,5.1781,5.0796,4.9507,4.8358,4.7802,4.6823,4.6014,4.5759,4.5472,4.5121,4.4669,4.4267,4.398,4.3503,4.3302,4.3,4.3,4.3,4.3,4.3,4.3,4.3,4.3,4.3,4.3,4.3,4.29,4.2598,4.2336,4.1959,4.1304,4.0763,4.0663,4.0512,4.0613,4.0663,4.0524,4.0399,4.0261,4.0074,3.9798,3.971,3.971,3.971,3.971,3.9609,3.9421,3.8894,3.8504,6.0565,5.9532,5.7812,5.6825,5.6256,5.5508,5.5222,5.5222,5.5222,5.5222,5.5222,5.5154,5.5222,5.5192,5.5141,5.5166,5.5154,5.5116,5.5141,5.5141,5.5222,5.5166,5.5179,5.5222,5.5154,5.5222,5.5222,5.5222,5.5222,5.5222,5.5222,5.5222,5.5222,5.5222,5.5222,5.5222,5.5222,5.5222,5.5222,5.5222,5.5222,5.5222,5.5222,5.5222,5.5222,5.5222,5.5222,5.5222,5.5222,5.5222,5.5222,5.5222,5.5222,5.5222,5.5222,5.5222,5.5222,5.5222,5.5222,5.5222,5.5222,5.5222,5.5141,5.3977,5.3029,5.2051,5.1112,5.0156,4.856,4.7279,4.6983,4.671,4.6486,4.6261,4.5999,4.5723,4.5296,4.4844,4.4357,4.3829,4.3452,4.3126,4.3,4.3,4.3,4.3,4.3,4.3,4.3,4.3,4.3,4.3,4.2925,4.2774,4.2512,4.2224,4.1694,4.1103,4.0663,4.0538,4.045,4.0249,4.0136,4.0036,3.9923,3.9772,3.971,3.971,3.971,3.971,3.971,3.966,3.9484,3.912,3.8843,6.0236,5.8906,5.7573,5.6329,5.5311,5.5222,5.5222,5.5222,5.5222,5.5222,5.5222,5.5222,5.5222,5.5222,5.5222,5.5222,5.5222,5.5222,5.5222,5.5222,5.5222,5.5222,5.5222,5.5222,5.5222,5.5222,5.5222,5.5222,5.5222,5.5222,5.5222,5.5222,5.5222,5.5222,5.5222,5.5222,5.5222,5.5222,5.5222,5.5222,5.5222,5.5222,5.5222,5.5222,5.5222,5.5222,5.5222,5.5222,5.5222,5.5222,5.5222,5.5222,5.5222,5.5222,5.5222,5.5222,5.5222,5.5222,5.5222,5.5222,5.5222,5.5222,5.5128,5.3554,5.2373,5.1727,5.0892,4.9224,4.7608,4.7176,4.6949,4.6621,4.6361,4.6311,4.6135,4.5974,4.5723,4.5221,4.4683,4.4131,4.3589,4.3251,4.3,4.3,4.3,4.3,4.3,4.3,4.3,4.3,4.3,4.3,4.295,4.285,4.2663,4.2386,4.2046,4.153,4.1003,4.0738,4.0763,4.0337,3.9798,3.9772,3.9798,3.976,3.971,3.971,3.971,3.971,3.971,3.971,3.9509,3.9271,3.9183,5.9548,5.8248,5.6958,5.594,5.5251,5.5222,5.5222,5.5222,5.5222,5.5222,5.5222,5.5222,5.5222,5.5222,5.5222,5.5222,5.5222,5.5222,5.5222,5.5222,5.5222,5.5222,5.5222,5.5222,5.5222,5.5222,5.5222,5.5222,5.5222,5.5222,5.5222,5.5222,5.5222,5.5222,5.5222,5.5222,5.5222,5.5222,5.5222,5.5222,5.5222,5.5222,5.5222,5.5222,5.5222,5.5222,5.5222,5.5222,5.5222,5.5222,5.5222,5.5222,5.5222,5.5222,5.5222,5.5222,5.5222,5.5222,5.5222,5.5222,5.5222,5.5154,5.4781,5.3174,5.2024,5.1522,5.0338,4.839,4.7239,4.7072,4.6874,4.6541,4.6311,4.6311,4.6286,4.6185,4.606,4.5547,4.4985,4.4432,4.3815,4.3413,4.3151,4.3,4.3,4.3,4.3,4.3,4.3,4.3,4.3,4.3,4.3,4.29,4.2763,4.2637,4.2372,4.2021,4.153,4.1291,4.1102,4.0675,4.0236,3.9848,3.971,3.976,3.9785,3.971,3.971,3.971,3.971,3.971,3.971,3.9509,3.9521,5.889,5.7543,5.6286,5.5551,5.5251,5.5222,5.5222,5.5222,5.5222,5.5222,5.5222,5.5222,5.5222,5.5222,5.5222,5.5222,5.5222,5.5222,5.5222,5.5222,5.5222,5.5222,5.5222,5.5222,5.5222,5.5222,5.5222,5.5222,5.5222,5.5222,5.5222,5.5222,5.5222,5.5222,5.5222,5.5222,5.5222,5.5222,5.5222,5.5222,5.5222,5.5222,5.5222,5.5222,5.5222,5.5222,5.5222,5.5222,5.5222,5.5222,5.5222,5.5222,5.5222,5.5222,5.5222,5.5222,5.5222,5.5222,5.5222,5.5222,5.5222,5.5154,5.4406,5.2762,5.1167,5.0505,4.9024,4.7269,4.6815,4.6586,4.6586,4.6316,4.6311,4.6311,4.6311,4.6235,4.6035,4.5698,4.5321,4.502,4.4367,4.365,4.3388,4.3076,4.3076,4.3,4.3,4.3,4.3,4.3,4.3,4.3,4.3,4.3,4.29,4.2864,4.2813,4.2423,4.1982,4.1617,4.1277,4.1051,4.0725,4.0261,3.9948,3.9923,3.9898,3.976,3.971,3.971,3.971,3.971,3.971,3.971,3.9672,5.8112,5.6868,5.57,5.5222,5.5222,5.5222,5.5222,5.5222,5.5222,5.5222,5.5222,5.5222,5.5222,5.5222,5.5222,5.5222,5.5222,5.5222,5.5222,5.5222,5.5222,5.5222,5.5222,5.5222,5.5222,5.5222,5.5222,5.5222,5.5222,5.5222,5.5222,5.5222,5.5222,5.5222,5.5222,5.5222,5.5222,5.5222,5.5222,5.5222,5.5222,5.5222,5.5222,5.5222,5.5222,5.5222,5.5222,5.5222,5.5222,5.5222,5.5222,5.5222,5.5222,5.5222,5.5222,5.5222,5.5222,5.5222,5.5222,5.5222,5.5222,5.4926,5.3766,5.2522,5.0989,4.9579,4.8126,4.6938,4.6466,4.6311,4.6311,4.6311,4.6311,4.6311,4.6311,4.6311,4.606,4.5874,4.5698,4.5472,4.4794,4.4027,4.3614,4.3327,4.3101,4.3025,4.3,4.3,4.3,4.3,4.3,4.3,4.3,4.3,4.3,4.2975,4.2964,4.2738,4.2297,4.1882,4.1542,4.1416,4.1115,4.0575,4.0337,4.0199,3.9923,3.9735,3.971,3.9747,3.971,3.971,3.971,3.971,3.971,5.7047,5.6299,5.5521,5.5222,5.5222,5.5222,5.5222,5.5222,5.5222,5.5222,5.5222,5.5222,5.5222,5.5222,5.5222,5.5222,5.5222,5.5222,5.5222,5.5222,5.5222,5.5222,5.5222,5.5222,5.5222,5.5222,5.5222,5.5222,5.5222,5.5222,5.5222,5.5222,5.5222,5.5222,5.5222,5.5222,5.5222,5.5222,5.5222,5.5222,5.5222,5.5222,5.5222,5.5222,5.5222,5.5222,5.5222,5.5222,5.5222,5.5222,5.5222,5.5222,5.5222,5.5222,5.5222,5.5222,5.5222,5.5222,5.5222,5.5222,5.5222,5.5141,5.4107,5.3069,5.1645,5.031,4.8664,4.6725,4.6311,4.6311,4.6311,4.6311,4.6311,4.6311,4.6311,4.6311,4.6185,4.61,4.5999,4.5573,4.5006,4.4378,4.3865,4.3503,4.3101,4.3051,4.3,4.3,4.3,4.3,4.3,4.3,4.3,4.3,4.3,4.3,4.295,4.2799,4.2624,4.2208,4.1957,4.1959,4.1594,4.1078,4.0663,4.0425,4.0149,3.9973,3.9823,3.9848,3.9747,3.971,3.971,3.971,3.971]}]]